<?xml version="1.0" encoding="UTF-8" standalone="no" ?>
<gpx xmlns="http://www.topografix.com/GPX/1/1" xmlns:xsi="http://www.w3.org/2001/XMLSchema-instance" xsi:schemaLocation="http://www.topografix.com/GPX/1/1 http://www.topografix.com/GPX/1/1/gpx.xsd" version="1.1" creator="VisuGPX - https://www.visugpx.com">
  <metadata>
    <name>Randonnée Essart Mador</name>
    <desc><![CDATA[Circuit au départ de L'Essart Mador dans la forêt de Lyons la Forêt]]></desc>
  </metadata>
  <trk>
    <name><![CDATA[Randonnée Essart Mador_1]]></name>
    <trkseg>
      <trkpt lat="49.39553" lon="1.44041">
        <ele>165</ele>
        <time>2017-07-18T14:08:36Z</time>
      </trkpt>
      <trkpt lat="49.39557" lon="1.44038">
        <ele>165</ele>
        <time>2017-07-18T14:08:36Z</time>
      </trkpt>
      <trkpt lat="49.39559" lon="1.44034">
        <ele>165</ele>
        <time>2017-07-18T14:08:36Z</time>
      </trkpt>
      <trkpt lat="49.39561" lon="1.44025">
        <ele>165</ele>
        <time>2017-07-18T14:08:36Z</time>
      </trkpt>
      <trkpt lat="49.39557" lon="1.44019">
        <ele>165</ele>
        <time>2017-07-18T14:08:52Z</time>
      </trkpt>
      <trkpt lat="49.39555" lon="1.44011">
        <ele>165</ele>
        <time>2017-07-18T14:08:52Z</time>
      </trkpt>
      <trkpt lat="49.39554" lon="1.44003">
        <ele>165</ele>
        <time>2017-07-18T14:08:52Z</time>
      </trkpt>
      <trkpt lat="49.39549" lon="1.43994">
        <ele>165</ele>
        <time>2017-07-18T14:08:52Z</time>
      </trkpt>
      <trkpt lat="49.39545" lon="1.43985">
        <ele>165</ele>
        <time>2017-07-18T14:09:08Z</time>
      </trkpt>
      <trkpt lat="49.39544" lon="1.43975">
        <ele>165</ele>
        <time>2017-07-18T14:09:08Z</time>
      </trkpt>
      <trkpt lat="49.39543" lon="1.4397">
        <ele>165</ele>
        <time>2017-07-18T14:09:08Z</time>
      </trkpt>
      <trkpt lat="49.39541" lon="1.43963">
        <ele>152</ele>
        <time>2017-07-18T14:09:08Z</time>
      </trkpt>
      <trkpt lat="49.39541" lon="1.43954">
        <ele>149</ele>
        <time>2017-07-18T14:09:24Z</time>
      </trkpt>
      <trkpt lat="49.39543" lon="1.43946">
        <ele>162</ele>
        <time>2017-07-18T14:09:24Z</time>
      </trkpt>
      <trkpt lat="49.39542" lon="1.4394">
        <ele>162</ele>
        <time>2017-07-18T14:09:24Z</time>
      </trkpt>
      <trkpt lat="49.39541" lon="1.43931">
        <ele>149</ele>
        <time>2017-07-18T14:09:24Z</time>
      </trkpt>
      <trkpt lat="49.39541" lon="1.43923">
        <ele>149</ele>
        <time>2017-07-18T14:09:40Z</time>
      </trkpt>
      <trkpt lat="49.39541" lon="1.43912">
        <ele>149</ele>
        <time>2017-07-18T14:09:40Z</time>
      </trkpt>
      <trkpt lat="49.39543" lon="1.43903">
        <ele>162</ele>
        <time>2017-07-18T14:09:40Z</time>
      </trkpt>
      <trkpt lat="49.39544" lon="1.43893">
        <ele>162</ele>
        <time>2017-07-18T14:09:40Z</time>
      </trkpt>
      <trkpt lat="49.39545" lon="1.43886">
        <ele>162</ele>
        <time>2017-07-18T14:09:56Z</time>
      </trkpt>
      <trkpt lat="49.39544" lon="1.43878">
        <ele>162</ele>
        <time>2017-07-18T14:09:56Z</time>
      </trkpt>
      <trkpt lat="49.39544" lon="1.43871">
        <ele>162</ele>
        <time>2017-07-18T14:09:56Z</time>
      </trkpt>
      <trkpt lat="49.39544" lon="1.43861">
        <ele>162</ele>
        <time>2017-07-18T14:09:56Z</time>
      </trkpt>
      <trkpt lat="49.39545" lon="1.43855">
        <ele>162</ele>
        <time>2017-07-18T14:10:12Z</time>
      </trkpt>
      <trkpt lat="49.39553" lon="1.43846">
        <ele>162</ele>
        <time>2017-07-18T14:10:12Z</time>
      </trkpt>
      <trkpt lat="49.39554" lon="1.43841">
        <ele>162</ele>
        <time>2017-07-18T14:10:12Z</time>
      </trkpt>
      <trkpt lat="49.39553" lon="1.43832">
        <ele>162</ele>
        <time>2017-07-18T14:10:12Z</time>
      </trkpt>
      <trkpt lat="49.39554" lon="1.43822">
        <ele>162</ele>
        <time>2017-07-18T14:10:28Z</time>
      </trkpt>
      <trkpt lat="49.39553" lon="1.43814">
        <ele>162</ele>
        <time>2017-07-18T14:10:28Z</time>
      </trkpt>
      <trkpt lat="49.3955" lon="1.43809">
        <ele>162</ele>
        <time>2017-07-18T14:10:28Z</time>
      </trkpt>
      <trkpt lat="49.39545" lon="1.43804">
        <ele>162</ele>
        <time>2017-07-18T14:10:28Z</time>
      </trkpt>
      <trkpt lat="49.39543" lon="1.43797">
        <ele>162</ele>
        <time>2017-07-18T14:10:44Z</time>
      </trkpt>
      <trkpt lat="49.39543" lon="1.4379">
        <ele>157</ele>
        <time>2017-07-18T14:10:44Z</time>
      </trkpt>
      <trkpt lat="49.39544" lon="1.43783">
        <ele>157</ele>
        <time>2017-07-18T14:10:44Z</time>
      </trkpt>
      <trkpt lat="49.39545" lon="1.43774">
        <ele>157</ele>
        <time>2017-07-18T14:10:44Z</time>
      </trkpt>
      <trkpt lat="49.39548" lon="1.43765">
        <ele>157</ele>
        <time>2017-07-18T14:11:00Z</time>
      </trkpt>
      <trkpt lat="49.39549" lon="1.43757">
        <ele>157</ele>
        <time>2017-07-18T14:11:00Z</time>
      </trkpt>
      <trkpt lat="49.39552" lon="1.4375">
        <ele>157</ele>
        <time>2017-07-18T14:11:00Z</time>
      </trkpt>
      <trkpt lat="49.39555" lon="1.43742">
        <ele>157</ele>
        <time>2017-07-18T14:11:00Z</time>
      </trkpt>
      <trkpt lat="49.3956" lon="1.43736">
        <ele>157</ele>
        <time>2017-07-18T14:11:16Z</time>
      </trkpt>
      <trkpt lat="49.39562" lon="1.43728">
        <ele>157</ele>
        <time>2017-07-18T14:11:16Z</time>
      </trkpt>
      <trkpt lat="49.39561" lon="1.43719">
        <ele>157</ele>
        <time>2017-07-18T14:11:16Z</time>
      </trkpt>
      <trkpt lat="49.39561" lon="1.43711">
        <ele>157</ele>
        <time>2017-07-18T14:11:16Z</time>
      </trkpt>
      <trkpt lat="49.39564" lon="1.43703">
        <ele>153</ele>
        <time>2017-07-18T14:11:32Z</time>
      </trkpt>
      <trkpt lat="49.39562" lon="1.43697">
        <ele>153</ele>
        <time>2017-07-18T14:11:32Z</time>
      </trkpt>
      <trkpt lat="49.3956" lon="1.43689">
        <ele>153</ele>
        <time>2017-07-18T14:11:32Z</time>
      </trkpt>
      <trkpt lat="49.39562" lon="1.4368">
        <ele>153</ele>
        <time>2017-07-18T14:11:32Z</time>
      </trkpt>
      <trkpt lat="49.39562" lon="1.43671">
        <ele>153</ele>
        <time>2017-07-18T14:11:48Z</time>
      </trkpt>
      <trkpt lat="49.39564" lon="1.43662">
        <ele>153</ele>
        <time>2017-07-18T14:11:48Z</time>
      </trkpt>
      <trkpt lat="49.39564" lon="1.43654">
        <ele>153</ele>
        <time>2017-07-18T14:11:48Z</time>
      </trkpt>
      <trkpt lat="49.39564" lon="1.43647">
        <ele>153</ele>
        <time>2017-07-18T14:11:48Z</time>
      </trkpt>
      <trkpt lat="49.39563" lon="1.4364">
        <ele>153</ele>
        <time>2017-07-18T14:12:04Z</time>
      </trkpt>
      <trkpt lat="49.39563" lon="1.43634">
        <ele>153</ele>
        <time>2017-07-18T14:12:04Z</time>
      </trkpt>
      <trkpt lat="49.39565" lon="1.43627">
        <ele>153</ele>
        <time>2017-07-18T14:12:04Z</time>
      </trkpt>
      <trkpt lat="49.39567" lon="1.43618">
        <ele>150</ele>
        <time>2017-07-18T14:12:04Z</time>
      </trkpt>
      <trkpt lat="49.39568" lon="1.43612">
        <ele>150</ele>
        <time>2017-07-18T14:12:20Z</time>
      </trkpt>
      <trkpt lat="49.39568" lon="1.43603">
        <ele>150</ele>
        <time>2017-07-18T14:12:20Z</time>
      </trkpt>
      <trkpt lat="49.39569" lon="1.43596">
        <ele>150</ele>
        <time>2017-07-18T14:12:20Z</time>
      </trkpt>
      <trkpt lat="49.39568" lon="1.43589">
        <ele>150</ele>
        <time>2017-07-18T14:12:20Z</time>
      </trkpt>
      <trkpt lat="49.39569" lon="1.43583">
        <ele>150</ele>
        <time>2017-07-18T14:12:36Z</time>
      </trkpt>
      <trkpt lat="49.39568" lon="1.43575">
        <ele>150</ele>
        <time>2017-07-18T14:12:36Z</time>
      </trkpt>
      <trkpt lat="49.39567" lon="1.43566">
        <ele>150</ele>
        <time>2017-07-18T14:12:36Z</time>
      </trkpt>
      <trkpt lat="49.39567" lon="1.4356">
        <ele>150</ele>
        <time>2017-07-18T14:12:36Z</time>
      </trkpt>
      <trkpt lat="49.39565" lon="1.43553">
        <ele>150</ele>
        <time>2017-07-18T14:12:52Z</time>
      </trkpt>
      <trkpt lat="49.39563" lon="1.43546">
        <ele>150</ele>
        <time>2017-07-18T14:12:52Z</time>
      </trkpt>
      <trkpt lat="49.39562" lon="1.43535">
        <ele>148</ele>
        <time>2017-07-18T14:12:52Z</time>
      </trkpt>
      <trkpt lat="49.39562" lon="1.43529">
        <ele>148</ele>
        <time>2017-07-18T14:12:52Z</time>
      </trkpt>
      <trkpt lat="49.39559" lon="1.43523">
        <ele>148</ele>
        <time>2017-07-18T14:13:08Z</time>
      </trkpt>
      <trkpt lat="49.39556" lon="1.43517">
        <ele>148</ele>
        <time>2017-07-18T14:13:08Z</time>
      </trkpt>
      <trkpt lat="49.39555" lon="1.4351">
        <ele>148</ele>
        <time>2017-07-18T14:13:08Z</time>
      </trkpt>
      <trkpt lat="49.39554" lon="1.43501">
        <ele>148</ele>
        <time>2017-07-18T14:13:08Z</time>
      </trkpt>
      <trkpt lat="49.39554" lon="1.43496">
        <ele>148</ele>
        <time>2017-07-18T14:13:24Z</time>
      </trkpt>
      <trkpt lat="49.39552" lon="1.43489">
        <ele>148</ele>
        <time>2017-07-18T14:13:24Z</time>
      </trkpt>
      <trkpt lat="49.3955" lon="1.43483">
        <ele>148</ele>
        <time>2017-07-18T14:13:24Z</time>
      </trkpt>
      <trkpt lat="49.39546" lon="1.43481">
        <ele>148</ele>
        <time>2017-07-18T14:13:24Z</time>
      </trkpt>
      <trkpt lat="49.39542" lon="1.43473">
        <ele>148</ele>
        <time>2017-07-18T14:13:40Z</time>
      </trkpt>
      <trkpt lat="49.39539" lon="1.43465">
        <ele>142</ele>
        <time>2017-07-18T14:13:40Z</time>
      </trkpt>
      <trkpt lat="49.39536" lon="1.43457">
        <ele>144</ele>
        <time>2017-07-18T14:13:40Z</time>
      </trkpt>
      <trkpt lat="49.39532" lon="1.43452">
        <ele>144</ele>
        <time>2017-07-18T14:13:40Z</time>
      </trkpt>
      <trkpt lat="49.39531" lon="1.43443">
        <ele>144</ele>
        <time>2017-07-18T14:13:56Z</time>
      </trkpt>
      <trkpt lat="49.39527" lon="1.43438">
        <ele>144</ele>
        <time>2017-07-18T14:13:56Z</time>
      </trkpt>
      <trkpt lat="49.39526" lon="1.43431">
        <ele>144</ele>
        <time>2017-07-18T14:13:56Z</time>
      </trkpt>
      <trkpt lat="49.39525" lon="1.43424">
        <ele>144</ele>
        <time>2017-07-18T14:13:56Z</time>
      </trkpt>
      <trkpt lat="49.39527" lon="1.43415">
        <ele>144</ele>
        <time>2017-07-18T14:14:12Z</time>
      </trkpt>
      <trkpt lat="49.39532" lon="1.43409">
        <ele>144</ele>
        <time>2017-07-18T14:14:12Z</time>
      </trkpt>
      <trkpt lat="49.39533" lon="1.43399">
        <ele>144</ele>
        <time>2017-07-18T14:14:12Z</time>
      </trkpt>
      <trkpt lat="49.39528" lon="1.43392">
        <ele>144</ele>
        <time>2017-07-18T14:14:12Z</time>
      </trkpt>
      <trkpt lat="49.39525" lon="1.43386">
        <ele>144</ele>
        <time>2017-07-18T14:14:28Z</time>
      </trkpt>
      <trkpt lat="49.39521" lon="1.43377">
        <ele>144</ele>
        <time>2017-07-18T14:14:28Z</time>
      </trkpt>
      <trkpt lat="49.3952" lon="1.43371">
        <ele>133</ele>
        <time>2017-07-18T14:14:28Z</time>
      </trkpt>
      <trkpt lat="49.3952" lon="1.43363">
        <ele>133</ele>
        <time>2017-07-18T14:14:28Z</time>
      </trkpt>
      <trkpt lat="49.39514" lon="1.43365">
        <ele>133</ele>
        <time>2017-07-18T14:15:56Z</time>
      </trkpt>
      <trkpt lat="49.39514" lon="1.43358">
        <ele>133</ele>
        <time>2017-07-18T14:15:56Z</time>
      </trkpt>
      <trkpt lat="49.39497" lon="1.43287">
        <ele>130</ele>
        <time>2017-07-18T14:15:56Z</time>
      </trkpt>
      <trkpt lat="49.39496" lon="1.43281">
        <ele>130</ele>
        <time>2017-07-18T14:15:56Z</time>
      </trkpt>
      <trkpt lat="49.39495" lon="1.43252">
        <ele>130</ele>
        <time>2017-07-18T14:15:56Z</time>
      </trkpt>
      <trkpt lat="49.39491" lon="1.43245">
        <ele>130</ele>
        <time>2017-07-18T14:16:12Z</time>
      </trkpt>
      <trkpt lat="49.39489" lon="1.43238">
        <ele>130</ele>
        <time>2017-07-18T14:16:12Z</time>
      </trkpt>
      <trkpt lat="49.39487" lon="1.43229">
        <ele>130</ele>
        <time>2017-07-18T14:16:12Z</time>
      </trkpt>
      <trkpt lat="49.39486" lon="1.4322">
        <ele>130</ele>
        <time>2017-07-18T14:16:12Z</time>
      </trkpt>
      <trkpt lat="49.39485" lon="1.43213">
        <ele>130</ele>
        <time>2017-07-18T14:16:28Z</time>
      </trkpt>
      <trkpt lat="49.39484" lon="1.43205">
        <ele>135</ele>
        <time>2017-07-18T14:16:28Z</time>
      </trkpt>
      <trkpt lat="49.39482" lon="1.43198">
        <ele>135</ele>
        <time>2017-07-18T14:16:28Z</time>
      </trkpt>
      <trkpt lat="49.39481" lon="1.43192">
        <ele>135</ele>
        <time>2017-07-18T14:16:28Z</time>
      </trkpt>
      <trkpt lat="49.39478" lon="1.43185">
        <ele>135</ele>
        <time>2017-07-18T14:16:44Z</time>
      </trkpt>
      <trkpt lat="49.39477" lon="1.43176">
        <ele>135</ele>
        <time>2017-07-18T14:16:44Z</time>
      </trkpt>
      <trkpt lat="49.39476" lon="1.43172">
        <ele>135</ele>
        <time>2017-07-18T14:16:44Z</time>
      </trkpt>
      <trkpt lat="49.39471" lon="1.43173">
        <ele>135</ele>
        <time>2017-07-18T14:16:44Z</time>
      </trkpt>
      <trkpt lat="49.39466" lon="1.43171">
        <ele>135</ele>
        <time>2017-07-18T14:17:00Z</time>
      </trkpt>
      <trkpt lat="49.39461" lon="1.4317">
        <ele>135</ele>
        <time>2017-07-18T14:17:00Z</time>
      </trkpt>
      <trkpt lat="49.39457" lon="1.43169">
        <ele>134</ele>
        <time>2017-07-18T14:17:00Z</time>
      </trkpt>
      <trkpt lat="49.39452" lon="1.43167">
        <ele>134</ele>
        <time>2017-07-18T14:17:00Z</time>
      </trkpt>
      <trkpt lat="49.39448" lon="1.43165">
        <ele>134</ele>
        <time>2017-07-18T14:17:16Z</time>
      </trkpt>
      <trkpt lat="49.39444" lon="1.43162">
        <ele>134</ele>
        <time>2017-07-18T14:17:16Z</time>
      </trkpt>
      <trkpt lat="49.3944" lon="1.43158">
        <ele>134</ele>
        <time>2017-07-18T14:17:16Z</time>
      </trkpt>
      <trkpt lat="49.39436" lon="1.43153">
        <ele>134</ele>
        <time>2017-07-18T14:17:16Z</time>
      </trkpt>
      <trkpt lat="49.39433" lon="1.43148">
        <ele>134</ele>
        <time>2017-07-18T14:17:32Z</time>
      </trkpt>
      <trkpt lat="49.39429" lon="1.43144">
        <ele>134</ele>
        <time>2017-07-18T14:17:32Z</time>
      </trkpt>
      <trkpt lat="49.39425" lon="1.4314">
        <ele>134</ele>
        <time>2017-07-18T14:17:32Z</time>
      </trkpt>
      <trkpt lat="49.39421" lon="1.43137">
        <ele>134</ele>
        <time>2017-07-18T14:17:32Z</time>
      </trkpt>
      <trkpt lat="49.39412" lon="1.43122">
        <ele>134</ele>
        <time>2017-07-18T14:18:56Z</time>
      </trkpt>
      <trkpt lat="49.39415" lon="1.43117">
        <ele>134</ele>
        <time>2017-07-18T14:18:56Z</time>
      </trkpt>
      <trkpt lat="49.39419" lon="1.43114">
        <ele>134</ele>
        <time>2017-07-18T14:18:56Z</time>
      </trkpt>
      <trkpt lat="49.39425" lon="1.43114">
        <ele>134</ele>
        <time>2017-07-18T14:18:56Z</time>
      </trkpt>
      <trkpt lat="49.39431" lon="1.43115">
        <ele>134</ele>
        <time>2017-07-18T14:18:56Z</time>
      </trkpt>
      <trkpt lat="49.39435" lon="1.43119">
        <ele>134</ele>
        <time>2017-07-18T14:19:12Z</time>
      </trkpt>
      <trkpt lat="49.3944" lon="1.4312">
        <ele>134</ele>
        <time>2017-07-18T14:19:12Z</time>
      </trkpt>
      <trkpt lat="49.39444" lon="1.4312">
        <ele>134</ele>
        <time>2017-07-18T14:19:12Z</time>
      </trkpt>
      <trkpt lat="49.39449" lon="1.43119">
        <ele>134</ele>
        <time>2017-07-18T14:19:12Z</time>
      </trkpt>
      <trkpt lat="49.39454" lon="1.43118">
        <ele>134</ele>
        <time>2017-07-18T14:19:28Z</time>
      </trkpt>
      <trkpt lat="49.39458" lon="1.43117">
        <ele>134</ele>
        <time>2017-07-18T14:19:28Z</time>
      </trkpt>
      <trkpt lat="49.39463" lon="1.43117">
        <ele>138</ele>
        <time>2017-07-18T14:19:28Z</time>
      </trkpt>
      <trkpt lat="49.39467" lon="1.43117">
        <ele>138</ele>
        <time>2017-07-18T14:19:28Z</time>
      </trkpt>
      <trkpt lat="49.39472" lon="1.43117">
        <ele>138</ele>
        <time>2017-07-18T14:19:52Z</time>
      </trkpt>
      <trkpt lat="49.39486" lon="1.43119">
        <ele>138</ele>
        <time>2017-07-18T14:19:52Z</time>
      </trkpt>
      <trkpt lat="49.39491" lon="1.4312">
        <ele>138</ele>
        <time>2017-07-18T14:19:52Z</time>
      </trkpt>
      <trkpt lat="49.39495" lon="1.43122">
        <ele>138</ele>
        <time>2017-07-18T14:19:52Z</time>
      </trkpt>
      <trkpt lat="49.39501" lon="1.43124">
        <ele>138</ele>
        <time>2017-07-18T14:20:08Z</time>
      </trkpt>
      <trkpt lat="49.39504" lon="1.43125">
        <ele>138</ele>
        <time>2017-07-18T14:20:08Z</time>
      </trkpt>
      <trkpt lat="49.39508" lon="1.43126">
        <ele>135</ele>
        <time>2017-07-18T14:20:08Z</time>
      </trkpt>
      <trkpt lat="49.39513" lon="1.43127">
        <ele>135</ele>
        <time>2017-07-18T14:20:08Z</time>
      </trkpt>
      <trkpt lat="49.39518" lon="1.43128">
        <ele>135</ele>
        <time>2017-07-18T14:20:24Z</time>
      </trkpt>
      <trkpt lat="49.39527" lon="1.43128">
        <ele>135</ele>
        <time>2017-07-18T14:20:24Z</time>
      </trkpt>
      <trkpt lat="49.39531" lon="1.4313">
        <ele>135</ele>
        <time>2017-07-18T14:20:24Z</time>
      </trkpt>
      <trkpt lat="49.39536" lon="1.4313">
        <ele>135</ele>
        <time>2017-07-18T14:20:24Z</time>
      </trkpt>
      <trkpt lat="49.3954" lon="1.43132">
        <ele>135</ele>
        <time>2017-07-18T14:20:40Z</time>
      </trkpt>
      <trkpt lat="49.39547" lon="1.43134">
        <ele>140</ele>
        <time>2017-07-18T14:20:40Z</time>
      </trkpt>
      <trkpt lat="49.39549" lon="1.43135">
        <ele>140</ele>
        <time>2017-07-18T14:20:40Z</time>
      </trkpt>
      <trkpt lat="49.39554" lon="1.43136">
        <ele>140</ele>
        <time>2017-07-18T14:20:40Z</time>
      </trkpt>
      <trkpt lat="49.39558" lon="1.43136">
        <ele>140</ele>
        <time>2017-07-18T14:20:56Z</time>
      </trkpt>
      <trkpt lat="49.39563" lon="1.43136">
        <ele>140</ele>
        <time>2017-07-18T14:20:56Z</time>
      </trkpt>
      <trkpt lat="49.39569" lon="1.43136">
        <ele>140</ele>
        <time>2017-07-18T14:20:56Z</time>
      </trkpt>
      <trkpt lat="49.39572" lon="1.43137">
        <ele>140</ele>
        <time>2017-07-18T14:20:56Z</time>
      </trkpt>
      <trkpt lat="49.39577" lon="1.43137">
        <ele>140</ele>
        <time>2017-07-18T14:21:12Z</time>
      </trkpt>
      <trkpt lat="49.39583" lon="1.43141">
        <ele>140</ele>
        <time>2017-07-18T14:21:12Z</time>
      </trkpt>
      <trkpt lat="49.39591" lon="1.43144">
        <ele>140</ele>
        <time>2017-07-18T14:21:12Z</time>
      </trkpt>
      <trkpt lat="49.39597" lon="1.43146">
        <ele>140</ele>
        <time>2017-07-18T14:21:12Z</time>
      </trkpt>
      <trkpt lat="49.39601" lon="1.43147">
        <ele>140</ele>
        <time>2017-07-18T14:21:28Z</time>
      </trkpt>
      <trkpt lat="49.39606" lon="1.43148">
        <ele>140</ele>
        <time>2017-07-18T14:21:28Z</time>
      </trkpt>
      <trkpt lat="49.39611" lon="1.43148">
        <ele>140</ele>
        <time>2017-07-18T14:21:28Z</time>
      </trkpt>
      <trkpt lat="49.39615" lon="1.43148">
        <ele>140</ele>
        <time>2017-07-18T14:21:28Z</time>
      </trkpt>
      <trkpt lat="49.3962" lon="1.43148">
        <ele>140</ele>
        <time>2017-07-18T14:21:44Z</time>
      </trkpt>
      <trkpt lat="49.39625" lon="1.43148">
        <ele>140</ele>
        <time>2017-07-18T14:21:44Z</time>
      </trkpt>
      <trkpt lat="49.39629" lon="1.43148">
        <ele>139</ele>
        <time>2017-07-18T14:21:44Z</time>
      </trkpt>
      <trkpt lat="49.39634" lon="1.43148">
        <ele>139</ele>
        <time>2017-07-18T14:21:44Z</time>
      </trkpt>
      <trkpt lat="49.39639" lon="1.43147">
        <ele>139</ele>
        <time>2017-07-18T14:22:12Z</time>
      </trkpt>
      <trkpt lat="49.39643" lon="1.43147">
        <ele>139</ele>
        <time>2017-07-18T14:22:12Z</time>
      </trkpt>
      <trkpt lat="49.39648" lon="1.43147">
        <ele>139</ele>
        <time>2017-07-18T14:22:12Z</time>
      </trkpt>
      <trkpt lat="49.39668" lon="1.43147">
        <ele>139</ele>
        <time>2017-07-18T14:22:12Z</time>
      </trkpt>
      <trkpt lat="49.39671" lon="1.43149">
        <ele>139</ele>
        <time>2017-07-18T14:22:28Z</time>
      </trkpt>
      <trkpt lat="49.39675" lon="1.43148">
        <ele>139</ele>
        <time>2017-07-18T14:22:28Z</time>
      </trkpt>
      <trkpt lat="49.39679" lon="1.43149">
        <ele>139</ele>
        <time>2017-07-18T14:22:28Z</time>
      </trkpt>
      <trkpt lat="49.39684" lon="1.4315">
        <ele>139</ele>
        <time>2017-07-18T14:22:28Z</time>
      </trkpt>
      <trkpt lat="49.39688" lon="1.43151">
        <ele>139</ele>
        <time>2017-07-18T14:22:44Z</time>
      </trkpt>
      <trkpt lat="49.39694" lon="1.43152">
        <ele>139</ele>
        <time>2017-07-18T14:22:44Z</time>
      </trkpt>
      <trkpt lat="49.39699" lon="1.43156">
        <ele>139</ele>
        <time>2017-07-18T14:22:44Z</time>
      </trkpt>
      <trkpt lat="49.39702" lon="1.43158">
        <ele>139</ele>
        <time>2017-07-18T14:22:44Z</time>
      </trkpt>
      <trkpt lat="49.39707" lon="1.4316">
        <ele>139</ele>
        <time>2017-07-18T14:23:00Z</time>
      </trkpt>
      <trkpt lat="49.3971" lon="1.4316">
        <ele>141</ele>
        <time>2017-07-18T14:23:00Z</time>
      </trkpt>
      <trkpt lat="49.39716" lon="1.43161">
        <ele>141</ele>
        <time>2017-07-18T14:23:00Z</time>
      </trkpt>
      <trkpt lat="49.39721" lon="1.43163">
        <ele>141</ele>
        <time>2017-07-18T14:23:00Z</time>
      </trkpt>
      <trkpt lat="49.39724" lon="1.43165">
        <ele>141</ele>
        <time>2017-07-18T14:23:16Z</time>
      </trkpt>
      <trkpt lat="49.39729" lon="1.43166">
        <ele>141</ele>
        <time>2017-07-18T14:23:16Z</time>
      </trkpt>
      <trkpt lat="49.39734" lon="1.43167">
        <ele>141</ele>
        <time>2017-07-18T14:23:16Z</time>
      </trkpt>
      <trkpt lat="49.39739" lon="1.43169">
        <ele>141</ele>
        <time>2017-07-18T14:23:16Z</time>
      </trkpt>
      <trkpt lat="49.39743" lon="1.43169">
        <ele>141</ele>
        <time>2017-07-18T14:23:32Z</time>
      </trkpt>
      <trkpt lat="49.39747" lon="1.4317">
        <ele>141</ele>
        <time>2017-07-18T14:23:32Z</time>
      </trkpt>
      <trkpt lat="49.39752" lon="1.43171">
        <ele>141</ele>
        <time>2017-07-18T14:23:32Z</time>
      </trkpt>
      <trkpt lat="49.39757" lon="1.43174">
        <ele>141</ele>
        <time>2017-07-18T14:23:32Z</time>
      </trkpt>
      <trkpt lat="49.39763" lon="1.43177">
        <ele>141</ele>
        <time>2017-07-18T14:24:04Z</time>
      </trkpt>
      <trkpt lat="49.39786" lon="1.43204">
        <ele>141</ele>
        <time>2017-07-18T14:24:04Z</time>
      </trkpt>
      <trkpt lat="49.3979" lon="1.43208">
        <ele>141</ele>
        <time>2017-07-18T14:24:04Z</time>
      </trkpt>
      <trkpt lat="49.39795" lon="1.43212">
        <ele>144</ele>
        <time>2017-07-18T14:24:04Z</time>
      </trkpt>
      <trkpt lat="49.39798" lon="1.43215">
        <ele>144</ele>
        <time>2017-07-18T14:24:20Z</time>
      </trkpt>
      <trkpt lat="49.39804" lon="1.4322">
        <ele>144</ele>
        <time>2017-07-18T14:24:20Z</time>
      </trkpt>
      <trkpt lat="49.39807" lon="1.43225">
        <ele>144</ele>
        <time>2017-07-18T14:24:20Z</time>
      </trkpt>
      <trkpt lat="49.3981" lon="1.4323">
        <ele>144</ele>
        <time>2017-07-18T14:24:20Z</time>
      </trkpt>
      <trkpt lat="49.3982" lon="1.4323">
        <ele>144</ele>
        <time>2017-07-18T14:24:36Z</time>
      </trkpt>
      <trkpt lat="49.39823" lon="1.43232">
        <ele>144</ele>
        <time>2017-07-18T14:24:36Z</time>
      </trkpt>
      <trkpt lat="49.39826" lon="1.43234">
        <ele>144</ele>
        <time>2017-07-18T14:24:36Z</time>
      </trkpt>
      <trkpt lat="49.3983" lon="1.43236">
        <ele>144</ele>
        <time>2017-07-18T14:24:36Z</time>
      </trkpt>
      <trkpt lat="49.39835" lon="1.43238">
        <ele>144</ele>
        <time>2017-07-18T14:24:56Z</time>
      </trkpt>
      <trkpt lat="49.39839" lon="1.43239">
        <ele>144</ele>
        <time>2017-07-18T14:24:56Z</time>
      </trkpt>
      <trkpt lat="49.39844" lon="1.43242">
        <ele>144</ele>
        <time>2017-07-18T14:24:56Z</time>
      </trkpt>
      <trkpt lat="49.39852" lon="1.4325">
        <ele>144</ele>
        <time>2017-07-18T14:24:56Z</time>
      </trkpt>
      <trkpt lat="49.39859" lon="1.43252">
        <ele>144</ele>
        <time>2017-07-18T14:25:12Z</time>
      </trkpt>
      <trkpt lat="49.39862" lon="1.43253">
        <ele>144</ele>
        <time>2017-07-18T14:25:12Z</time>
      </trkpt>
      <trkpt lat="49.39867" lon="1.43255">
        <ele>144</ele>
        <time>2017-07-18T14:25:12Z</time>
      </trkpt>
      <trkpt lat="49.39873" lon="1.43257">
        <ele>144</ele>
        <time>2017-07-18T14:25:12Z</time>
      </trkpt>
      <trkpt lat="49.39907" lon="1.43268">
        <ele>146</ele>
        <time>2017-07-18T14:25:56Z</time>
      </trkpt>
      <trkpt lat="49.39913" lon="1.43268">
        <ele>146</ele>
        <time>2017-07-18T14:25:56Z</time>
      </trkpt>
      <trkpt lat="49.39918" lon="1.43269">
        <ele>146</ele>
        <time>2017-07-18T14:25:56Z</time>
      </trkpt>
      <trkpt lat="49.39921" lon="1.43269">
        <ele>146</ele>
        <time>2017-07-18T14:25:56Z</time>
      </trkpt>
      <trkpt lat="49.39927" lon="1.43269">
        <ele>146</ele>
        <time>2017-07-18T14:26:12Z</time>
      </trkpt>
      <trkpt lat="49.39931" lon="1.43268">
        <ele>146</ele>
        <time>2017-07-18T14:26:12Z</time>
      </trkpt>
      <trkpt lat="49.39937" lon="1.43262">
        <ele>146</ele>
        <time>2017-07-18T14:26:12Z</time>
      </trkpt>
      <trkpt lat="49.39939" lon="1.43262">
        <ele>146</ele>
        <time>2017-07-18T14:26:12Z</time>
      </trkpt>
      <trkpt lat="49.39945" lon="1.4326">
        <ele>146</ele>
        <time>2017-07-18T14:26:36Z</time>
      </trkpt>
      <trkpt lat="49.39957" lon="1.43257">
        <ele>146</ele>
        <time>2017-07-18T14:26:36Z</time>
      </trkpt>
      <trkpt lat="49.39963" lon="1.43256">
        <ele>153</ele>
        <time>2017-07-18T14:26:36Z</time>
      </trkpt>
      <trkpt lat="49.39967" lon="1.43255">
        <ele>153</ele>
        <time>2017-07-18T14:26:36Z</time>
      </trkpt>
      <trkpt lat="49.39971" lon="1.43255">
        <ele>153</ele>
        <time>2017-07-18T14:27:20Z</time>
      </trkpt>
      <trkpt lat="49.39976" lon="1.43255">
        <ele>153</ele>
        <time>2017-07-18T14:27:20Z</time>
      </trkpt>
      <trkpt lat="49.40016" lon="1.43272">
        <ele>153</ele>
        <time>2017-07-18T14:27:20Z</time>
      </trkpt>
      <trkpt lat="49.40023" lon="1.43277">
        <ele>153</ele>
        <time>2017-07-18T14:27:20Z</time>
      </trkpt>
      <trkpt lat="49.4003" lon="1.43281">
        <ele>153</ele>
        <time>2017-07-18T14:27:36Z</time>
      </trkpt>
      <trkpt lat="49.40034" lon="1.43281">
        <ele>153</ele>
        <time>2017-07-18T14:27:36Z</time>
      </trkpt>
      <trkpt lat="49.40038" lon="1.43279">
        <ele>153</ele>
        <time>2017-07-18T14:27:36Z</time>
      </trkpt>
      <trkpt lat="49.40041" lon="1.43278">
        <ele>153</ele>
        <time>2017-07-18T14:27:36Z</time>
      </trkpt>
      <trkpt lat="49.40045" lon="1.4328">
        <ele>160</ele>
        <time>2017-07-18T14:27:52Z</time>
      </trkpt>
      <trkpt lat="49.40049" lon="1.43282">
        <ele>160</ele>
        <time>2017-07-18T14:27:52Z</time>
      </trkpt>
      <trkpt lat="49.40055" lon="1.43282">
        <ele>160</ele>
        <time>2017-07-18T14:27:52Z</time>
      </trkpt>
      <trkpt lat="49.40059" lon="1.43282">
        <ele>160</ele>
        <time>2017-07-18T14:27:52Z</time>
      </trkpt>
      <trkpt lat="49.40064" lon="1.43284">
        <ele>160</ele>
        <time>2017-07-18T14:28:08Z</time>
      </trkpt>
      <trkpt lat="49.40068" lon="1.43285">
        <ele>160</ele>
        <time>2017-07-18T14:28:08Z</time>
      </trkpt>
      <trkpt lat="49.40074" lon="1.43287">
        <ele>160</ele>
        <time>2017-07-18T14:28:08Z</time>
      </trkpt>
      <trkpt lat="49.40077" lon="1.43288">
        <ele>160</ele>
        <time>2017-07-18T14:28:08Z</time>
      </trkpt>
      <trkpt lat="49.40084" lon="1.43291">
        <ele>160</ele>
        <time>2017-07-18T14:28:24Z</time>
      </trkpt>
      <trkpt lat="49.40086" lon="1.43292">
        <ele>160</ele>
        <time>2017-07-18T14:28:24Z</time>
      </trkpt>
      <trkpt lat="49.40091" lon="1.43294">
        <ele>160</ele>
        <time>2017-07-18T14:28:24Z</time>
      </trkpt>
      <trkpt lat="49.40095" lon="1.43296">
        <ele>160</ele>
        <time>2017-07-18T14:28:24Z</time>
      </trkpt>
      <trkpt lat="49.401" lon="1.43297">
        <ele>160</ele>
        <time>2017-07-18T14:28:40Z</time>
      </trkpt>
      <trkpt lat="49.40103" lon="1.43299">
        <ele>160</ele>
        <time>2017-07-18T14:28:40Z</time>
      </trkpt>
      <trkpt lat="49.40109" lon="1.43299">
        <ele>160</ele>
        <time>2017-07-18T14:28:40Z</time>
      </trkpt>
      <trkpt lat="49.40114" lon="1.43303">
        <ele>160</ele>
        <time>2017-07-18T14:28:40Z</time>
      </trkpt>
      <trkpt lat="49.40122" lon="1.43304">
        <ele>160</ele>
        <time>2017-07-18T14:28:56Z</time>
      </trkpt>
      <trkpt lat="49.40126" lon="1.43305">
        <ele>163</ele>
        <time>2017-07-18T14:28:56Z</time>
      </trkpt>
      <trkpt lat="49.40131" lon="1.43306">
        <ele>163</ele>
        <time>2017-07-18T14:28:56Z</time>
      </trkpt>
      <trkpt lat="49.40136" lon="1.43308">
        <ele>163</ele>
        <time>2017-07-18T14:28:56Z</time>
      </trkpt>
      <trkpt lat="49.40141" lon="1.4331">
        <ele>163</ele>
        <time>2017-07-18T14:29:12Z</time>
      </trkpt>
      <trkpt lat="49.40145" lon="1.43311">
        <ele>163</ele>
        <time>2017-07-18T14:29:12Z</time>
      </trkpt>
      <trkpt lat="49.40149" lon="1.43312">
        <ele>163</ele>
        <time>2017-07-18T14:29:12Z</time>
      </trkpt>
      <trkpt lat="49.40158" lon="1.43317">
        <ele>163</ele>
        <time>2017-07-18T14:29:12Z</time>
      </trkpt>
      <trkpt lat="49.40164" lon="1.43323">
        <ele>163</ele>
        <time>2017-07-18T14:29:28Z</time>
      </trkpt>
      <trkpt lat="49.4017" lon="1.43327">
        <ele>163</ele>
        <time>2017-07-18T14:29:28Z</time>
      </trkpt>
      <trkpt lat="49.40175" lon="1.43329">
        <ele>163</ele>
        <time>2017-07-18T14:29:28Z</time>
      </trkpt>
      <trkpt lat="49.40178" lon="1.43331">
        <ele>163</ele>
        <time>2017-07-18T14:29:28Z</time>
      </trkpt>
      <trkpt lat="49.40183" lon="1.43335">
        <ele>163</ele>
        <time>2017-07-18T14:29:44Z</time>
      </trkpt>
      <trkpt lat="49.40187" lon="1.43338">
        <ele>163</ele>
        <time>2017-07-18T14:29:44Z</time>
      </trkpt>
      <trkpt lat="49.40191" lon="1.43341">
        <ele>163</ele>
        <time>2017-07-18T14:29:44Z</time>
      </trkpt>
      <trkpt lat="49.40195" lon="1.43345">
        <ele>163</ele>
        <time>2017-07-18T14:29:44Z</time>
      </trkpt>
      <trkpt lat="49.40197" lon="1.43353">
        <ele>163</ele>
        <time>2017-07-18T14:30:00Z</time>
      </trkpt>
      <trkpt lat="49.40201" lon="1.43364">
        <ele>163</ele>
        <time>2017-07-18T14:30:00Z</time>
      </trkpt>
      <trkpt lat="49.40205" lon="1.43367">
        <ele>163</ele>
        <time>2017-07-18T14:30:00Z</time>
      </trkpt>
      <trkpt lat="49.40209" lon="1.4337">
        <ele>165</ele>
        <time>2017-07-18T14:30:00Z</time>
      </trkpt>
      <trkpt lat="49.40214" lon="1.43376">
        <ele>168</ele>
        <time>2017-07-18T14:30:16Z</time>
      </trkpt>
      <trkpt lat="49.4022" lon="1.43381">
        <ele>168</ele>
        <time>2017-07-18T14:30:16Z</time>
      </trkpt>
      <trkpt lat="49.40224" lon="1.43385">
        <ele>168</ele>
        <time>2017-07-18T14:30:16Z</time>
      </trkpt>
      <trkpt lat="49.40228" lon="1.43389">
        <ele>168</ele>
        <time>2017-07-18T14:30:16Z</time>
      </trkpt>
      <trkpt lat="49.40233" lon="1.43394">
        <ele>168</ele>
        <time>2017-07-18T14:30:32Z</time>
      </trkpt>
      <trkpt lat="49.40236" lon="1.43398">
        <ele>168</ele>
        <time>2017-07-18T14:30:32Z</time>
      </trkpt>
      <trkpt lat="49.40237" lon="1.43402">
        <ele>168</ele>
        <time>2017-07-18T14:30:32Z</time>
      </trkpt>
      <trkpt lat="49.40243" lon="1.43403">
        <ele>168</ele>
        <time>2017-07-18T14:30:32Z</time>
      </trkpt>
      <trkpt lat="49.40245" lon="1.43408">
        <ele>168</ele>
        <time>2017-07-18T14:30:48Z</time>
      </trkpt>
      <trkpt lat="49.4025" lon="1.43413">
        <ele>168</ele>
        <time>2017-07-18T14:30:48Z</time>
      </trkpt>
      <trkpt lat="49.40253" lon="1.43418">
        <ele>168</ele>
        <time>2017-07-18T14:30:48Z</time>
      </trkpt>
      <trkpt lat="49.40258" lon="1.43424">
        <ele>168</ele>
        <time>2017-07-18T14:30:48Z</time>
      </trkpt>
      <trkpt lat="49.40261" lon="1.43427">
        <ele>168</ele>
        <time>2017-07-18T14:31:04Z</time>
      </trkpt>
      <trkpt lat="49.40265" lon="1.43431">
        <ele>168</ele>
        <time>2017-07-18T14:31:04Z</time>
      </trkpt>
      <trkpt lat="49.40269" lon="1.43434">
        <ele>168</ele>
        <time>2017-07-18T14:31:04Z</time>
      </trkpt>
      <trkpt lat="49.40273" lon="1.43438">
        <ele>168</ele>
        <time>2017-07-18T14:31:04Z</time>
      </trkpt>
      <trkpt lat="49.40277" lon="1.43441">
        <ele>168</ele>
        <time>2017-07-18T14:31:20Z</time>
      </trkpt>
      <trkpt lat="49.40281" lon="1.43445">
        <ele>168</ele>
        <time>2017-07-18T14:31:20Z</time>
      </trkpt>
      <trkpt lat="49.40287" lon="1.43449">
        <ele>168</ele>
        <time>2017-07-18T14:31:20Z</time>
      </trkpt>
      <trkpt lat="49.4029" lon="1.43451">
        <ele>168</ele>
        <time>2017-07-18T14:31:20Z</time>
      </trkpt>
      <trkpt lat="49.40294" lon="1.43455">
        <ele>171</ele>
        <time>2017-07-18T14:31:36Z</time>
      </trkpt>
      <trkpt lat="49.40298" lon="1.43458">
        <ele>171</ele>
        <time>2017-07-18T14:31:36Z</time>
      </trkpt>
      <trkpt lat="49.40303" lon="1.43461">
        <ele>175</ele>
        <time>2017-07-18T14:31:36Z</time>
      </trkpt>
      <trkpt lat="49.40307" lon="1.43463">
        <ele>175</ele>
        <time>2017-07-18T14:31:36Z</time>
      </trkpt>
      <trkpt lat="49.40312" lon="1.43466">
        <ele>175</ele>
        <time>2017-07-18T14:31:52Z</time>
      </trkpt>
      <trkpt lat="49.40316" lon="1.43468">
        <ele>175</ele>
        <time>2017-07-18T14:31:52Z</time>
      </trkpt>
      <trkpt lat="49.4032" lon="1.43471">
        <ele>175</ele>
        <time>2017-07-18T14:31:52Z</time>
      </trkpt>
      <trkpt lat="49.40325" lon="1.43475">
        <ele>175</ele>
        <time>2017-07-18T14:31:52Z</time>
      </trkpt>
      <trkpt lat="49.40329" lon="1.43478">
        <ele>175</ele>
        <time>2017-07-18T14:32:08Z</time>
      </trkpt>
      <trkpt lat="49.40333" lon="1.43481">
        <ele>175</ele>
        <time>2017-07-18T14:32:08Z</time>
      </trkpt>
      <trkpt lat="49.40339" lon="1.43485">
        <ele>175</ele>
        <time>2017-07-18T14:32:08Z</time>
      </trkpt>
      <trkpt lat="49.40342" lon="1.43488">
        <ele>175</ele>
        <time>2017-07-18T14:32:08Z</time>
      </trkpt>
      <trkpt lat="49.40346" lon="1.43492">
        <ele>175</ele>
        <time>2017-07-18T14:32:24Z</time>
      </trkpt>
      <trkpt lat="49.4035" lon="1.43495">
        <ele>175</ele>
        <time>2017-07-18T14:32:24Z</time>
      </trkpt>
      <trkpt lat="49.40354" lon="1.435">
        <ele>175</ele>
        <time>2017-07-18T14:32:24Z</time>
      </trkpt>
      <trkpt lat="49.40358" lon="1.43504">
        <ele>175</ele>
        <time>2017-07-18T14:32:24Z</time>
      </trkpt>
      <trkpt lat="49.40361" lon="1.43509">
        <ele>175</ele>
        <time>2017-07-18T14:32:40Z</time>
      </trkpt>
      <trkpt lat="49.40365" lon="1.43511">
        <ele>175</ele>
        <time>2017-07-18T14:32:40Z</time>
      </trkpt>
      <trkpt lat="49.40369" lon="1.43517">
        <ele>175</ele>
        <time>2017-07-18T14:32:40Z</time>
      </trkpt>
      <trkpt lat="49.40374" lon="1.43521">
        <ele>175</ele>
        <time>2017-07-18T14:32:40Z</time>
      </trkpt>
      <trkpt lat="49.40379" lon="1.43527">
        <ele>176</ele>
        <time>2017-07-18T14:32:56Z</time>
      </trkpt>
      <trkpt lat="49.40381" lon="1.43531">
        <ele>176</ele>
        <time>2017-07-18T14:32:56Z</time>
      </trkpt>
      <trkpt lat="49.40385" lon="1.43535">
        <ele>176</ele>
        <time>2017-07-18T14:32:56Z</time>
      </trkpt>
      <trkpt lat="49.40389" lon="1.43539">
        <ele>176</ele>
        <time>2017-07-18T14:32:56Z</time>
      </trkpt>
      <trkpt lat="49.40394" lon="1.43543">
        <ele>179</ele>
        <time>2017-07-18T14:33:12Z</time>
      </trkpt>
      <trkpt lat="49.40398" lon="1.43546">
        <ele>179</ele>
        <time>2017-07-18T14:33:12Z</time>
      </trkpt>
      <trkpt lat="49.40402" lon="1.43549">
        <ele>179</ele>
        <time>2017-07-18T14:33:12Z</time>
      </trkpt>
      <trkpt lat="49.40406" lon="1.43553">
        <ele>179</ele>
        <time>2017-07-18T14:33:12Z</time>
      </trkpt>
      <trkpt lat="49.40411" lon="1.43556">
        <ele>179</ele>
        <time>2017-07-18T14:33:28Z</time>
      </trkpt>
      <trkpt lat="49.40415" lon="1.4356">
        <ele>179</ele>
        <time>2017-07-18T14:33:28Z</time>
      </trkpt>
      <trkpt lat="49.4042" lon="1.43564">
        <ele>179</ele>
        <time>2017-07-18T14:33:28Z</time>
      </trkpt>
      <trkpt lat="49.40424" lon="1.43567">
        <ele>179</ele>
        <time>2017-07-18T14:33:28Z</time>
      </trkpt>
      <trkpt lat="49.40428" lon="1.4357">
        <ele>179</ele>
        <time>2017-07-18T14:33:44Z</time>
      </trkpt>
      <trkpt lat="49.40434" lon="1.43574">
        <ele>179</ele>
        <time>2017-07-18T14:33:44Z</time>
      </trkpt>
      <trkpt lat="49.40437" lon="1.43575">
        <ele>179</ele>
        <time>2017-07-18T14:33:44Z</time>
      </trkpt>
      <trkpt lat="49.40441" lon="1.43578">
        <ele>179</ele>
        <time>2017-07-18T14:33:44Z</time>
      </trkpt>
      <trkpt lat="49.40445" lon="1.43582">
        <ele>179</ele>
        <time>2017-07-18T14:34:00Z</time>
      </trkpt>
      <trkpt lat="49.4045" lon="1.43585">
        <ele>179</ele>
        <time>2017-07-18T14:34:00Z</time>
      </trkpt>
      <trkpt lat="49.40454" lon="1.43587">
        <ele>179</ele>
        <time>2017-07-18T14:34:00Z</time>
      </trkpt>
      <trkpt lat="49.40459" lon="1.43589">
        <ele>180</ele>
        <time>2017-07-18T14:34:00Z</time>
      </trkpt>
      <trkpt lat="49.40463" lon="1.43592">
        <ele>180</ele>
        <time>2017-07-18T14:34:16Z</time>
      </trkpt>
      <trkpt lat="49.40468" lon="1.43594">
        <ele>180</ele>
        <time>2017-07-18T14:34:16Z</time>
      </trkpt>
      <trkpt lat="49.40472" lon="1.43597">
        <ele>180</ele>
        <time>2017-07-18T14:34:16Z</time>
      </trkpt>
      <trkpt lat="49.40477" lon="1.43599">
        <ele>180</ele>
        <time>2017-07-18T14:34:16Z</time>
      </trkpt>
      <trkpt lat="49.40481" lon="1.43602">
        <ele>180</ele>
        <time>2017-07-18T14:34:32Z</time>
      </trkpt>
      <trkpt lat="49.40486" lon="1.43605">
        <ele>180</ele>
        <time>2017-07-18T14:34:32Z</time>
      </trkpt>
      <trkpt lat="49.4049" lon="1.43608">
        <ele>180</ele>
        <time>2017-07-18T14:34:32Z</time>
      </trkpt>
      <trkpt lat="49.40495" lon="1.43611">
        <ele>180</ele>
        <time>2017-07-18T14:34:32Z</time>
      </trkpt>
      <trkpt lat="49.40499" lon="1.43614">
        <ele>180</ele>
        <time>2017-07-18T14:34:48Z</time>
      </trkpt>
      <trkpt lat="49.40503" lon="1.43619">
        <ele>180</ele>
        <time>2017-07-18T14:34:48Z</time>
      </trkpt>
      <trkpt lat="49.40507" lon="1.43623">
        <ele>180</ele>
        <time>2017-07-18T14:34:48Z</time>
      </trkpt>
      <trkpt lat="49.40511" lon="1.43627">
        <ele>177</ele>
        <time>2017-07-18T14:34:48Z</time>
      </trkpt>
      <trkpt lat="49.40515" lon="1.43631">
        <ele>177</ele>
        <time>2017-07-18T14:35:04Z</time>
      </trkpt>
      <trkpt lat="49.40519" lon="1.43635">
        <ele>177</ele>
        <time>2017-07-18T14:35:04Z</time>
      </trkpt>
      <trkpt lat="49.40527" lon="1.43643">
        <ele>177</ele>
        <time>2017-07-18T14:35:04Z</time>
      </trkpt>
      <trkpt lat="49.40529" lon="1.43645">
        <ele>177</ele>
        <time>2017-07-18T14:35:04Z</time>
      </trkpt>
      <trkpt lat="49.40532" lon="1.43649">
        <ele>177</ele>
        <time>2017-07-18T14:35:20Z</time>
      </trkpt>
      <trkpt lat="49.40535" lon="1.43656">
        <ele>177</ele>
        <time>2017-07-18T14:35:20Z</time>
      </trkpt>
      <trkpt lat="49.40539" lon="1.43662">
        <ele>177</ele>
        <time>2017-07-18T14:35:20Z</time>
      </trkpt>
      <trkpt lat="49.4054" lon="1.43671">
        <ele>177</ele>
        <time>2017-07-18T14:35:20Z</time>
      </trkpt>
      <trkpt lat="49.40545" lon="1.43675">
        <ele>176</ele>
        <time>2017-07-18T14:35:36Z</time>
      </trkpt>
      <trkpt lat="49.4055" lon="1.4368">
        <ele>176</ele>
        <time>2017-07-18T14:35:36Z</time>
      </trkpt>
      <trkpt lat="49.40553" lon="1.43682">
        <ele>176</ele>
        <time>2017-07-18T14:35:36Z</time>
      </trkpt>
      <trkpt lat="49.40557" lon="1.43686">
        <ele>176</ele>
        <time>2017-07-18T14:35:36Z</time>
      </trkpt>
      <trkpt lat="49.40557" lon="1.43686">
        <ele>176</ele>
        <time>2017-07-18T14:36:36Z</time>
      </trkpt>
      <trkpt lat="49.40557" lon="1.43686">
        <ele>176</ele>
        <time>2017-07-18T14:36:36Z</time>
      </trkpt>
      <trkpt lat="49.40556" lon="1.43686">
        <ele>176</ele>
        <time>2017-07-18T14:36:36Z</time>
      </trkpt>
      <trkpt lat="49.40557" lon="1.43694">
        <ele>176</ele>
        <time>2017-07-18T14:36:36Z</time>
      </trkpt>
      <trkpt lat="49.40557" lon="1.43702">
        <ele>176</ele>
        <time>2017-07-18T14:36:36Z</time>
      </trkpt>
      <trkpt lat="49.40555" lon="1.43709">
        <ele>170</ele>
        <time>2017-07-18T14:37:28Z</time>
      </trkpt>
      <trkpt lat="49.40555" lon="1.43709">
        <ele>170</ele>
        <time>2017-07-18T14:37:28Z</time>
      </trkpt>
      <trkpt lat="49.40554" lon="1.4371">
        <ele>170</ele>
        <time>2017-07-18T14:37:28Z</time>
      </trkpt>
      <trkpt lat="49.40548" lon="1.43712">
        <ele>170</ele>
        <time>2017-07-18T14:37:28Z</time>
      </trkpt>
      <trkpt lat="49.40548" lon="1.43723">
        <ele>170</ele>
        <time>2017-07-18T14:37:28Z</time>
      </trkpt>
      <trkpt lat="49.40545" lon="1.43725">
        <ele>170</ele>
        <time>2017-07-18T14:40:44Z</time>
      </trkpt>
      <trkpt lat="49.40549" lon="1.43729">
        <ele>170</ele>
        <time>2017-07-18T14:40:44Z</time>
      </trkpt>
      <trkpt lat="49.40555" lon="1.43727">
        <ele>170</ele>
        <time>2017-07-18T14:40:44Z</time>
      </trkpt>
      <trkpt lat="49.4056" lon="1.43733">
        <ele>170</ele>
        <time>2017-07-18T14:40:44Z</time>
      </trkpt>
      <trkpt lat="49.40559" lon="1.43741">
        <ele>170</ele>
        <time>2017-07-18T14:40:44Z</time>
      </trkpt>
      <trkpt lat="49.40566" lon="1.43747">
        <ele>170</ele>
        <time>2017-07-18T14:41:00Z</time>
      </trkpt>
      <trkpt lat="49.40569" lon="1.43747">
        <ele>170</ele>
        <time>2017-07-18T14:41:00Z</time>
      </trkpt>
      <trkpt lat="49.40575" lon="1.43748">
        <ele>170</ele>
        <time>2017-07-18T14:41:00Z</time>
      </trkpt>
      <trkpt lat="49.40578" lon="1.43751">
        <ele>170</ele>
        <time>2017-07-18T14:41:00Z</time>
      </trkpt>
      <trkpt lat="49.40583" lon="1.43757">
        <ele>170</ele>
        <time>2017-07-18T14:41:16Z</time>
      </trkpt>
      <trkpt lat="49.40587" lon="1.43759">
        <ele>170</ele>
        <time>2017-07-18T14:41:16Z</time>
      </trkpt>
      <trkpt lat="49.4059" lon="1.43761">
        <ele>170</ele>
        <time>2017-07-18T14:41:16Z</time>
      </trkpt>
      <trkpt lat="49.40594" lon="1.43764">
        <ele>170</ele>
        <time>2017-07-18T14:41:16Z</time>
      </trkpt>
      <trkpt lat="49.40599" lon="1.43767">
        <ele>170</ele>
        <time>2017-07-18T14:41:32Z</time>
      </trkpt>
      <trkpt lat="49.40602" lon="1.43771">
        <ele>170</ele>
        <time>2017-07-18T14:41:32Z</time>
      </trkpt>
      <trkpt lat="49.40606" lon="1.43774">
        <ele>170</ele>
        <time>2017-07-18T14:41:32Z</time>
      </trkpt>
      <trkpt lat="49.4061" lon="1.43777">
        <ele>170</ele>
        <time>2017-07-18T14:41:32Z</time>
      </trkpt>
      <trkpt lat="49.40614" lon="1.43782">
        <ele>170</ele>
        <time>2017-07-18T14:41:48Z</time>
      </trkpt>
      <trkpt lat="49.40618" lon="1.43787">
        <ele>170</ele>
        <time>2017-07-18T14:41:48Z</time>
      </trkpt>
      <trkpt lat="49.40622" lon="1.43791">
        <ele>170</ele>
        <time>2017-07-18T14:41:48Z</time>
      </trkpt>
      <trkpt lat="49.40626" lon="1.43794">
        <ele>171</ele>
        <time>2017-07-18T14:41:48Z</time>
      </trkpt>
      <trkpt lat="49.40629" lon="1.43799">
        <ele>171</ele>
        <time>2017-07-18T14:42:04Z</time>
      </trkpt>
      <trkpt lat="49.40633" lon="1.43804">
        <ele>171</ele>
        <time>2017-07-18T14:42:04Z</time>
      </trkpt>
      <trkpt lat="49.40636" lon="1.43809">
        <ele>171</ele>
        <time>2017-07-18T14:42:04Z</time>
      </trkpt>
      <trkpt lat="49.4064" lon="1.43813">
        <ele>171</ele>
        <time>2017-07-18T14:42:04Z</time>
      </trkpt>
      <trkpt lat="49.40643" lon="1.43818">
        <ele>171</ele>
        <time>2017-07-18T14:42:20Z</time>
      </trkpt>
      <trkpt lat="49.40647" lon="1.43826">
        <ele>171</ele>
        <time>2017-07-18T14:42:20Z</time>
      </trkpt>
      <trkpt lat="49.40642" lon="1.43835">
        <ele>171</ele>
        <time>2017-07-18T14:42:20Z</time>
      </trkpt>
      <trkpt lat="49.40643" lon="1.4384">
        <ele>171</ele>
        <time>2017-07-18T14:42:20Z</time>
      </trkpt>
      <trkpt lat="49.40645" lon="1.43843">
        <ele>171</ele>
        <time>2017-07-18T14:42:36Z</time>
      </trkpt>
      <trkpt lat="49.40647" lon="1.43849">
        <ele>171</ele>
        <time>2017-07-18T14:42:36Z</time>
      </trkpt>
      <trkpt lat="49.4065" lon="1.43855">
        <ele>171</ele>
        <time>2017-07-18T14:42:36Z</time>
      </trkpt>
      <trkpt lat="49.40654" lon="1.43862">
        <ele>171</ele>
        <time>2017-07-18T14:42:36Z</time>
      </trkpt>
      <trkpt lat="49.40655" lon="1.43865">
        <ele>171</ele>
        <time>2017-07-18T14:42:52Z</time>
      </trkpt>
      <trkpt lat="49.40657" lon="1.4387">
        <ele>171</ele>
        <time>2017-07-18T14:42:52Z</time>
      </trkpt>
      <trkpt lat="49.4066" lon="1.43876">
        <ele>176</ele>
        <time>2017-07-18T14:42:52Z</time>
      </trkpt>
      <trkpt lat="49.40664" lon="1.43881">
        <ele>176</ele>
        <time>2017-07-18T14:42:52Z</time>
      </trkpt>
      <trkpt lat="49.40667" lon="1.43888">
        <ele>176</ele>
        <time>2017-07-18T14:43:08Z</time>
      </trkpt>
      <trkpt lat="49.4067" lon="1.43894">
        <ele>176</ele>
        <time>2017-07-18T14:43:08Z</time>
      </trkpt>
      <trkpt lat="49.40673" lon="1.43901">
        <ele>176</ele>
        <time>2017-07-18T14:43:08Z</time>
      </trkpt>
      <trkpt lat="49.40675" lon="1.43906">
        <ele>176</ele>
        <time>2017-07-18T14:43:08Z</time>
      </trkpt>
      <trkpt lat="49.40678" lon="1.43911">
        <ele>176</ele>
        <time>2017-07-18T14:43:24Z</time>
      </trkpt>
      <trkpt lat="49.40682" lon="1.43916">
        <ele>176</ele>
        <time>2017-07-18T14:43:24Z</time>
      </trkpt>
      <trkpt lat="49.40685" lon="1.43922">
        <ele>176</ele>
        <time>2017-07-18T14:43:24Z</time>
      </trkpt>
      <trkpt lat="49.40688" lon="1.43927">
        <ele>176</ele>
        <time>2017-07-18T14:43:24Z</time>
      </trkpt>
      <trkpt lat="49.40691" lon="1.43934">
        <ele>176</ele>
        <time>2017-07-18T14:43:40Z</time>
      </trkpt>
      <trkpt lat="49.40694" lon="1.4394">
        <ele>176</ele>
        <time>2017-07-18T14:43:40Z</time>
      </trkpt>
      <trkpt lat="49.40696" lon="1.43944">
        <ele>176</ele>
        <time>2017-07-18T14:43:40Z</time>
      </trkpt>
      <trkpt lat="49.407" lon="1.43951">
        <ele>176</ele>
        <time>2017-07-18T14:43:40Z</time>
      </trkpt>
      <trkpt lat="49.40702" lon="1.43955">
        <ele>176</ele>
        <time>2017-07-18T14:43:56Z</time>
      </trkpt>
      <trkpt lat="49.40705" lon="1.43962">
        <ele>177</ele>
        <time>2017-07-18T14:43:56Z</time>
      </trkpt>
      <trkpt lat="49.40706" lon="1.43971">
        <ele>177</ele>
        <time>2017-07-18T14:43:56Z</time>
      </trkpt>
      <trkpt lat="49.40708" lon="1.43975">
        <ele>177</ele>
        <time>2017-07-18T14:43:56Z</time>
      </trkpt>
      <trkpt lat="49.4071" lon="1.43981">
        <ele>178</ele>
        <time>2017-07-18T14:44:12Z</time>
      </trkpt>
      <trkpt lat="49.40714" lon="1.43986">
        <ele>178</ele>
        <time>2017-07-18T14:44:12Z</time>
      </trkpt>
      <trkpt lat="49.40717" lon="1.43991">
        <ele>178</ele>
        <time>2017-07-18T14:44:12Z</time>
      </trkpt>
      <trkpt lat="49.40719" lon="1.43997">
        <ele>178</ele>
        <time>2017-07-18T14:44:12Z</time>
      </trkpt>
      <trkpt lat="49.40718" lon="1.44008">
        <ele>178</ele>
        <time>2017-07-18T14:44:28Z</time>
      </trkpt>
      <trkpt lat="49.40719" lon="1.44017">
        <ele>178</ele>
        <time>2017-07-18T14:44:28Z</time>
      </trkpt>
      <trkpt lat="49.40722" lon="1.44025">
        <ele>178</ele>
        <time>2017-07-18T14:44:28Z</time>
      </trkpt>
      <trkpt lat="49.40725" lon="1.4403">
        <ele>178</ele>
        <time>2017-07-18T14:44:28Z</time>
      </trkpt>
      <trkpt lat="49.40728" lon="1.44036">
        <ele>178</ele>
        <time>2017-07-18T14:44:44Z</time>
      </trkpt>
      <trkpt lat="49.40731" lon="1.44041">
        <ele>178</ele>
        <time>2017-07-18T14:44:44Z</time>
      </trkpt>
      <trkpt lat="49.40734" lon="1.44047">
        <ele>176</ele>
        <time>2017-07-18T14:44:44Z</time>
      </trkpt>
      <trkpt lat="49.40737" lon="1.44052">
        <ele>176</ele>
        <time>2017-07-18T14:44:44Z</time>
      </trkpt>
      <trkpt lat="49.4074" lon="1.44061">
        <ele>176</ele>
        <time>2017-07-18T14:45:00Z</time>
      </trkpt>
      <trkpt lat="49.40741" lon="1.44066">
        <ele>176</ele>
        <time>2017-07-18T14:45:00Z</time>
      </trkpt>
      <trkpt lat="49.40743" lon="1.44072">
        <ele>176</ele>
        <time>2017-07-18T14:45:00Z</time>
      </trkpt>
      <trkpt lat="49.40745" lon="1.4408">
        <ele>176</ele>
        <time>2017-07-18T14:45:00Z</time>
      </trkpt>
      <trkpt lat="49.40746" lon="1.44087">
        <ele>176</ele>
        <time>2017-07-18T14:45:16Z</time>
      </trkpt>
      <trkpt lat="49.40747" lon="1.44094">
        <ele>176</ele>
        <time>2017-07-18T14:45:16Z</time>
      </trkpt>
      <trkpt lat="49.4075" lon="1.441">
        <ele>176</ele>
        <time>2017-07-18T14:45:16Z</time>
      </trkpt>
      <trkpt lat="49.40753" lon="1.44108">
        <ele>176</ele>
        <time>2017-07-18T14:45:16Z</time>
      </trkpt>
      <trkpt lat="49.40755" lon="1.44111">
        <ele>176</ele>
        <time>2017-07-18T14:45:32Z</time>
      </trkpt>
      <trkpt lat="49.40759" lon="1.44116">
        <ele>176</ele>
        <time>2017-07-18T14:45:32Z</time>
      </trkpt>
      <trkpt lat="49.40762" lon="1.44121">
        <ele>176</ele>
        <time>2017-07-18T14:45:32Z</time>
      </trkpt>
      <trkpt lat="49.40765" lon="1.44126">
        <ele>176</ele>
        <time>2017-07-18T14:45:32Z</time>
      </trkpt>
      <trkpt lat="49.40768" lon="1.44132">
        <ele>176</ele>
        <time>2017-07-18T14:45:48Z</time>
      </trkpt>
      <trkpt lat="49.4077" lon="1.44141">
        <ele>176</ele>
        <time>2017-07-18T14:45:48Z</time>
      </trkpt>
      <trkpt lat="49.40772" lon="1.44145">
        <ele>176</ele>
        <time>2017-07-18T14:45:48Z</time>
      </trkpt>
      <trkpt lat="49.40775" lon="1.44151">
        <ele>176</ele>
        <time>2017-07-18T14:45:48Z</time>
      </trkpt>
      <trkpt lat="49.40778" lon="1.44156">
        <ele>176</ele>
        <time>2017-07-18T14:46:04Z</time>
      </trkpt>
      <trkpt lat="49.4078" lon="1.44161">
        <ele>176</ele>
        <time>2017-07-18T14:46:04Z</time>
      </trkpt>
      <trkpt lat="49.40781" lon="1.4417">
        <ele>176</ele>
        <time>2017-07-18T14:46:04Z</time>
      </trkpt>
      <trkpt lat="49.40784" lon="1.44178">
        <ele>176</ele>
        <time>2017-07-18T14:46:04Z</time>
      </trkpt>
      <trkpt lat="49.40787" lon="1.44186">
        <ele>176</ele>
        <time>2017-07-18T14:46:20Z</time>
      </trkpt>
      <trkpt lat="49.4079" lon="1.44193">
        <ele>176</ele>
        <time>2017-07-18T14:46:20Z</time>
      </trkpt>
      <trkpt lat="49.40794" lon="1.44198">
        <ele>179</ele>
        <time>2017-07-18T14:46:20Z</time>
      </trkpt>
      <trkpt lat="49.40796" lon="1.44202">
        <ele>179</ele>
        <time>2017-07-18T14:46:20Z</time>
      </trkpt>
      <trkpt lat="49.40799" lon="1.44208">
        <ele>179</ele>
        <time>2017-07-18T14:46:36Z</time>
      </trkpt>
      <trkpt lat="49.40802" lon="1.44217">
        <ele>179</ele>
        <time>2017-07-18T14:46:36Z</time>
      </trkpt>
      <trkpt lat="49.40802" lon="1.44223">
        <ele>179</ele>
        <time>2017-07-18T14:46:36Z</time>
      </trkpt>
      <trkpt lat="49.40805" lon="1.44231">
        <ele>179</ele>
        <time>2017-07-18T14:46:36Z</time>
      </trkpt>
      <trkpt lat="49.40806" lon="1.44236">
        <ele>179</ele>
        <time>2017-07-18T14:46:52Z</time>
      </trkpt>
      <trkpt lat="49.40811" lon="1.44241">
        <ele>179</ele>
        <time>2017-07-18T14:46:52Z</time>
      </trkpt>
      <trkpt lat="49.40813" lon="1.44245">
        <ele>179</ele>
        <time>2017-07-18T14:46:52Z</time>
      </trkpt>
      <trkpt lat="49.40815" lon="1.44252">
        <ele>179</ele>
        <time>2017-07-18T14:46:52Z</time>
      </trkpt>
      <trkpt lat="49.40817" lon="1.44258">
        <ele>179</ele>
        <time>2017-07-18T14:47:08Z</time>
      </trkpt>
      <trkpt lat="49.40821" lon="1.44264">
        <ele>179</ele>
        <time>2017-07-18T14:47:08Z</time>
      </trkpt>
      <trkpt lat="49.40823" lon="1.44268">
        <ele>179</ele>
        <time>2017-07-18T14:47:08Z</time>
      </trkpt>
      <trkpt lat="49.40826" lon="1.44274">
        <ele>179</ele>
        <time>2017-07-18T14:47:08Z</time>
      </trkpt>
      <trkpt lat="49.4083" lon="1.4428">
        <ele>179</ele>
        <time>2017-07-18T14:47:24Z</time>
      </trkpt>
      <trkpt lat="49.40832" lon="1.44284">
        <ele>179</ele>
        <time>2017-07-18T14:47:24Z</time>
      </trkpt>
      <trkpt lat="49.40835" lon="1.4429">
        <ele>179</ele>
        <time>2017-07-18T14:47:24Z</time>
      </trkpt>
      <trkpt lat="49.40838" lon="1.44296">
        <ele>177</ele>
        <time>2017-07-18T14:47:24Z</time>
      </trkpt>
      <trkpt lat="49.40842" lon="1.44303">
        <ele>177</ele>
        <time>2017-07-18T14:47:40Z</time>
      </trkpt>
      <trkpt lat="49.40844" lon="1.44306">
        <ele>177</ele>
        <time>2017-07-18T14:47:40Z</time>
      </trkpt>
      <trkpt lat="49.40847" lon="1.44312">
        <ele>177</ele>
        <time>2017-07-18T14:47:40Z</time>
      </trkpt>
      <trkpt lat="49.40849" lon="1.44316">
        <ele>177</ele>
        <time>2017-07-18T14:47:40Z</time>
      </trkpt>
      <trkpt lat="49.40853" lon="1.44323">
        <ele>177</ele>
        <time>2017-07-18T14:47:56Z</time>
      </trkpt>
      <trkpt lat="49.40856" lon="1.44328">
        <ele>177</ele>
        <time>2017-07-18T14:47:56Z</time>
      </trkpt>
      <trkpt lat="49.4086" lon="1.44333">
        <ele>177</ele>
        <time>2017-07-18T14:47:56Z</time>
      </trkpt>
      <trkpt lat="49.40865" lon="1.44339">
        <ele>177</ele>
        <time>2017-07-18T14:47:56Z</time>
      </trkpt>
      <trkpt lat="49.40869" lon="1.44343">
        <ele>177</ele>
        <time>2017-07-18T14:48:12Z</time>
      </trkpt>
      <trkpt lat="49.40871" lon="1.44346">
        <ele>177</ele>
        <time>2017-07-18T14:48:12Z</time>
      </trkpt>
      <trkpt lat="49.40875" lon="1.4435">
        <ele>177</ele>
        <time>2017-07-18T14:48:12Z</time>
      </trkpt>
      <trkpt lat="49.4088" lon="1.44355">
        <ele>177</ele>
        <time>2017-07-18T14:48:12Z</time>
      </trkpt>
      <trkpt lat="49.40883" lon="1.44358">
        <ele>177</ele>
        <time>2017-07-18T14:48:28Z</time>
      </trkpt>
      <trkpt lat="49.40887" lon="1.44362">
        <ele>177</ele>
        <time>2017-07-18T14:48:28Z</time>
      </trkpt>
      <trkpt lat="49.40892" lon="1.44368">
        <ele>177</ele>
        <time>2017-07-18T14:48:28Z</time>
      </trkpt>
      <trkpt lat="49.40895" lon="1.44371">
        <ele>177</ele>
        <time>2017-07-18T14:48:28Z</time>
      </trkpt>
      <trkpt lat="49.40901" lon="1.44382">
        <ele>178</ele>
        <time>2017-07-18T14:48:44Z</time>
      </trkpt>
      <trkpt lat="49.40905" lon="1.44389">
        <ele>178</ele>
        <time>2017-07-18T14:48:44Z</time>
      </trkpt>
      <trkpt lat="49.40911" lon="1.44394">
        <ele>178</ele>
        <time>2017-07-18T14:48:44Z</time>
      </trkpt>
      <trkpt lat="49.40914" lon="1.44397">
        <ele>178</ele>
        <time>2017-07-18T14:48:44Z</time>
      </trkpt>
      <trkpt lat="49.40918" lon="1.44401">
        <ele>178</ele>
        <time>2017-07-18T14:49:00Z</time>
      </trkpt>
      <trkpt lat="49.40922" lon="1.44405">
        <ele>178</ele>
        <time>2017-07-18T14:49:00Z</time>
      </trkpt>
      <trkpt lat="49.40926" lon="1.44409">
        <ele>178</ele>
        <time>2017-07-18T14:49:00Z</time>
      </trkpt>
      <trkpt lat="49.4093" lon="1.44413">
        <ele>178</ele>
        <time>2017-07-18T14:49:00Z</time>
      </trkpt>
      <trkpt lat="49.40933" lon="1.44417">
        <ele>178</ele>
        <time>2017-07-18T14:49:16Z</time>
      </trkpt>
      <trkpt lat="49.40937" lon="1.44422">
        <ele>178</ele>
        <time>2017-07-18T14:49:16Z</time>
      </trkpt>
      <trkpt lat="49.40941" lon="1.44426">
        <ele>178</ele>
        <time>2017-07-18T14:49:16Z</time>
      </trkpt>
      <trkpt lat="49.40944" lon="1.44432">
        <ele>178</ele>
        <time>2017-07-18T14:49:16Z</time>
      </trkpt>
      <trkpt lat="49.40948" lon="1.44437">
        <ele>178</ele>
        <time>2017-07-18T14:49:32Z</time>
      </trkpt>
      <trkpt lat="49.40951" lon="1.44449">
        <ele>178</ele>
        <time>2017-07-18T14:49:32Z</time>
      </trkpt>
      <trkpt lat="49.40953" lon="1.44457">
        <ele>178</ele>
        <time>2017-07-18T14:49:32Z</time>
      </trkpt>
      <trkpt lat="49.40957" lon="1.44462">
        <ele>177</ele>
        <time>2017-07-18T14:49:32Z</time>
      </trkpt>
      <trkpt lat="49.4096" lon="1.44467">
        <ele>180</ele>
        <time>2017-07-18T14:49:48Z</time>
      </trkpt>
      <trkpt lat="49.40963" lon="1.44477">
        <ele>180</ele>
        <time>2017-07-18T14:49:48Z</time>
      </trkpt>
      <trkpt lat="49.40966" lon="1.44483">
        <ele>180</ele>
        <time>2017-07-18T14:49:48Z</time>
      </trkpt>
      <trkpt lat="49.4097" lon="1.44489">
        <ele>180</ele>
        <time>2017-07-18T14:49:48Z</time>
      </trkpt>
      <trkpt lat="49.40973" lon="1.44494">
        <ele>180</ele>
        <time>2017-07-18T14:50:04Z</time>
      </trkpt>
      <trkpt lat="49.40978" lon="1.445">
        <ele>180</ele>
        <time>2017-07-18T14:50:04Z</time>
      </trkpt>
      <trkpt lat="49.40981" lon="1.44503">
        <ele>180</ele>
        <time>2017-07-18T14:50:04Z</time>
      </trkpt>
      <trkpt lat="49.40984" lon="1.44508">
        <ele>180</ele>
        <time>2017-07-18T14:50:04Z</time>
      </trkpt>
      <trkpt lat="49.40988" lon="1.44512">
        <ele>180</ele>
        <time>2017-07-18T14:50:20Z</time>
      </trkpt>
      <trkpt lat="49.40992" lon="1.44516">
        <ele>180</ele>
        <time>2017-07-18T14:50:20Z</time>
      </trkpt>
      <trkpt lat="49.40996" lon="1.4452">
        <ele>180</ele>
        <time>2017-07-18T14:50:20Z</time>
      </trkpt>
      <trkpt lat="49.41" lon="1.44524">
        <ele>180</ele>
        <time>2017-07-18T14:50:20Z</time>
      </trkpt>
      <trkpt lat="49.41005" lon="1.44529">
        <ele>180</ele>
        <time>2017-07-18T14:50:36Z</time>
      </trkpt>
      <trkpt lat="49.41008" lon="1.44532">
        <ele>180</ele>
        <time>2017-07-18T14:50:36Z</time>
      </trkpt>
      <trkpt lat="49.41013" lon="1.44535">
        <ele>180</ele>
        <time>2017-07-18T14:50:36Z</time>
      </trkpt>
      <trkpt lat="49.41017" lon="1.44541">
        <ele>180</ele>
        <time>2017-07-18T14:50:36Z</time>
      </trkpt>
      <trkpt lat="49.4102" lon="1.44544">
        <ele>178</ele>
        <time>2017-07-18T14:50:52Z</time>
      </trkpt>
      <trkpt lat="49.41024" lon="1.44548">
        <ele>178</ele>
        <time>2017-07-18T14:50:52Z</time>
      </trkpt>
      <trkpt lat="49.41028" lon="1.44553">
        <ele>178</ele>
        <time>2017-07-18T14:50:52Z</time>
      </trkpt>
      <trkpt lat="49.41032" lon="1.44557">
        <ele>178</ele>
        <time>2017-07-18T14:50:52Z</time>
      </trkpt>
      <trkpt lat="49.41036" lon="1.44563">
        <ele>178</ele>
        <time>2017-07-18T14:51:08Z</time>
      </trkpt>
      <trkpt lat="49.41039" lon="1.44566">
        <ele>178</ele>
        <time>2017-07-18T14:51:08Z</time>
      </trkpt>
      <trkpt lat="49.41044" lon="1.44571">
        <ele>180</ele>
        <time>2017-07-18T14:51:08Z</time>
      </trkpt>
      <trkpt lat="49.41047" lon="1.44574">
        <ele>180</ele>
        <time>2017-07-18T14:51:08Z</time>
      </trkpt>
      <trkpt lat="49.41051" lon="1.44578">
        <ele>180</ele>
        <time>2017-07-18T14:51:24Z</time>
      </trkpt>
      <trkpt lat="49.41057" lon="1.44586">
        <ele>180</ele>
        <time>2017-07-18T14:51:24Z</time>
      </trkpt>
      <trkpt lat="49.4106" lon="1.44597">
        <ele>180</ele>
        <time>2017-07-18T14:51:24Z</time>
      </trkpt>
      <trkpt lat="49.41062" lon="1.44607">
        <ele>180</ele>
        <time>2017-07-18T14:51:24Z</time>
      </trkpt>
      <trkpt lat="49.41065" lon="1.44612">
        <ele>180</ele>
        <time>2017-07-18T14:51:40Z</time>
      </trkpt>
      <trkpt lat="49.4107" lon="1.44618">
        <ele>180</ele>
        <time>2017-07-18T14:51:40Z</time>
      </trkpt>
      <trkpt lat="49.41072" lon="1.44621">
        <ele>180</ele>
        <time>2017-07-18T14:51:40Z</time>
      </trkpt>
      <trkpt lat="49.41076" lon="1.44626">
        <ele>178</ele>
        <time>2017-07-18T14:51:40Z</time>
      </trkpt>
      <trkpt lat="49.4108" lon="1.44633">
        <ele>178</ele>
        <time>2017-07-18T14:51:56Z</time>
      </trkpt>
      <trkpt lat="49.41084" lon="1.44637">
        <ele>178</ele>
        <time>2017-07-18T14:51:56Z</time>
      </trkpt>
      <trkpt lat="49.41087" lon="1.44641">
        <ele>178</ele>
        <time>2017-07-18T14:51:56Z</time>
      </trkpt>
      <trkpt lat="49.4109" lon="1.44645">
        <ele>178</ele>
        <time>2017-07-18T14:51:56Z</time>
      </trkpt>
      <trkpt lat="49.41095" lon="1.44651">
        <ele>178</ele>
        <time>2017-07-18T14:52:12Z</time>
      </trkpt>
      <trkpt lat="49.41098" lon="1.44654">
        <ele>178</ele>
        <time>2017-07-18T14:52:12Z</time>
      </trkpt>
      <trkpt lat="49.41103" lon="1.44659">
        <ele>178</ele>
        <time>2017-07-18T14:52:12Z</time>
      </trkpt>
      <trkpt lat="49.41106" lon="1.44662">
        <ele>178</ele>
        <time>2017-07-18T14:52:12Z</time>
      </trkpt>
      <trkpt lat="49.41111" lon="1.44667">
        <ele>178</ele>
        <time>2017-07-18T14:52:28Z</time>
      </trkpt>
      <trkpt lat="49.41116" lon="1.44672">
        <ele>178</ele>
        <time>2017-07-18T14:52:28Z</time>
      </trkpt>
      <trkpt lat="49.41118" lon="1.44675">
        <ele>178</ele>
        <time>2017-07-18T14:52:28Z</time>
      </trkpt>
      <trkpt lat="49.41122" lon="1.44679">
        <ele>178</ele>
        <time>2017-07-18T14:52:28Z</time>
      </trkpt>
      <trkpt lat="49.41126" lon="1.44684">
        <ele>181</ele>
        <time>2017-07-18T14:52:44Z</time>
      </trkpt>
      <trkpt lat="49.41129" lon="1.44688">
        <ele>181</ele>
        <time>2017-07-18T14:52:44Z</time>
      </trkpt>
      <trkpt lat="49.41133" lon="1.44692">
        <ele>181</ele>
        <time>2017-07-18T14:52:44Z</time>
      </trkpt>
      <trkpt lat="49.41137" lon="1.44696">
        <ele>181</ele>
        <time>2017-07-18T14:52:44Z</time>
      </trkpt>
      <trkpt lat="49.41141" lon="1.447">
        <ele>181</ele>
        <time>2017-07-18T14:53:00Z</time>
      </trkpt>
      <trkpt lat="49.41145" lon="1.44704">
        <ele>181</ele>
        <time>2017-07-18T14:53:00Z</time>
      </trkpt>
      <trkpt lat="49.41149" lon="1.44709">
        <ele>180</ele>
        <time>2017-07-18T14:53:00Z</time>
      </trkpt>
      <trkpt lat="49.41153" lon="1.44713">
        <ele>180</ele>
        <time>2017-07-18T14:53:00Z</time>
      </trkpt>
      <trkpt lat="49.41158" lon="1.44718">
        <ele>180</ele>
        <time>2017-07-18T14:53:16Z</time>
      </trkpt>
      <trkpt lat="49.41162" lon="1.44721">
        <ele>180</ele>
        <time>2017-07-18T14:53:16Z</time>
      </trkpt>
      <trkpt lat="49.41165" lon="1.44725">
        <ele>180</ele>
        <time>2017-07-18T14:53:16Z</time>
      </trkpt>
      <trkpt lat="49.4117" lon="1.44729">
        <ele>180</ele>
        <time>2017-07-18T14:53:16Z</time>
      </trkpt>
      <trkpt lat="49.41174" lon="1.44734">
        <ele>180</ele>
        <time>2017-07-18T14:53:32Z</time>
      </trkpt>
      <trkpt lat="49.41178" lon="1.44738">
        <ele>180</ele>
        <time>2017-07-18T14:53:32Z</time>
      </trkpt>
      <trkpt lat="49.41181" lon="1.44743">
        <ele>180</ele>
        <time>2017-07-18T14:53:32Z</time>
      </trkpt>
      <trkpt lat="49.41185" lon="1.44747">
        <ele>180</ele>
        <time>2017-07-18T14:53:32Z</time>
      </trkpt>
      <trkpt lat="49.41189" lon="1.44751">
        <ele>180</ele>
        <time>2017-07-18T14:53:48Z</time>
      </trkpt>
      <trkpt lat="49.41193" lon="1.44755">
        <ele>180</ele>
        <time>2017-07-18T14:53:48Z</time>
      </trkpt>
      <trkpt lat="49.41197" lon="1.44759">
        <ele>180</ele>
        <time>2017-07-18T14:53:48Z</time>
      </trkpt>
      <trkpt lat="49.41201" lon="1.44763">
        <ele>180</ele>
        <time>2017-07-18T14:53:48Z</time>
      </trkpt>
      <trkpt lat="49.41207" lon="1.44768">
        <ele>180</ele>
        <time>2017-07-18T14:54:04Z</time>
      </trkpt>
      <trkpt lat="49.41209" lon="1.44771">
        <ele>181</ele>
        <time>2017-07-18T14:54:04Z</time>
      </trkpt>
      <trkpt lat="49.41213" lon="1.44776">
        <ele>181</ele>
        <time>2017-07-18T14:54:04Z</time>
      </trkpt>
      <trkpt lat="49.41218" lon="1.44781">
        <ele>181</ele>
        <time>2017-07-18T14:54:04Z</time>
      </trkpt>
      <trkpt lat="49.41221" lon="1.44785">
        <ele>181</ele>
        <time>2017-07-18T14:54:20Z</time>
      </trkpt>
      <trkpt lat="49.41225" lon="1.44789">
        <ele>181</ele>
        <time>2017-07-18T14:54:20Z</time>
      </trkpt>
      <trkpt lat="49.41229" lon="1.44794">
        <ele>180</ele>
        <time>2017-07-18T14:54:20Z</time>
      </trkpt>
      <trkpt lat="49.41233" lon="1.44799">
        <ele>180</ele>
        <time>2017-07-18T14:54:20Z</time>
      </trkpt>
      <trkpt lat="49.41235" lon="1.44808">
        <ele>180</ele>
        <time>2017-07-18T14:54:36Z</time>
      </trkpt>
      <trkpt lat="49.41238" lon="1.44814">
        <ele>180</ele>
        <time>2017-07-18T14:54:36Z</time>
      </trkpt>
      <trkpt lat="49.41242" lon="1.44819">
        <ele>180</ele>
        <time>2017-07-18T14:54:36Z</time>
      </trkpt>
      <trkpt lat="49.41246" lon="1.44824">
        <ele>180</ele>
        <time>2017-07-18T14:54:36Z</time>
      </trkpt>
      <trkpt lat="49.41251" lon="1.44837">
        <ele>180</ele>
        <time>2017-07-18T14:56:00Z</time>
      </trkpt>
      <trkpt lat="49.41251" lon="1.44837">
        <ele>180</ele>
        <time>2017-07-18T14:56:00Z</time>
      </trkpt>
      <trkpt lat="49.41247" lon="1.44845">
        <ele>180</ele>
        <time>2017-07-18T14:56:00Z</time>
      </trkpt>
      <trkpt lat="49.41249" lon="1.44848">
        <ele>180</ele>
        <time>2017-07-18T14:56:00Z</time>
      </trkpt>
      <trkpt lat="49.41253" lon="1.44854">
        <ele>180</ele>
        <time>2017-07-18T14:56:00Z</time>
      </trkpt>
      <trkpt lat="49.41257" lon="1.44859">
        <ele>180</ele>
        <time>2017-07-18T14:56:16Z</time>
      </trkpt>
      <trkpt lat="49.41261" lon="1.44864">
        <ele>180</ele>
        <time>2017-07-18T14:56:16Z</time>
      </trkpt>
      <trkpt lat="49.41264" lon="1.44868">
        <ele>180</ele>
        <time>2017-07-18T14:56:16Z</time>
      </trkpt>
      <trkpt lat="49.41268" lon="1.44872">
        <ele>180</ele>
        <time>2017-07-18T14:56:16Z</time>
      </trkpt>
      <trkpt lat="49.41272" lon="1.44877">
        <ele>178</ele>
        <time>2017-07-18T14:56:32Z</time>
      </trkpt>
      <trkpt lat="49.41271" lon="1.44885">
        <ele>178</ele>
        <time>2017-07-18T14:56:32Z</time>
      </trkpt>
      <trkpt lat="49.41266" lon="1.44894">
        <ele>178</ele>
        <time>2017-07-18T14:56:32Z</time>
      </trkpt>
      <trkpt lat="49.41266" lon="1.44907">
        <ele>178</ele>
        <time>2017-07-18T14:56:32Z</time>
      </trkpt>
      <trkpt lat="49.41268" lon="1.44912">
        <ele>178</ele>
        <time>2017-07-18T14:56:48Z</time>
      </trkpt>
      <trkpt lat="49.41271" lon="1.4492">
        <ele>178</ele>
        <time>2017-07-18T14:56:48Z</time>
      </trkpt>
      <trkpt lat="49.41273" lon="1.4493">
        <ele>178</ele>
        <time>2017-07-18T14:56:48Z</time>
      </trkpt>
      <trkpt lat="49.4128" lon="1.44937">
        <ele>178</ele>
        <time>2017-07-18T14:56:48Z</time>
      </trkpt>
      <trkpt lat="49.41283" lon="1.4494">
        <ele>178</ele>
        <time>2017-07-18T14:57:04Z</time>
      </trkpt>
      <trkpt lat="49.41287" lon="1.44943">
        <ele>178</ele>
        <time>2017-07-18T14:57:04Z</time>
      </trkpt>
      <trkpt lat="49.41291" lon="1.44947">
        <ele>178</ele>
        <time>2017-07-18T14:57:04Z</time>
      </trkpt>
      <trkpt lat="49.41296" lon="1.44951">
        <ele>180</ele>
        <time>2017-07-18T14:57:04Z</time>
      </trkpt>
      <trkpt lat="49.41299" lon="1.44955">
        <ele>180</ele>
        <time>2017-07-18T14:57:20Z</time>
      </trkpt>
      <trkpt lat="49.41303" lon="1.44961">
        <ele>180</ele>
        <time>2017-07-18T14:57:20Z</time>
      </trkpt>
      <trkpt lat="49.41304" lon="1.44968">
        <ele>180</ele>
        <time>2017-07-18T14:57:20Z</time>
      </trkpt>
      <trkpt lat="49.41308" lon="1.44977">
        <ele>180</ele>
        <time>2017-07-18T14:57:20Z</time>
      </trkpt>
      <trkpt lat="49.41313" lon="1.44979">
        <ele>180</ele>
        <time>2017-07-18T14:57:37Z</time>
      </trkpt>
      <trkpt lat="49.41318" lon="1.44983">
        <ele>180</ele>
        <time>2017-07-18T14:57:37Z</time>
      </trkpt>
      <trkpt lat="49.41321" lon="1.44987">
        <ele>180</ele>
        <time>2017-07-18T14:57:37Z</time>
      </trkpt>
      <trkpt lat="49.41327" lon="1.44992">
        <ele>180</ele>
        <time>2017-07-18T14:57:37Z</time>
      </trkpt>
      <trkpt lat="49.4133" lon="1.44995">
        <ele>180</ele>
        <time>2017-07-18T14:57:52Z</time>
      </trkpt>
      <trkpt lat="49.41334" lon="1.44998">
        <ele>180</ele>
        <time>2017-07-18T14:57:52Z</time>
      </trkpt>
      <trkpt lat="49.41338" lon="1.45002">
        <ele>180</ele>
        <time>2017-07-18T14:57:52Z</time>
      </trkpt>
      <trkpt lat="49.41343" lon="1.45007">
        <ele>180</ele>
        <time>2017-07-18T14:57:52Z</time>
      </trkpt>
      <trkpt lat="49.41347" lon="1.45011">
        <ele>180</ele>
        <time>2017-07-18T14:58:09Z</time>
      </trkpt>
      <trkpt lat="49.4135" lon="1.45015">
        <ele>180</ele>
        <time>2017-07-18T14:58:09Z</time>
      </trkpt>
      <trkpt lat="49.41354" lon="1.45021">
        <ele>180</ele>
        <time>2017-07-18T14:58:09Z</time>
      </trkpt>
      <trkpt lat="49.41358" lon="1.45025">
        <ele>180</ele>
        <time>2017-07-18T14:58:09Z</time>
      </trkpt>
      <trkpt lat="49.41361" lon="1.45028">
        <ele>180</ele>
        <time>2017-07-18T14:58:24Z</time>
      </trkpt>
      <trkpt lat="49.41366" lon="1.45032">
        <ele>180</ele>
        <time>2017-07-18T14:58:24Z</time>
      </trkpt>
      <trkpt lat="49.4137" lon="1.45036">
        <ele>180</ele>
        <time>2017-07-18T14:58:24Z</time>
      </trkpt>
      <trkpt lat="49.41374" lon="1.45042">
        <ele>178</ele>
        <time>2017-07-18T14:58:24Z</time>
      </trkpt>
      <trkpt lat="49.41377" lon="1.45045">
        <ele>178</ele>
        <time>2017-07-18T14:58:40Z</time>
      </trkpt>
      <trkpt lat="49.41381" lon="1.45049">
        <ele>178</ele>
        <time>2017-07-18T14:58:40Z</time>
      </trkpt>
      <trkpt lat="49.41385" lon="1.45054">
        <ele>178</ele>
        <time>2017-07-18T14:58:40Z</time>
      </trkpt>
      <trkpt lat="49.41389" lon="1.45058">
        <ele>178</ele>
        <time>2017-07-18T14:58:40Z</time>
      </trkpt>
      <trkpt lat="49.4139" lon="1.45066">
        <ele>178</ele>
        <time>2017-07-18T14:58:57Z</time>
      </trkpt>
      <trkpt lat="49.41392" lon="1.45072">
        <ele>178</ele>
        <time>2017-07-18T14:58:57Z</time>
      </trkpt>
      <trkpt lat="49.41394" lon="1.45082">
        <ele>178</ele>
        <time>2017-07-18T14:58:57Z</time>
      </trkpt>
      <trkpt lat="49.41398" lon="1.45091">
        <ele>178</ele>
        <time>2017-07-18T14:58:57Z</time>
      </trkpt>
      <trkpt lat="49.41401" lon="1.45095">
        <ele>178</ele>
        <time>2017-07-18T14:59:12Z</time>
      </trkpt>
      <trkpt lat="49.41405" lon="1.45099">
        <ele>178</ele>
        <time>2017-07-18T14:59:12Z</time>
      </trkpt>
      <trkpt lat="49.41408" lon="1.45102">
        <ele>178</ele>
        <time>2017-07-18T14:59:12Z</time>
      </trkpt>
      <trkpt lat="49.41412" lon="1.45105">
        <ele>178</ele>
        <time>2017-07-18T14:59:12Z</time>
      </trkpt>
      <trkpt lat="49.41418" lon="1.4511">
        <ele>178</ele>
        <time>2017-07-18T14:59:28Z</time>
      </trkpt>
      <trkpt lat="49.41422" lon="1.45113">
        <ele>178</ele>
        <time>2017-07-18T14:59:28Z</time>
      </trkpt>
      <trkpt lat="49.41426" lon="1.45117">
        <ele>178</ele>
        <time>2017-07-18T14:59:28Z</time>
      </trkpt>
      <trkpt lat="49.4143" lon="1.45121">
        <ele>178</ele>
        <time>2017-07-18T14:59:28Z</time>
      </trkpt>
      <trkpt lat="49.41433" lon="1.45124">
        <ele>178</ele>
        <time>2017-07-18T14:59:44Z</time>
      </trkpt>
      <trkpt lat="49.41438" lon="1.45129">
        <ele>176</ele>
        <time>2017-07-18T14:59:44Z</time>
      </trkpt>
      <trkpt lat="49.41441" lon="1.45132">
        <ele>176</ele>
        <time>2017-07-18T14:59:44Z</time>
      </trkpt>
      <trkpt lat="49.41445" lon="1.45136">
        <ele>176</ele>
        <time>2017-07-18T14:59:44Z</time>
      </trkpt>
      <trkpt lat="49.41449" lon="1.4514">
        <ele>176</ele>
        <time>2017-07-18T15:00:00Z</time>
      </trkpt>
      <trkpt lat="49.41454" lon="1.45144">
        <ele>176</ele>
        <time>2017-07-18T15:00:00Z</time>
      </trkpt>
      <trkpt lat="49.41458" lon="1.45148">
        <ele>176</ele>
        <time>2017-07-18T15:00:00Z</time>
      </trkpt>
      <trkpt lat="49.41462" lon="1.45152">
        <ele>179</ele>
        <time>2017-07-18T15:00:00Z</time>
      </trkpt>
      <trkpt lat="49.41467" lon="1.45158">
        <ele>179</ele>
        <time>2017-07-18T15:00:16Z</time>
      </trkpt>
      <trkpt lat="49.4147" lon="1.45162">
        <ele>179</ele>
        <time>2017-07-18T15:00:16Z</time>
      </trkpt>
      <trkpt lat="49.41474" lon="1.45168">
        <ele>179</ele>
        <time>2017-07-18T15:00:16Z</time>
      </trkpt>
      <trkpt lat="49.41479" lon="1.45182">
        <ele>179</ele>
        <time>2017-07-18T15:00:16Z</time>
      </trkpt>
      <trkpt lat="49.41483" lon="1.45189">
        <ele>179</ele>
        <time>2017-07-18T15:00:32Z</time>
      </trkpt>
      <trkpt lat="49.41486" lon="1.45193">
        <ele>179</ele>
        <time>2017-07-18T15:00:32Z</time>
      </trkpt>
      <trkpt lat="49.4149" lon="1.45197">
        <ele>179</ele>
        <time>2017-07-18T15:00:32Z</time>
      </trkpt>
      <trkpt lat="49.41494" lon="1.45201">
        <ele>179</ele>
        <time>2017-07-18T15:00:32Z</time>
      </trkpt>
      <trkpt lat="49.41499" lon="1.45206">
        <ele>179</ele>
        <time>2017-07-18T15:00:48Z</time>
      </trkpt>
      <trkpt lat="49.41503" lon="1.45209">
        <ele>174</ele>
        <time>2017-07-18T15:00:48Z</time>
      </trkpt>
      <trkpt lat="49.41508" lon="1.45213">
        <ele>174</ele>
        <time>2017-07-18T15:00:48Z</time>
      </trkpt>
      <trkpt lat="49.41511" lon="1.45216">
        <ele>174</ele>
        <time>2017-07-18T15:00:48Z</time>
      </trkpt>
      <trkpt lat="49.41515" lon="1.45221">
        <ele>174</ele>
        <time>2017-07-18T15:01:04Z</time>
      </trkpt>
      <trkpt lat="49.41518" lon="1.45228">
        <ele>174</ele>
        <time>2017-07-18T15:01:04Z</time>
      </trkpt>
      <trkpt lat="49.41518" lon="1.45244">
        <ele>174</ele>
        <time>2017-07-18T15:01:04Z</time>
      </trkpt>
      <trkpt lat="49.41521" lon="1.45254">
        <ele>174</ele>
        <time>2017-07-18T15:01:04Z</time>
      </trkpt>
      <trkpt lat="49.41522" lon="1.45261">
        <ele>174</ele>
        <time>2017-07-18T15:01:20Z</time>
      </trkpt>
      <trkpt lat="49.41528" lon="1.45269">
        <ele>174</ele>
        <time>2017-07-18T15:01:20Z</time>
      </trkpt>
      <trkpt lat="49.4153" lon="1.45273">
        <ele>174</ele>
        <time>2017-07-18T15:01:20Z</time>
      </trkpt>
      <trkpt lat="49.41533" lon="1.45279">
        <ele>174</ele>
        <time>2017-07-18T15:01:20Z</time>
      </trkpt>
      <trkpt lat="49.41538" lon="1.45285">
        <ele>174</ele>
        <time>2017-07-18T15:01:36Z</time>
      </trkpt>
      <trkpt lat="49.41542" lon="1.45291">
        <ele>178</ele>
        <time>2017-07-18T15:01:36Z</time>
      </trkpt>
      <trkpt lat="49.41548" lon="1.45298">
        <ele>173</ele>
        <time>2017-07-18T15:01:36Z</time>
      </trkpt>
      <trkpt lat="49.41551" lon="1.45303">
        <ele>173</ele>
        <time>2017-07-18T15:01:36Z</time>
      </trkpt>
      <trkpt lat="49.41556" lon="1.45308">
        <ele>173</ele>
        <time>2017-07-18T15:01:52Z</time>
      </trkpt>
      <trkpt lat="49.4156" lon="1.45311">
        <ele>173</ele>
        <time>2017-07-18T15:01:52Z</time>
      </trkpt>
      <trkpt lat="49.41565" lon="1.45316">
        <ele>173</ele>
        <time>2017-07-18T15:01:52Z</time>
      </trkpt>
      <trkpt lat="49.41568" lon="1.45319">
        <ele>173</ele>
        <time>2017-07-18T15:01:52Z</time>
      </trkpt>
      <trkpt lat="49.41572" lon="1.45323">
        <ele>173</ele>
        <time>2017-07-18T15:02:08Z</time>
      </trkpt>
      <trkpt lat="49.41577" lon="1.45328">
        <ele>173</ele>
        <time>2017-07-18T15:02:08Z</time>
      </trkpt>
      <trkpt lat="49.4158" lon="1.45331">
        <ele>173</ele>
        <time>2017-07-18T15:02:08Z</time>
      </trkpt>
      <trkpt lat="49.41585" lon="1.45336">
        <ele>173</ele>
        <time>2017-07-18T15:02:08Z</time>
      </trkpt>
      <trkpt lat="49.41589" lon="1.45339">
        <ele>173</ele>
        <time>2017-07-18T15:02:24Z</time>
      </trkpt>
      <trkpt lat="49.41593" lon="1.45344">
        <ele>173</ele>
        <time>2017-07-18T15:02:24Z</time>
      </trkpt>
      <trkpt lat="49.41596" lon="1.45347">
        <ele>173</ele>
        <time>2017-07-18T15:02:24Z</time>
      </trkpt>
      <trkpt lat="49.41601" lon="1.4535">
        <ele>173</ele>
        <time>2017-07-18T15:02:24Z</time>
      </trkpt>
      <trkpt lat="49.41606" lon="1.45352">
        <ele>173</ele>
        <time>2017-07-18T15:02:40Z</time>
      </trkpt>
      <trkpt lat="49.4161" lon="1.45354">
        <ele>173</ele>
        <time>2017-07-18T15:02:40Z</time>
      </trkpt>
      <trkpt lat="49.41615" lon="1.45358">
        <ele>173</ele>
        <time>2017-07-18T15:02:40Z</time>
      </trkpt>
      <trkpt lat="49.41618" lon="1.45361">
        <ele>173</ele>
        <time>2017-07-18T15:02:40Z</time>
      </trkpt>
      <trkpt lat="49.41623" lon="1.45367">
        <ele>173</ele>
        <time>2017-07-18T15:02:56Z</time>
      </trkpt>
      <trkpt lat="49.41626" lon="1.4537">
        <ele>176</ele>
        <time>2017-07-18T15:02:56Z</time>
      </trkpt>
      <trkpt lat="49.41631" lon="1.45374">
        <ele>176</ele>
        <time>2017-07-18T15:02:56Z</time>
      </trkpt>
      <trkpt lat="49.41633" lon="1.45379">
        <ele>169</ele>
        <time>2017-07-18T15:02:56Z</time>
      </trkpt>
      <trkpt lat="49.41635" lon="1.45392">
        <ele>169</ele>
        <time>2017-07-18T15:03:12Z</time>
      </trkpt>
      <trkpt lat="49.41637" lon="1.45396">
        <ele>169</ele>
        <time>2017-07-18T15:03:12Z</time>
      </trkpt>
      <trkpt lat="49.4164" lon="1.45405">
        <ele>169</ele>
        <time>2017-07-18T15:03:12Z</time>
      </trkpt>
      <trkpt lat="49.41644" lon="1.4541">
        <ele>169</ele>
        <time>2017-07-18T15:03:12Z</time>
      </trkpt>
      <trkpt lat="49.41649" lon="1.45416">
        <ele>169</ele>
        <time>2017-07-18T15:03:28Z</time>
      </trkpt>
      <trkpt lat="49.41652" lon="1.45424">
        <ele>169</ele>
        <time>2017-07-18T15:03:28Z</time>
      </trkpt>
      <trkpt lat="49.41654" lon="1.45428">
        <ele>169</ele>
        <time>2017-07-18T15:03:28Z</time>
      </trkpt>
      <trkpt lat="49.41657" lon="1.45433">
        <ele>169</ele>
        <time>2017-07-18T15:03:28Z</time>
      </trkpt>
      <trkpt lat="49.41661" lon="1.45439">
        <ele>169</ele>
        <time>2017-07-18T15:03:44Z</time>
      </trkpt>
      <trkpt lat="49.41665" lon="1.45444">
        <ele>169</ele>
        <time>2017-07-18T15:03:44Z</time>
      </trkpt>
      <trkpt lat="49.41668" lon="1.45451">
        <ele>169</ele>
        <time>2017-07-18T15:03:44Z</time>
      </trkpt>
      <trkpt lat="49.41672" lon="1.45449">
        <ele>169</ele>
        <time>2017-07-18T15:03:44Z</time>
      </trkpt>
      <trkpt lat="49.41675" lon="1.4544">
        <ele>169</ele>
        <time>2017-07-18T15:04:24Z</time>
      </trkpt>
      <trkpt lat="49.41677" lon="1.4544">
        <ele>169</ele>
        <time>2017-07-18T15:04:24Z</time>
      </trkpt>
      <trkpt lat="49.41682" lon="1.45444">
        <ele>169</ele>
        <time>2017-07-18T15:04:24Z</time>
      </trkpt>
      <trkpt lat="49.41687" lon="1.45444">
        <ele>169</ele>
        <time>2017-07-18T15:04:24Z</time>
      </trkpt>
      <trkpt lat="49.41691" lon="1.4544">
        <ele>169</ele>
        <time>2017-07-18T15:04:24Z</time>
      </trkpt>
      <trkpt lat="49.41695" lon="1.45435">
        <ele>169</ele>
        <time>2017-07-18T15:04:40Z</time>
      </trkpt>
      <trkpt lat="49.41699" lon="1.4543">
        <ele>169</ele>
        <time>2017-07-18T15:04:40Z</time>
      </trkpt>
      <trkpt lat="49.41702" lon="1.45427">
        <ele>169</ele>
        <time>2017-07-18T15:04:40Z</time>
      </trkpt>
      <trkpt lat="49.41706" lon="1.45422">
        <ele>169</ele>
        <time>2017-07-18T15:04:40Z</time>
      </trkpt>
      <trkpt lat="49.41711" lon="1.45418">
        <ele>169</ele>
        <time>2017-07-18T15:04:56Z</time>
      </trkpt>
      <trkpt lat="49.41714" lon="1.45415">
        <ele>169</ele>
        <time>2017-07-18T15:04:56Z</time>
      </trkpt>
      <trkpt lat="49.41719" lon="1.4541">
        <ele>169</ele>
        <time>2017-07-18T15:04:56Z</time>
      </trkpt>
      <trkpt lat="49.41722" lon="1.45407">
        <ele>169</ele>
        <time>2017-07-18T15:04:56Z</time>
      </trkpt>
      <trkpt lat="49.41727" lon="1.45405">
        <ele>169</ele>
        <time>2017-07-18T15:05:12Z</time>
      </trkpt>
      <trkpt lat="49.41731" lon="1.45402">
        <ele>169</ele>
        <time>2017-07-18T15:05:12Z</time>
      </trkpt>
      <trkpt lat="49.41736" lon="1.45398">
        <ele>169</ele>
        <time>2017-07-18T15:05:12Z</time>
      </trkpt>
      <trkpt lat="49.41739" lon="1.45394">
        <ele>169</ele>
        <time>2017-07-18T15:05:12Z</time>
      </trkpt>
      <trkpt lat="49.41743" lon="1.45389">
        <ele>169</ele>
        <time>2017-07-18T15:05:28Z</time>
      </trkpt>
      <trkpt lat="49.41748" lon="1.45384">
        <ele>169</ele>
        <time>2017-07-18T15:05:28Z</time>
      </trkpt>
      <trkpt lat="49.41751" lon="1.45381">
        <ele>169</ele>
        <time>2017-07-18T15:05:28Z</time>
      </trkpt>
      <trkpt lat="49.41757" lon="1.45377">
        <ele>169</ele>
        <time>2017-07-18T15:05:28Z</time>
      </trkpt>
      <trkpt lat="49.41759" lon="1.45374">
        <ele>176</ele>
        <time>2017-07-18T15:05:44Z</time>
      </trkpt>
      <trkpt lat="49.41764" lon="1.45369">
        <ele>176</ele>
        <time>2017-07-18T15:05:44Z</time>
      </trkpt>
      <trkpt lat="49.41769" lon="1.45365">
        <ele>176</ele>
        <time>2017-07-18T15:05:44Z</time>
      </trkpt>
      <trkpt lat="49.41773" lon="1.45361">
        <ele>176</ele>
        <time>2017-07-18T15:05:44Z</time>
      </trkpt>
      <trkpt lat="49.41776" lon="1.45359">
        <ele>176</ele>
        <time>2017-07-18T15:06:00Z</time>
      </trkpt>
      <trkpt lat="49.4178" lon="1.45356">
        <ele>176</ele>
        <time>2017-07-18T15:06:00Z</time>
      </trkpt>
      <trkpt lat="49.41786" lon="1.45352">
        <ele>176</ele>
        <time>2017-07-18T15:06:00Z</time>
      </trkpt>
      <trkpt lat="49.41789" lon="1.4535">
        <ele>176</ele>
        <time>2017-07-18T15:06:00Z</time>
      </trkpt>
      <trkpt lat="49.41795" lon="1.45352">
        <ele>175</ele>
        <time>2017-07-18T15:06:16Z</time>
      </trkpt>
      <trkpt lat="49.41799" lon="1.45357">
        <ele>175</ele>
        <time>2017-07-18T15:06:16Z</time>
      </trkpt>
      <trkpt lat="49.418" lon="1.45368">
        <ele>175</ele>
        <time>2017-07-18T15:06:16Z</time>
      </trkpt>
      <trkpt lat="49.41802" lon="1.45374">
        <ele>175</ele>
        <time>2017-07-18T15:06:16Z</time>
      </trkpt>
      <trkpt lat="49.41804" lon="1.45381">
        <ele>169</ele>
        <time>2017-07-18T15:06:32Z</time>
      </trkpt>
      <trkpt lat="49.41806" lon="1.45389">
        <ele>169</ele>
        <time>2017-07-18T15:06:32Z</time>
      </trkpt>
      <trkpt lat="49.41808" lon="1.45396">
        <ele>169</ele>
        <time>2017-07-18T15:06:32Z</time>
      </trkpt>
      <trkpt lat="49.41807" lon="1.45403">
        <ele>169</ele>
        <time>2017-07-18T15:06:32Z</time>
      </trkpt>
      <trkpt lat="49.41808" lon="1.45411">
        <ele>169</ele>
        <time>2017-07-18T15:06:48Z</time>
      </trkpt>
      <trkpt lat="49.4181" lon="1.45422">
        <ele>169</ele>
        <time>2017-07-18T15:06:48Z</time>
      </trkpt>
      <trkpt lat="49.41813" lon="1.45432">
        <ele>169</ele>
        <time>2017-07-18T15:06:48Z</time>
      </trkpt>
      <trkpt lat="49.41815" lon="1.45437">
        <ele>169</ele>
        <time>2017-07-18T15:06:48Z</time>
      </trkpt>
      <trkpt lat="49.41816" lon="1.45445">
        <ele>169</ele>
        <time>2017-07-18T15:07:04Z</time>
      </trkpt>
      <trkpt lat="49.41816" lon="1.45452">
        <ele>169</ele>
        <time>2017-07-18T15:07:04Z</time>
      </trkpt>
      <trkpt lat="49.41817" lon="1.45458">
        <ele>169</ele>
        <time>2017-07-18T15:07:04Z</time>
      </trkpt>
      <trkpt lat="49.4182" lon="1.45465">
        <ele>166</ele>
        <time>2017-07-18T15:07:04Z</time>
      </trkpt>
      <trkpt lat="49.41822" lon="1.4547">
        <ele>166</ele>
        <time>2017-07-18T15:07:20Z</time>
      </trkpt>
      <trkpt lat="49.41826" lon="1.45477">
        <ele>166</ele>
        <time>2017-07-18T15:07:20Z</time>
      </trkpt>
      <trkpt lat="49.41827" lon="1.45483">
        <ele>166</ele>
        <time>2017-07-18T15:07:20Z</time>
      </trkpt>
      <trkpt lat="49.41831" lon="1.45492">
        <ele>166</ele>
        <time>2017-07-18T15:07:20Z</time>
      </trkpt>
      <trkpt lat="49.41833" lon="1.45499">
        <ele>166</ele>
        <time>2017-07-18T15:07:36Z</time>
      </trkpt>
      <trkpt lat="49.41834" lon="1.45506">
        <ele>166</ele>
        <time>2017-07-18T15:07:36Z</time>
      </trkpt>
      <trkpt lat="49.41837" lon="1.45512">
        <ele>166</ele>
        <time>2017-07-18T15:07:36Z</time>
      </trkpt>
      <trkpt lat="49.41839" lon="1.45519">
        <ele>166</ele>
        <time>2017-07-18T15:07:36Z</time>
      </trkpt>
      <trkpt lat="49.41841" lon="1.45525">
        <ele>166</ele>
        <time>2017-07-18T15:07:52Z</time>
      </trkpt>
      <trkpt lat="49.41844" lon="1.45533">
        <ele>166</ele>
        <time>2017-07-18T15:07:52Z</time>
      </trkpt>
      <trkpt lat="49.41844" lon="1.45539">
        <ele>166</ele>
        <time>2017-07-18T15:07:52Z</time>
      </trkpt>
      <trkpt lat="49.41846" lon="1.45547">
        <ele>165</ele>
        <time>2017-07-18T15:07:52Z</time>
      </trkpt>
      <trkpt lat="49.41847" lon="1.45555">
        <ele>165</ele>
        <time>2017-07-18T15:08:08Z</time>
      </trkpt>
      <trkpt lat="49.4185" lon="1.45564">
        <ele>165</ele>
        <time>2017-07-18T15:08:08Z</time>
      </trkpt>
      <trkpt lat="49.41851" lon="1.45569">
        <ele>165</ele>
        <time>2017-07-18T15:08:08Z</time>
      </trkpt>
      <trkpt lat="49.41854" lon="1.45575">
        <ele>165</ele>
        <time>2017-07-18T15:08:08Z</time>
      </trkpt>
      <trkpt lat="49.41856" lon="1.45583">
        <ele>165</ele>
        <time>2017-07-18T15:08:24Z</time>
      </trkpt>
      <trkpt lat="49.41859" lon="1.45589">
        <ele>165</ele>
        <time>2017-07-18T15:08:24Z</time>
      </trkpt>
      <trkpt lat="49.41862" lon="1.45598">
        <ele>165</ele>
        <time>2017-07-18T15:08:24Z</time>
      </trkpt>
      <trkpt lat="49.41862" lon="1.45606">
        <ele>165</ele>
        <time>2017-07-18T15:08:24Z</time>
      </trkpt>
      <trkpt lat="49.41863" lon="1.45614">
        <ele>165</ele>
        <time>2017-07-18T15:08:40Z</time>
      </trkpt>
      <trkpt lat="49.41866" lon="1.45622">
        <ele>165</ele>
        <time>2017-07-18T15:08:40Z</time>
      </trkpt>
      <trkpt lat="49.41868" lon="1.45627">
        <ele>162</ele>
        <time>2017-07-18T15:08:40Z</time>
      </trkpt>
      <trkpt lat="49.41871" lon="1.45634">
        <ele>162</ele>
        <time>2017-07-18T15:08:40Z</time>
      </trkpt>
      <trkpt lat="49.41872" lon="1.4564">
        <ele>162</ele>
        <time>2017-07-18T15:08:56Z</time>
      </trkpt>
      <trkpt lat="49.41873" lon="1.45653">
        <ele>162</ele>
        <time>2017-07-18T15:08:56Z</time>
      </trkpt>
      <trkpt lat="49.41877" lon="1.45661">
        <ele>164</ele>
        <time>2017-07-18T15:08:56Z</time>
      </trkpt>
      <trkpt lat="49.4188" lon="1.45668">
        <ele>164</ele>
        <time>2017-07-18T15:08:56Z</time>
      </trkpt>
      <trkpt lat="49.41882" lon="1.45674">
        <ele>164</ele>
        <time>2017-07-18T15:09:12Z</time>
      </trkpt>
      <trkpt lat="49.41882" lon="1.45681">
        <ele>164</ele>
        <time>2017-07-18T15:09:12Z</time>
      </trkpt>
      <trkpt lat="49.41884" lon="1.45689">
        <ele>164</ele>
        <time>2017-07-18T15:09:12Z</time>
      </trkpt>
      <trkpt lat="49.41886" lon="1.45695">
        <ele>164</ele>
        <time>2017-07-18T15:09:12Z</time>
      </trkpt>
      <trkpt lat="49.41888" lon="1.45701">
        <ele>164</ele>
        <time>2017-07-18T15:09:28Z</time>
      </trkpt>
      <trkpt lat="49.4189" lon="1.45706">
        <ele>164</ele>
        <time>2017-07-18T15:09:28Z</time>
      </trkpt>
      <trkpt lat="49.41893" lon="1.45714">
        <ele>160</ele>
        <time>2017-07-18T15:09:28Z</time>
      </trkpt>
      <trkpt lat="49.41895" lon="1.45721">
        <ele>160</ele>
        <time>2017-07-18T15:09:28Z</time>
      </trkpt>
      <trkpt lat="49.41896" lon="1.45727">
        <ele>160</ele>
        <time>2017-07-18T15:09:44Z</time>
      </trkpt>
      <trkpt lat="49.41898" lon="1.45733">
        <ele>160</ele>
        <time>2017-07-18T15:09:44Z</time>
      </trkpt>
      <trkpt lat="49.419" lon="1.4574">
        <ele>160</ele>
        <time>2017-07-18T15:09:44Z</time>
      </trkpt>
      <trkpt lat="49.41904" lon="1.45748">
        <ele>160</ele>
        <time>2017-07-18T15:09:44Z</time>
      </trkpt>
      <trkpt lat="49.41911" lon="1.45763">
        <ele>160</ele>
        <time>2017-07-18T15:10:56Z</time>
      </trkpt>
      <trkpt lat="49.41911" lon="1.45763">
        <ele>160</ele>
        <time>2017-07-18T15:10:56Z</time>
      </trkpt>
      <trkpt lat="49.41911" lon="1.45763">
        <ele>160</ele>
        <time>2017-07-18T15:10:56Z</time>
      </trkpt>
      <trkpt lat="49.41915" lon="1.45762">
        <ele>160</ele>
        <time>2017-07-18T15:10:56Z</time>
      </trkpt>
      <trkpt lat="49.41918" lon="1.45755">
        <ele>160</ele>
        <time>2017-07-18T15:10:56Z</time>
      </trkpt>
      <trkpt lat="49.41921" lon="1.4575">
        <ele>160</ele>
        <time>2017-07-18T15:11:12Z</time>
      </trkpt>
      <trkpt lat="49.41927" lon="1.45755">
        <ele>160</ele>
        <time>2017-07-18T15:11:12Z</time>
      </trkpt>
      <trkpt lat="49.41932" lon="1.45757">
        <ele>160</ele>
        <time>2017-07-18T15:11:12Z</time>
      </trkpt>
      <trkpt lat="49.41937" lon="1.45759">
        <ele>160</ele>
        <time>2017-07-18T15:11:12Z</time>
      </trkpt>
      <trkpt lat="49.41938" lon="1.45759">
        <ele>160</ele>
        <time>2017-07-18T15:11:40Z</time>
      </trkpt>
      <trkpt lat="49.4196" lon="1.45768">
        <ele>163</ele>
        <time>2017-07-18T15:11:40Z</time>
      </trkpt>
      <trkpt lat="49.41965" lon="1.4577">
        <ele>163</ele>
        <time>2017-07-18T15:11:40Z</time>
      </trkpt>
      <trkpt lat="49.4197" lon="1.45771">
        <ele>163</ele>
        <time>2017-07-18T15:11:40Z</time>
      </trkpt>
      <trkpt lat="49.41974" lon="1.45771">
        <ele>163</ele>
        <time>2017-07-18T15:12:00Z</time>
      </trkpt>
      <trkpt lat="49.41979" lon="1.4577">
        <ele>163</ele>
        <time>2017-07-18T15:12:00Z</time>
      </trkpt>
      <trkpt lat="49.41984" lon="1.45768">
        <ele>163</ele>
        <time>2017-07-18T15:12:00Z</time>
      </trkpt>
      <trkpt lat="49.41994" lon="1.45763">
        <ele>163</ele>
        <time>2017-07-18T15:12:00Z</time>
      </trkpt>
      <trkpt lat="49.41998" lon="1.45762">
        <ele>163</ele>
        <time>2017-07-18T15:12:16Z</time>
      </trkpt>
      <trkpt lat="49.42003" lon="1.4576">
        <ele>163</ele>
        <time>2017-07-18T15:12:16Z</time>
      </trkpt>
      <trkpt lat="49.42008" lon="1.45759">
        <ele>163</ele>
        <time>2017-07-18T15:12:16Z</time>
      </trkpt>
      <trkpt lat="49.42011" lon="1.45758">
        <ele>163</ele>
        <time>2017-07-18T15:12:16Z</time>
      </trkpt>
      <trkpt lat="49.42017" lon="1.45758">
        <ele>163</ele>
        <time>2017-07-18T15:12:32Z</time>
      </trkpt>
      <trkpt lat="49.42021" lon="1.45757">
        <ele>163</ele>
        <time>2017-07-18T15:12:32Z</time>
      </trkpt>
      <trkpt lat="49.42025" lon="1.45756">
        <ele>163</ele>
        <time>2017-07-18T15:12:32Z</time>
      </trkpt>
      <trkpt lat="49.4203" lon="1.45755">
        <ele>163</ele>
        <time>2017-07-18T15:12:32Z</time>
      </trkpt>
      <trkpt lat="49.42033" lon="1.45754">
        <ele>163</ele>
        <time>2017-07-18T15:12:49Z</time>
      </trkpt>
      <trkpt lat="49.42039" lon="1.45755">
        <ele>163</ele>
        <time>2017-07-18T15:12:49Z</time>
      </trkpt>
      <trkpt lat="49.42042" lon="1.45756">
        <ele>164</ele>
        <time>2017-07-18T15:12:49Z</time>
      </trkpt>
      <trkpt lat="49.42048" lon="1.45757">
        <ele>164</ele>
        <time>2017-07-18T15:12:49Z</time>
      </trkpt>
      <trkpt lat="49.42052" lon="1.45758">
        <ele>164</ele>
        <time>2017-07-18T15:13:04Z</time>
      </trkpt>
      <trkpt lat="49.42056" lon="1.45759">
        <ele>164</ele>
        <time>2017-07-18T15:13:04Z</time>
      </trkpt>
      <trkpt lat="49.42062" lon="1.4576">
        <ele>164</ele>
        <time>2017-07-18T15:13:04Z</time>
      </trkpt>
      <trkpt lat="49.42067" lon="1.45761">
        <ele>164</ele>
        <time>2017-07-18T15:13:04Z</time>
      </trkpt>
      <trkpt lat="49.42071" lon="1.45762">
        <ele>164</ele>
        <time>2017-07-18T15:13:20Z</time>
      </trkpt>
      <trkpt lat="49.42075" lon="1.45763">
        <ele>164</ele>
        <time>2017-07-18T15:13:20Z</time>
      </trkpt>
      <trkpt lat="49.42079" lon="1.45765">
        <ele>164</ele>
        <time>2017-07-18T15:13:20Z</time>
      </trkpt>
      <trkpt lat="49.42084" lon="1.45768">
        <ele>164</ele>
        <time>2017-07-18T15:13:20Z</time>
      </trkpt>
      <trkpt lat="49.42088" lon="1.45772">
        <ele>164</ele>
        <time>2017-07-18T15:13:36Z</time>
      </trkpt>
      <trkpt lat="49.4209" lon="1.45774">
        <ele>164</ele>
        <time>2017-07-18T15:13:36Z</time>
      </trkpt>
      <trkpt lat="49.42094" lon="1.45778">
        <ele>164</ele>
        <time>2017-07-18T15:13:36Z</time>
      </trkpt>
      <trkpt lat="49.42098" lon="1.4578">
        <ele>164</ele>
        <time>2017-07-18T15:13:36Z</time>
      </trkpt>
      <trkpt lat="49.42102" lon="1.45782">
        <ele>164</ele>
        <time>2017-07-18T15:13:52Z</time>
      </trkpt>
      <trkpt lat="49.42107" lon="1.45783">
        <ele>164</ele>
        <time>2017-07-18T15:13:52Z</time>
      </trkpt>
      <trkpt lat="49.42111" lon="1.45782">
        <ele>164</ele>
        <time>2017-07-18T15:13:52Z</time>
      </trkpt>
      <trkpt lat="49.42116" lon="1.45783">
        <ele>164</ele>
        <time>2017-07-18T15:13:52Z</time>
      </trkpt>
      <trkpt lat="49.4212" lon="1.45785">
        <ele>164</ele>
        <time>2017-07-18T15:14:08Z</time>
      </trkpt>
      <trkpt lat="49.42126" lon="1.45787">
        <ele>160</ele>
        <time>2017-07-18T15:14:08Z</time>
      </trkpt>
      <trkpt lat="49.4213" lon="1.45791">
        <ele>160</ele>
        <time>2017-07-18T15:14:08Z</time>
      </trkpt>
      <trkpt lat="49.42133" lon="1.45795">
        <ele>160</ele>
        <time>2017-07-18T15:14:08Z</time>
      </trkpt>
      <trkpt lat="49.42137" lon="1.458">
        <ele>160</ele>
        <time>2017-07-18T15:14:24Z</time>
      </trkpt>
      <trkpt lat="49.4214" lon="1.45805">
        <ele>160</ele>
        <time>2017-07-18T15:14:24Z</time>
      </trkpt>
      <trkpt lat="49.42143" lon="1.45811">
        <ele>160</ele>
        <time>2017-07-18T15:14:24Z</time>
      </trkpt>
      <trkpt lat="49.42145" lon="1.45817">
        <ele>160</ele>
        <time>2017-07-18T15:14:24Z</time>
      </trkpt>
      <trkpt lat="49.42149" lon="1.45822">
        <ele>160</ele>
        <time>2017-07-18T15:14:40Z</time>
      </trkpt>
      <trkpt lat="49.42152" lon="1.45825">
        <ele>160</ele>
        <time>2017-07-18T15:14:40Z</time>
      </trkpt>
      <trkpt lat="49.42156" lon="1.45829">
        <ele>160</ele>
        <time>2017-07-18T15:14:40Z</time>
      </trkpt>
      <trkpt lat="49.42161" lon="1.45833">
        <ele>160</ele>
        <time>2017-07-18T15:14:40Z</time>
      </trkpt>
      <trkpt lat="49.42164" lon="1.45837">
        <ele>160</ele>
        <time>2017-07-18T15:14:56Z</time>
      </trkpt>
      <trkpt lat="49.42168" lon="1.45842">
        <ele>160</ele>
        <time>2017-07-18T15:14:56Z</time>
      </trkpt>
      <trkpt lat="49.42171" lon="1.45846">
        <ele>160</ele>
        <time>2017-07-18T15:14:56Z</time>
      </trkpt>
      <trkpt lat="49.42175" lon="1.45851">
        <ele>160</ele>
        <time>2017-07-18T15:14:56Z</time>
      </trkpt>
      <trkpt lat="49.4218" lon="1.45855">
        <ele>160</ele>
        <time>2017-07-18T15:15:12Z</time>
      </trkpt>
      <trkpt lat="49.42183" lon="1.45858">
        <ele>160</ele>
        <time>2017-07-18T15:15:12Z</time>
      </trkpt>
      <trkpt lat="49.42188" lon="1.45863">
        <ele>160</ele>
        <time>2017-07-18T15:15:12Z</time>
      </trkpt>
      <trkpt lat="49.4219" lon="1.45867">
        <ele>160</ele>
        <time>2017-07-18T15:15:12Z</time>
      </trkpt>
      <trkpt lat="49.42194" lon="1.45874">
        <ele>160</ele>
        <time>2017-07-18T15:15:28Z</time>
      </trkpt>
      <trkpt lat="49.42198" lon="1.4588">
        <ele>160</ele>
        <time>2017-07-18T15:15:28Z</time>
      </trkpt>
      <trkpt lat="49.422" lon="1.45884">
        <ele>160</ele>
        <time>2017-07-18T15:15:28Z</time>
      </trkpt>
      <trkpt lat="49.42205" lon="1.4589">
        <ele>160</ele>
        <time>2017-07-18T15:15:28Z</time>
      </trkpt>
      <trkpt lat="49.42207" lon="1.45894">
        <ele>160</ele>
        <time>2017-07-18T15:15:44Z</time>
      </trkpt>
      <trkpt lat="49.42211" lon="1.45899">
        <ele>158</ele>
        <time>2017-07-18T15:15:44Z</time>
      </trkpt>
      <trkpt lat="49.42215" lon="1.45904">
        <ele>158</ele>
        <time>2017-07-18T15:15:44Z</time>
      </trkpt>
      <trkpt lat="49.42218" lon="1.45909">
        <ele>158</ele>
        <time>2017-07-18T15:15:44Z</time>
      </trkpt>
      <trkpt lat="49.42223" lon="1.45915">
        <ele>158</ele>
        <time>2017-07-18T15:16:00Z</time>
      </trkpt>
      <trkpt lat="49.42227" lon="1.45918">
        <ele>158</ele>
        <time>2017-07-18T15:16:00Z</time>
      </trkpt>
      <trkpt lat="49.4223" lon="1.45922">
        <ele>158</ele>
        <time>2017-07-18T15:16:00Z</time>
      </trkpt>
      <trkpt lat="49.42234" lon="1.45925">
        <ele>158</ele>
        <time>2017-07-18T15:16:00Z</time>
      </trkpt>
      <trkpt lat="49.42237" lon="1.45928">
        <ele>158</ele>
        <time>2017-07-18T15:16:16Z</time>
      </trkpt>
      <trkpt lat="49.42241" lon="1.45931">
        <ele>158</ele>
        <time>2017-07-18T15:16:16Z</time>
      </trkpt>
      <trkpt lat="49.42246" lon="1.45936">
        <ele>158</ele>
        <time>2017-07-18T15:16:16Z</time>
      </trkpt>
      <trkpt lat="49.42249" lon="1.45939">
        <ele>158</ele>
        <time>2017-07-18T15:16:16Z</time>
      </trkpt>
      <trkpt lat="49.42253" lon="1.45944">
        <ele>158</ele>
        <time>2017-07-18T15:16:32Z</time>
      </trkpt>
      <trkpt lat="49.42257" lon="1.45948">
        <ele>158</ele>
        <time>2017-07-18T15:16:32Z</time>
      </trkpt>
      <trkpt lat="49.42262" lon="1.45952">
        <ele>158</ele>
        <time>2017-07-18T15:16:32Z</time>
      </trkpt>
      <trkpt lat="49.42265" lon="1.45955">
        <ele>158</ele>
        <time>2017-07-18T15:16:32Z</time>
      </trkpt>
      <trkpt lat="49.42269" lon="1.45959">
        <ele>158</ele>
        <time>2017-07-18T15:16:48Z</time>
      </trkpt>
      <trkpt lat="49.42273" lon="1.45963">
        <ele>158</ele>
        <time>2017-07-18T15:16:48Z</time>
      </trkpt>
      <trkpt lat="49.42277" lon="1.45965">
        <ele>158</ele>
        <time>2017-07-18T15:16:48Z</time>
      </trkpt>
      <trkpt lat="49.42281" lon="1.45969">
        <ele>158</ele>
        <time>2017-07-18T15:16:48Z</time>
      </trkpt>
      <trkpt lat="49.42285" lon="1.45973">
        <ele>158</ele>
        <time>2017-07-18T15:17:04Z</time>
      </trkpt>
      <trkpt lat="49.42289" lon="1.45977">
        <ele>158</ele>
        <time>2017-07-18T15:17:04Z</time>
      </trkpt>
      <trkpt lat="49.42293" lon="1.45981">
        <ele>152</ele>
        <time>2017-07-18T15:17:04Z</time>
      </trkpt>
      <trkpt lat="49.42297" lon="1.45987">
        <ele>152</ele>
        <time>2017-07-18T15:17:04Z</time>
      </trkpt>
      <trkpt lat="49.423" lon="1.4599">
        <ele>152</ele>
        <time>2017-07-18T15:17:20Z</time>
      </trkpt>
      <trkpt lat="49.42304" lon="1.45995">
        <ele>152</ele>
        <time>2017-07-18T15:17:20Z</time>
      </trkpt>
      <trkpt lat="49.42309" lon="1.46">
        <ele>152</ele>
        <time>2017-07-18T15:17:20Z</time>
      </trkpt>
      <trkpt lat="49.42312" lon="1.46005">
        <ele>152</ele>
        <time>2017-07-18T15:17:20Z</time>
      </trkpt>
      <trkpt lat="49.42315" lon="1.46005">
        <ele>152</ele>
        <time>2017-07-18T15:17:36Z</time>
      </trkpt>
      <trkpt lat="49.42319" lon="1.46011">
        <ele>152</ele>
        <time>2017-07-18T15:17:36Z</time>
      </trkpt>
      <trkpt lat="49.42322" lon="1.46015">
        <ele>152</ele>
        <time>2017-07-18T15:17:36Z</time>
      </trkpt>
      <trkpt lat="49.42325" lon="1.4602">
        <ele>152</ele>
        <time>2017-07-18T15:17:36Z</time>
      </trkpt>
      <trkpt lat="49.42329" lon="1.46026">
        <ele>152</ele>
        <time>2017-07-18T15:17:52Z</time>
      </trkpt>
      <trkpt lat="49.42333" lon="1.46034">
        <ele>152</ele>
        <time>2017-07-18T15:17:52Z</time>
      </trkpt>
      <trkpt lat="49.42335" lon="1.46038">
        <ele>152</ele>
        <time>2017-07-18T15:17:52Z</time>
      </trkpt>
      <trkpt lat="49.42338" lon="1.46045">
        <ele>152</ele>
        <time>2017-07-18T15:17:52Z</time>
      </trkpt>
      <trkpt lat="49.42341" lon="1.46049">
        <ele>152</ele>
        <time>2017-07-18T15:18:08Z</time>
      </trkpt>
      <trkpt lat="49.42345" lon="1.46053">
        <ele>152</ele>
        <time>2017-07-18T15:18:08Z</time>
      </trkpt>
      <trkpt lat="49.42349" lon="1.4606">
        <ele>152</ele>
        <time>2017-07-18T15:18:08Z</time>
      </trkpt>
      <trkpt lat="49.42352" lon="1.46063">
        <ele>152</ele>
        <time>2017-07-18T15:18:08Z</time>
      </trkpt>
      <trkpt lat="49.42356" lon="1.46068">
        <ele>152</ele>
        <time>2017-07-18T15:18:24Z</time>
      </trkpt>
      <trkpt lat="49.4236" lon="1.46072">
        <ele>152</ele>
        <time>2017-07-18T15:18:24Z</time>
      </trkpt>
      <trkpt lat="49.42365" lon="1.46078">
        <ele>152</ele>
        <time>2017-07-18T15:18:24Z</time>
      </trkpt>
      <trkpt lat="49.42367" lon="1.46081">
        <ele>152</ele>
        <time>2017-07-18T15:18:24Z</time>
      </trkpt>
      <trkpt lat="49.42371" lon="1.46086">
        <ele>152</ele>
        <time>2017-07-18T15:19:16Z</time>
      </trkpt>
      <trkpt lat="49.42404" lon="1.46135">
        <ele>153</ele>
        <time>2017-07-18T15:19:16Z</time>
      </trkpt>
      <trkpt lat="49.42401" lon="1.46145">
        <ele>153</ele>
        <time>2017-07-18T15:19:16Z</time>
      </trkpt>
      <trkpt lat="49.42398" lon="1.46152">
        <ele>153</ele>
        <time>2017-07-18T15:19:16Z</time>
      </trkpt>
      <trkpt lat="49.42396" lon="1.46158">
        <ele>153</ele>
        <time>2017-07-18T15:19:32Z</time>
      </trkpt>
      <trkpt lat="49.42395" lon="1.46165">
        <ele>153</ele>
        <time>2017-07-18T15:19:32Z</time>
      </trkpt>
      <trkpt lat="49.42397" lon="1.46174">
        <ele>153</ele>
        <time>2017-07-18T15:19:32Z</time>
      </trkpt>
      <trkpt lat="49.42398" lon="1.46181">
        <ele>153</ele>
        <time>2017-07-18T15:19:32Z</time>
      </trkpt>
      <trkpt lat="49.42398" lon="1.46187">
        <ele>153</ele>
        <time>2017-07-18T15:19:48Z</time>
      </trkpt>
      <trkpt lat="49.42399" lon="1.46195">
        <ele>153</ele>
        <time>2017-07-18T15:19:48Z</time>
      </trkpt>
      <trkpt lat="49.42401" lon="1.462">
        <ele>153</ele>
        <time>2017-07-18T15:19:48Z</time>
      </trkpt>
      <trkpt lat="49.42403" lon="1.462">
        <ele>153</ele>
        <time>2017-07-18T15:19:48Z</time>
      </trkpt>
      <trkpt lat="49.42403" lon="1.462">
        <ele>153</ele>
        <time>2017-07-18T15:20:04Z</time>
      </trkpt>
      <trkpt lat="49.42403" lon="1.462">
        <ele>153</ele>
        <time>2017-07-18T15:20:04Z</time>
      </trkpt>
      <trkpt lat="49.42407" lon="1.46202">
        <ele>153</ele>
        <time>2017-07-18T15:20:04Z</time>
      </trkpt>
      <trkpt lat="49.42413" lon="1.46207">
        <ele>153</ele>
        <time>2017-07-18T15:20:04Z</time>
      </trkpt>
      <trkpt lat="49.42417" lon="1.4621">
        <ele>159</ele>
        <time>2017-07-18T15:22:40Z</time>
      </trkpt>
      <trkpt lat="49.4242" lon="1.46213">
        <ele>159</ele>
        <time>2017-07-18T15:22:40Z</time>
      </trkpt>
      <trkpt lat="49.42535" lon="1.46375">
        <ele>164</ele>
        <time>2017-07-18T15:22:40Z</time>
      </trkpt>
      <trkpt lat="49.42538" lon="1.46382">
        <ele>171</ele>
        <time>2017-07-18T15:22:40Z</time>
      </trkpt>
      <trkpt lat="49.42541" lon="1.46388">
        <ele>171</ele>
        <time>2017-07-18T15:23:28Z</time>
      </trkpt>
      <trkpt lat="49.42543" lon="1.46395">
        <ele>158</ele>
        <time>2017-07-18T15:23:28Z</time>
      </trkpt>
      <trkpt lat="49.42554" lon="1.46444">
        <ele>158</ele>
        <time>2017-07-18T15:23:28Z</time>
      </trkpt>
      <trkpt lat="49.42557" lon="1.46463">
        <ele>164</ele>
        <time>2017-07-18T15:23:28Z</time>
      </trkpt>
      <trkpt lat="49.42558" lon="1.4647">
        <ele>164</ele>
        <time>2017-07-18T15:23:44Z</time>
      </trkpt>
      <trkpt lat="49.4256" lon="1.46476">
        <ele>164</ele>
        <time>2017-07-18T15:23:44Z</time>
      </trkpt>
      <trkpt lat="49.42561" lon="1.46483">
        <ele>164</ele>
        <time>2017-07-18T15:23:44Z</time>
      </trkpt>
      <trkpt lat="49.42563" lon="1.46488">
        <ele>164</ele>
        <time>2017-07-18T15:23:44Z</time>
      </trkpt>
      <trkpt lat="49.42564" lon="1.46497">
        <ele>164</ele>
        <time>2017-07-18T15:24:00Z</time>
      </trkpt>
      <trkpt lat="49.42566" lon="1.46502">
        <ele>164</ele>
        <time>2017-07-18T15:24:00Z</time>
      </trkpt>
      <trkpt lat="49.42567" lon="1.46508">
        <ele>164</ele>
        <time>2017-07-18T15:24:00Z</time>
      </trkpt>
      <trkpt lat="49.42558" lon="1.46508">
        <ele>164</ele>
        <time>2017-07-18T15:24:00Z</time>
      </trkpt>
      <trkpt lat="49.42559" lon="1.46513">
        <ele>164</ele>
        <time>2017-07-18T15:24:16Z</time>
      </trkpt>
      <trkpt lat="49.42561" lon="1.46519">
        <ele>164</ele>
        <time>2017-07-18T15:24:16Z</time>
      </trkpt>
      <trkpt lat="49.42562" lon="1.46526">
        <ele>164</ele>
        <time>2017-07-18T15:24:16Z</time>
      </trkpt>
      <trkpt lat="49.42563" lon="1.46533">
        <ele>164</ele>
        <time>2017-07-18T15:24:16Z</time>
      </trkpt>
      <trkpt lat="49.42563" lon="1.46539">
        <ele>164</ele>
        <time>2017-07-18T15:24:32Z</time>
      </trkpt>
      <trkpt lat="49.42563" lon="1.46548">
        <ele>170</ele>
        <time>2017-07-18T15:24:32Z</time>
      </trkpt>
      <trkpt lat="49.42563" lon="1.46555">
        <ele>170</ele>
        <time>2017-07-18T15:24:32Z</time>
      </trkpt>
      <trkpt lat="49.42565" lon="1.46562">
        <ele>170</ele>
        <time>2017-07-18T15:24:32Z</time>
      </trkpt>
      <trkpt lat="49.42566" lon="1.46566">
        <ele>170</ele>
        <time>2017-07-18T15:24:48Z</time>
      </trkpt>
      <trkpt lat="49.42569" lon="1.46573">
        <ele>170</ele>
        <time>2017-07-18T15:24:48Z</time>
      </trkpt>
      <trkpt lat="49.42572" lon="1.4658">
        <ele>170</ele>
        <time>2017-07-18T15:24:48Z</time>
      </trkpt>
      <trkpt lat="49.42575" lon="1.46586">
        <ele>170</ele>
        <time>2017-07-18T15:24:48Z</time>
      </trkpt>
      <trkpt lat="49.42578" lon="1.46592">
        <ele>170</ele>
        <time>2017-07-18T15:25:04Z</time>
      </trkpt>
      <trkpt lat="49.42579" lon="1.46598">
        <ele>170</ele>
        <time>2017-07-18T15:25:04Z</time>
      </trkpt>
      <trkpt lat="49.42582" lon="1.46604">
        <ele>170</ele>
        <time>2017-07-18T15:25:04Z</time>
      </trkpt>
      <trkpt lat="49.42584" lon="1.46609">
        <ele>170</ele>
        <time>2017-07-18T15:25:04Z</time>
      </trkpt>
      <trkpt lat="49.42587" lon="1.46614">
        <ele>170</ele>
        <time>2017-07-18T15:25:20Z</time>
      </trkpt>
      <trkpt lat="49.4259" lon="1.46622">
        <ele>170</ele>
        <time>2017-07-18T15:25:20Z</time>
      </trkpt>
      <trkpt lat="49.42592" lon="1.46627">
        <ele>173</ele>
        <time>2017-07-18T15:25:20Z</time>
      </trkpt>
      <trkpt lat="49.42594" lon="1.46636">
        <ele>173</ele>
        <time>2017-07-18T15:25:20Z</time>
      </trkpt>
      <trkpt lat="49.42595" lon="1.46641">
        <ele>173</ele>
        <time>2017-07-18T15:25:36Z</time>
      </trkpt>
      <trkpt lat="49.42597" lon="1.4665">
        <ele>173</ele>
        <time>2017-07-18T15:25:36Z</time>
      </trkpt>
      <trkpt lat="49.426" lon="1.46656">
        <ele>173</ele>
        <time>2017-07-18T15:25:36Z</time>
      </trkpt>
      <trkpt lat="49.42602" lon="1.4666">
        <ele>173</ele>
        <time>2017-07-18T15:25:36Z</time>
      </trkpt>
      <trkpt lat="49.42605" lon="1.46666">
        <ele>173</ele>
        <time>2017-07-18T15:25:52Z</time>
      </trkpt>
      <trkpt lat="49.42609" lon="1.46673">
        <ele>173</ele>
        <time>2017-07-18T15:25:52Z</time>
      </trkpt>
      <trkpt lat="49.42611" lon="1.46677">
        <ele>173</ele>
        <time>2017-07-18T15:25:52Z</time>
      </trkpt>
      <trkpt lat="49.42613" lon="1.46683">
        <ele>173</ele>
        <time>2017-07-18T15:25:52Z</time>
      </trkpt>
      <trkpt lat="49.42615" lon="1.4669">
        <ele>173</ele>
        <time>2017-07-18T15:26:08Z</time>
      </trkpt>
      <trkpt lat="49.42617" lon="1.46699">
        <ele>173</ele>
        <time>2017-07-18T15:26:08Z</time>
      </trkpt>
      <trkpt lat="49.4262" lon="1.46704">
        <ele>173</ele>
        <time>2017-07-18T15:26:08Z</time>
      </trkpt>
      <trkpt lat="49.42623" lon="1.4671">
        <ele>175</ele>
        <time>2017-07-18T15:26:08Z</time>
      </trkpt>
      <trkpt lat="49.42626" lon="1.46715">
        <ele>162</ele>
        <time>2017-07-18T15:26:24Z</time>
      </trkpt>
      <trkpt lat="49.42628" lon="1.4672">
        <ele>162</ele>
        <time>2017-07-18T15:26:24Z</time>
      </trkpt>
      <trkpt lat="49.4263" lon="1.46727">
        <ele>162</ele>
        <time>2017-07-18T15:26:24Z</time>
      </trkpt>
      <trkpt lat="49.42632" lon="1.46733">
        <ele>162</ele>
        <time>2017-07-18T15:26:24Z</time>
      </trkpt>
      <trkpt lat="49.42635" lon="1.46741">
        <ele>162</ele>
        <time>2017-07-18T15:26:40Z</time>
      </trkpt>
      <trkpt lat="49.42636" lon="1.46746">
        <ele>162</ele>
        <time>2017-07-18T15:26:40Z</time>
      </trkpt>
      <trkpt lat="49.42638" lon="1.46753">
        <ele>162</ele>
        <time>2017-07-18T15:26:40Z</time>
      </trkpt>
      <trkpt lat="49.42639" lon="1.4676">
        <ele>162</ele>
        <time>2017-07-18T15:26:40Z</time>
      </trkpt>
      <trkpt lat="49.42639" lon="1.46769">
        <ele>162</ele>
        <time>2017-07-18T15:26:56Z</time>
      </trkpt>
      <trkpt lat="49.42639" lon="1.46774">
        <ele>162</ele>
        <time>2017-07-18T15:26:56Z</time>
      </trkpt>
      <trkpt lat="49.42638" lon="1.4678">
        <ele>162</ele>
        <time>2017-07-18T15:26:56Z</time>
      </trkpt>
      <trkpt lat="49.42637" lon="1.46787">
        <ele>162</ele>
        <time>2017-07-18T15:26:56Z</time>
      </trkpt>
      <trkpt lat="49.42635" lon="1.46794">
        <ele>160</ele>
        <time>2017-07-18T15:27:12Z</time>
      </trkpt>
      <trkpt lat="49.42633" lon="1.468">
        <ele>160</ele>
        <time>2017-07-18T15:27:12Z</time>
      </trkpt>
      <trkpt lat="49.42631" lon="1.46807">
        <ele>160</ele>
        <time>2017-07-18T15:27:12Z</time>
      </trkpt>
      <trkpt lat="49.42629" lon="1.46815">
        <ele>160</ele>
        <time>2017-07-18T15:27:12Z</time>
      </trkpt>
      <trkpt lat="49.42627" lon="1.46819">
        <ele>160</ele>
        <time>2017-07-18T15:27:28Z</time>
      </trkpt>
      <trkpt lat="49.42625" lon="1.46825">
        <ele>160</ele>
        <time>2017-07-18T15:27:28Z</time>
      </trkpt>
      <trkpt lat="49.42624" lon="1.46831">
        <ele>174</ele>
        <time>2017-07-18T15:27:28Z</time>
      </trkpt>
      <trkpt lat="49.42621" lon="1.46837">
        <ele>174</ele>
        <time>2017-07-18T15:27:28Z</time>
      </trkpt>
      <trkpt lat="49.42618" lon="1.46843">
        <ele>174</ele>
        <time>2017-07-18T15:27:44Z</time>
      </trkpt>
      <trkpt lat="49.42615" lon="1.46848">
        <ele>174</ele>
        <time>2017-07-18T15:27:44Z</time>
      </trkpt>
      <trkpt lat="49.42612" lon="1.46855">
        <ele>174</ele>
        <time>2017-07-18T15:27:44Z</time>
      </trkpt>
      <trkpt lat="49.42612" lon="1.4686">
        <ele>174</ele>
        <time>2017-07-18T15:27:44Z</time>
      </trkpt>
      <trkpt lat="49.42611" lon="1.46867">
        <ele>174</ele>
        <time>2017-07-18T15:28:00Z</time>
      </trkpt>
      <trkpt lat="49.4261" lon="1.46875">
        <ele>170</ele>
        <time>2017-07-18T15:28:00Z</time>
      </trkpt>
      <trkpt lat="49.42608" lon="1.46882">
        <ele>170</ele>
        <time>2017-07-18T15:28:00Z</time>
      </trkpt>
      <trkpt lat="49.42606" lon="1.46888">
        <ele>170</ele>
        <time>2017-07-18T15:28:00Z</time>
      </trkpt>
      <trkpt lat="49.42604" lon="1.46894">
        <ele>170</ele>
        <time>2017-07-18T15:28:16Z</time>
      </trkpt>
      <trkpt lat="49.42601" lon="1.46901">
        <ele>170</ele>
        <time>2017-07-18T15:28:16Z</time>
      </trkpt>
      <trkpt lat="49.426" lon="1.46907">
        <ele>170</ele>
        <time>2017-07-18T15:28:16Z</time>
      </trkpt>
      <trkpt lat="49.42598" lon="1.46916">
        <ele>170</ele>
        <time>2017-07-18T15:28:16Z</time>
      </trkpt>
      <trkpt lat="49.42595" lon="1.46922">
        <ele>170</ele>
        <time>2017-07-18T15:28:32Z</time>
      </trkpt>
      <trkpt lat="49.42593" lon="1.46926">
        <ele>170</ele>
        <time>2017-07-18T15:28:32Z</time>
      </trkpt>
      <trkpt lat="49.42591" lon="1.46932">
        <ele>170</ele>
        <time>2017-07-18T15:28:32Z</time>
      </trkpt>
      <trkpt lat="49.42589" lon="1.46939">
        <ele>170</ele>
        <time>2017-07-18T15:28:32Z</time>
      </trkpt>
      <trkpt lat="49.42587" lon="1.46945">
        <ele>170</ele>
        <time>2017-07-18T15:28:48Z</time>
      </trkpt>
      <trkpt lat="49.42584" lon="1.46953">
        <ele>170</ele>
        <time>2017-07-18T15:28:48Z</time>
      </trkpt>
      <trkpt lat="49.42582" lon="1.46958">
        <ele>170</ele>
        <time>2017-07-18T15:28:48Z</time>
      </trkpt>
      <trkpt lat="49.42579" lon="1.46964">
        <ele>161</ele>
        <time>2017-07-18T15:28:48Z</time>
      </trkpt>
      <trkpt lat="49.42576" lon="1.4697">
        <ele>161</ele>
        <time>2017-07-18T15:29:04Z</time>
      </trkpt>
      <trkpt lat="49.42573" lon="1.46977">
        <ele>161</ele>
        <time>2017-07-18T15:29:04Z</time>
      </trkpt>
      <trkpt lat="49.42568" lon="1.4698">
        <ele>161</ele>
        <time>2017-07-18T15:29:04Z</time>
      </trkpt>
      <trkpt lat="49.42564" lon="1.46982">
        <ele>161</ele>
        <time>2017-07-18T15:29:04Z</time>
      </trkpt>
      <trkpt lat="49.42557" lon="1.46982">
        <ele>161</ele>
        <time>2017-07-18T15:29:20Z</time>
      </trkpt>
      <trkpt lat="49.42554" lon="1.46986">
        <ele>161</ele>
        <time>2017-07-18T15:29:20Z</time>
      </trkpt>
      <trkpt lat="49.42551" lon="1.46991">
        <ele>161</ele>
        <time>2017-07-18T15:29:20Z</time>
      </trkpt>
      <trkpt lat="49.42547" lon="1.46998">
        <ele>161</ele>
        <time>2017-07-18T15:29:20Z</time>
      </trkpt>
      <trkpt lat="49.42544" lon="1.47003">
        <ele>161</ele>
        <time>2017-07-18T15:29:36Z</time>
      </trkpt>
      <trkpt lat="49.42541" lon="1.47007">
        <ele>171</ele>
        <time>2017-07-18T15:29:36Z</time>
      </trkpt>
      <trkpt lat="49.42537" lon="1.47015">
        <ele>171</ele>
        <time>2017-07-18T15:29:36Z</time>
      </trkpt>
      <trkpt lat="49.42535" lon="1.47019">
        <ele>171</ele>
        <time>2017-07-18T15:29:36Z</time>
      </trkpt>
      <trkpt lat="49.42532" lon="1.47025">
        <ele>171</ele>
        <time>2017-07-18T15:29:52Z</time>
      </trkpt>
      <trkpt lat="49.4253" lon="1.47031">
        <ele>171</ele>
        <time>2017-07-18T15:29:52Z</time>
      </trkpt>
      <trkpt lat="49.42527" lon="1.47037">
        <ele>171</ele>
        <time>2017-07-18T15:29:52Z</time>
      </trkpt>
      <trkpt lat="49.42524" lon="1.47042">
        <ele>160</ele>
        <time>2017-07-18T15:29:52Z</time>
      </trkpt>
      <trkpt lat="49.42521" lon="1.47048">
        <ele>160</ele>
        <time>2017-07-18T15:30:08Z</time>
      </trkpt>
      <trkpt lat="49.42518" lon="1.47053">
        <ele>160</ele>
        <time>2017-07-18T15:30:08Z</time>
      </trkpt>
      <trkpt lat="49.42515" lon="1.47059">
        <ele>160</ele>
        <time>2017-07-18T15:30:08Z</time>
      </trkpt>
      <trkpt lat="49.42512" lon="1.47065">
        <ele>160</ele>
        <time>2017-07-18T15:30:08Z</time>
      </trkpt>
      <trkpt lat="49.42509" lon="1.47071">
        <ele>160</ele>
        <time>2017-07-18T15:30:24Z</time>
      </trkpt>
      <trkpt lat="49.42506" lon="1.47079">
        <ele>160</ele>
        <time>2017-07-18T15:30:24Z</time>
      </trkpt>
      <trkpt lat="49.42505" lon="1.47084">
        <ele>160</ele>
        <time>2017-07-18T15:30:24Z</time>
      </trkpt>
      <trkpt lat="49.42501" lon="1.47091">
        <ele>160</ele>
        <time>2017-07-18T15:30:24Z</time>
      </trkpt>
      <trkpt lat="49.42498" lon="1.47097">
        <ele>160</ele>
        <time>2017-07-18T15:30:40Z</time>
      </trkpt>
      <trkpt lat="49.42493" lon="1.47103">
        <ele>160</ele>
        <time>2017-07-18T15:30:40Z</time>
      </trkpt>
      <trkpt lat="49.42489" lon="1.47108">
        <ele>160</ele>
        <time>2017-07-18T15:30:40Z</time>
      </trkpt>
      <trkpt lat="49.42484" lon="1.47112">
        <ele>160</ele>
        <time>2017-07-18T15:30:40Z</time>
      </trkpt>
      <trkpt lat="49.4248" lon="1.47116">
        <ele>160</ele>
        <time>2017-07-18T15:30:56Z</time>
      </trkpt>
      <trkpt lat="49.42475" lon="1.4712">
        <ele>160</ele>
        <time>2017-07-18T15:30:56Z</time>
      </trkpt>
      <trkpt lat="49.42472" lon="1.47122">
        <ele>160</ele>
        <time>2017-07-18T15:30:56Z</time>
      </trkpt>
      <trkpt lat="49.42468" lon="1.47125">
        <ele>155</ele>
        <time>2017-07-18T15:30:56Z</time>
      </trkpt>
      <trkpt lat="49.42463" lon="1.47128">
        <ele>155</ele>
        <time>2017-07-18T15:31:13Z</time>
      </trkpt>
      <trkpt lat="49.42458" lon="1.47131">
        <ele>159</ele>
        <time>2017-07-18T15:31:13Z</time>
      </trkpt>
      <trkpt lat="49.42453" lon="1.47134">
        <ele>159</ele>
        <time>2017-07-18T15:31:13Z</time>
      </trkpt>
      <trkpt lat="49.42448" lon="1.47138">
        <ele>159</ele>
        <time>2017-07-18T15:31:13Z</time>
      </trkpt>
      <trkpt lat="49.42446" lon="1.47139">
        <ele>159</ele>
        <time>2017-07-18T15:31:28Z</time>
      </trkpt>
      <trkpt lat="49.42441" lon="1.47143">
        <ele>159</ele>
        <time>2017-07-18T15:31:28Z</time>
      </trkpt>
      <trkpt lat="49.42436" lon="1.47146">
        <ele>159</ele>
        <time>2017-07-18T15:31:28Z</time>
      </trkpt>
      <trkpt lat="49.42432" lon="1.47149">
        <ele>159</ele>
        <time>2017-07-18T15:31:28Z</time>
      </trkpt>
      <trkpt lat="49.42429" lon="1.47152">
        <ele>159</ele>
        <time>2017-07-18T15:31:48Z</time>
      </trkpt>
      <trkpt lat="49.42423" lon="1.47155">
        <ele>159</ele>
        <time>2017-07-18T15:31:48Z</time>
      </trkpt>
      <trkpt lat="49.4242" lon="1.47158">
        <ele>159</ele>
        <time>2017-07-18T15:31:48Z</time>
      </trkpt>
      <trkpt lat="49.42409" lon="1.47163">
        <ele>159</ele>
        <time>2017-07-18T15:31:48Z</time>
      </trkpt>
      <trkpt lat="49.42398" lon="1.47156">
        <ele>159</ele>
        <time>2017-07-18T15:32:04Z</time>
      </trkpt>
      <trkpt lat="49.42391" lon="1.47152">
        <ele>159</ele>
        <time>2017-07-18T15:32:04Z</time>
      </trkpt>
      <trkpt lat="49.42386" lon="1.47156">
        <ele>159</ele>
        <time>2017-07-18T15:32:04Z</time>
      </trkpt>
      <trkpt lat="49.42383" lon="1.4716">
        <ele>159</ele>
        <time>2017-07-18T15:32:04Z</time>
      </trkpt>
      <trkpt lat="49.42378" lon="1.47165">
        <ele>159</ele>
        <time>2017-07-18T15:32:20Z</time>
      </trkpt>
      <trkpt lat="49.42375" lon="1.47168">
        <ele>166</ele>
        <time>2017-07-18T15:32:20Z</time>
      </trkpt>
      <trkpt lat="49.42371" lon="1.47172">
        <ele>166</ele>
        <time>2017-07-18T15:32:20Z</time>
      </trkpt>
      <trkpt lat="49.42367" lon="1.47177">
        <ele>166</ele>
        <time>2017-07-18T15:32:20Z</time>
      </trkpt>
      <trkpt lat="49.42364" lon="1.47181">
        <ele>166</ele>
        <time>2017-07-18T15:32:36Z</time>
      </trkpt>
      <trkpt lat="49.42362" lon="1.47188">
        <ele>166</ele>
        <time>2017-07-18T15:32:36Z</time>
      </trkpt>
      <trkpt lat="49.42358" lon="1.47193">
        <ele>166</ele>
        <time>2017-07-18T15:32:36Z</time>
      </trkpt>
      <trkpt lat="49.42355" lon="1.47197">
        <ele>166</ele>
        <time>2017-07-18T15:32:36Z</time>
      </trkpt>
      <trkpt lat="49.4235" lon="1.47203">
        <ele>166</ele>
        <time>2017-07-18T15:32:52Z</time>
      </trkpt>
      <trkpt lat="49.42347" lon="1.47206">
        <ele>166</ele>
        <time>2017-07-18T15:32:52Z</time>
      </trkpt>
      <trkpt lat="49.42342" lon="1.47212">
        <ele>157</ele>
        <time>2017-07-18T15:32:52Z</time>
      </trkpt>
      <trkpt lat="49.42339" lon="1.47215">
        <ele>157</ele>
        <time>2017-07-18T15:32:52Z</time>
      </trkpt>
      <trkpt lat="49.42335" lon="1.4722">
        <ele>157</ele>
        <time>2017-07-18T15:33:08Z</time>
      </trkpt>
      <trkpt lat="49.42331" lon="1.47224">
        <ele>157</ele>
        <time>2017-07-18T15:33:08Z</time>
      </trkpt>
      <trkpt lat="49.42328" lon="1.47228">
        <ele>157</ele>
        <time>2017-07-18T15:33:08Z</time>
      </trkpt>
      <trkpt lat="49.42324" lon="1.47231">
        <ele>157</ele>
        <time>2017-07-18T15:33:08Z</time>
      </trkpt>
      <trkpt lat="49.4232" lon="1.47235">
        <ele>157</ele>
        <time>2017-07-18T15:33:24Z</time>
      </trkpt>
      <trkpt lat="49.42314" lon="1.47232">
        <ele>157</ele>
        <time>2017-07-18T15:33:24Z</time>
      </trkpt>
      <trkpt lat="49.42305" lon="1.47223">
        <ele>157</ele>
        <time>2017-07-18T15:33:24Z</time>
      </trkpt>
      <trkpt lat="49.42303" lon="1.4722">
        <ele>157</ele>
        <time>2017-07-18T15:33:24Z</time>
      </trkpt>
      <trkpt lat="49.42303" lon="1.47219">
        <ele>157</ele>
        <time>2017-07-18T15:37:16Z</time>
      </trkpt>
      <trkpt lat="49.42303" lon="1.47219">
        <ele>157</ele>
        <time>2017-07-18T15:37:16Z</time>
      </trkpt>
      <trkpt lat="49.42302" lon="1.47219">
        <ele>157</ele>
        <time>2017-07-18T15:37:16Z</time>
      </trkpt>
      <trkpt lat="49.42297" lon="1.47218">
        <ele>157</ele>
        <time>2017-07-18T15:37:16Z</time>
      </trkpt>
      <trkpt lat="49.42291" lon="1.47219">
        <ele>160</ele>
        <time>2017-07-18T15:37:16Z</time>
      </trkpt>
      <trkpt lat="49.42288" lon="1.47226">
        <ele>160</ele>
        <time>2017-07-18T15:37:32Z</time>
      </trkpt>
      <trkpt lat="49.42281" lon="1.47226">
        <ele>160</ele>
        <time>2017-07-18T15:37:32Z</time>
      </trkpt>
      <trkpt lat="49.42276" lon="1.47228">
        <ele>160</ele>
        <time>2017-07-18T15:37:32Z</time>
      </trkpt>
      <trkpt lat="49.42272" lon="1.47229">
        <ele>160</ele>
        <time>2017-07-18T15:37:32Z</time>
      </trkpt>
      <trkpt lat="49.42268" lon="1.47231">
        <ele>160</ele>
        <time>2017-07-18T15:37:48Z</time>
      </trkpt>
      <trkpt lat="49.42265" lon="1.47231">
        <ele>160</ele>
        <time>2017-07-18T15:37:48Z</time>
      </trkpt>
      <trkpt lat="49.4226" lon="1.47231">
        <ele>160</ele>
        <time>2017-07-18T15:37:48Z</time>
      </trkpt>
      <trkpt lat="49.42256" lon="1.47234">
        <ele>160</ele>
        <time>2017-07-18T15:37:48Z</time>
      </trkpt>
      <trkpt lat="49.42252" lon="1.47238">
        <ele>160</ele>
        <time>2017-07-18T15:38:04Z</time>
      </trkpt>
      <trkpt lat="49.42247" lon="1.4724">
        <ele>160</ele>
        <time>2017-07-18T15:38:04Z</time>
      </trkpt>
      <trkpt lat="49.42243" lon="1.47244">
        <ele>160</ele>
        <time>2017-07-18T15:38:04Z</time>
      </trkpt>
      <trkpt lat="49.42239" lon="1.47247">
        <ele>160</ele>
        <time>2017-07-18T15:38:04Z</time>
      </trkpt>
      <trkpt lat="49.42235" lon="1.4725">
        <ele>160</ele>
        <time>2017-07-18T15:38:20Z</time>
      </trkpt>
      <trkpt lat="49.42231" lon="1.47254">
        <ele>160</ele>
        <time>2017-07-18T15:38:20Z</time>
      </trkpt>
      <trkpt lat="49.42227" lon="1.47257">
        <ele>160</ele>
        <time>2017-07-18T15:38:20Z</time>
      </trkpt>
      <trkpt lat="49.42221" lon="1.47261">
        <ele>160</ele>
        <time>2017-07-18T15:38:20Z</time>
      </trkpt>
      <trkpt lat="49.42217" lon="1.47263">
        <ele>160</ele>
        <time>2017-07-18T15:38:36Z</time>
      </trkpt>
      <trkpt lat="49.42213" lon="1.47265">
        <ele>160</ele>
        <time>2017-07-18T15:38:36Z</time>
      </trkpt>
      <trkpt lat="49.42209" lon="1.47266">
        <ele>160</ele>
        <time>2017-07-18T15:38:36Z</time>
      </trkpt>
      <trkpt lat="49.42203" lon="1.47268">
        <ele>162</ele>
        <time>2017-07-18T15:38:36Z</time>
      </trkpt>
      <trkpt lat="49.422" lon="1.4727">
        <ele>162</ele>
        <time>2017-07-18T15:38:52Z</time>
      </trkpt>
      <trkpt lat="49.42195" lon="1.47273">
        <ele>162</ele>
        <time>2017-07-18T15:38:52Z</time>
      </trkpt>
      <trkpt lat="49.42188" lon="1.47273">
        <ele>162</ele>
        <time>2017-07-18T15:38:52Z</time>
      </trkpt>
      <trkpt lat="49.42183" lon="1.47274">
        <ele>162</ele>
        <time>2017-07-18T15:38:52Z</time>
      </trkpt>
      <trkpt lat="49.42179" lon="1.47273">
        <ele>162</ele>
        <time>2017-07-18T15:39:08Z</time>
      </trkpt>
      <trkpt lat="49.42177" lon="1.47274">
        <ele>162</ele>
        <time>2017-07-18T15:39:08Z</time>
      </trkpt>
      <trkpt lat="49.42173" lon="1.47275">
        <ele>162</ele>
        <time>2017-07-18T15:39:08Z</time>
      </trkpt>
      <trkpt lat="49.42169" lon="1.47278">
        <ele>162</ele>
        <time>2017-07-18T15:39:08Z</time>
      </trkpt>
      <trkpt lat="49.42164" lon="1.47281">
        <ele>162</ele>
        <time>2017-07-18T15:39:24Z</time>
      </trkpt>
      <trkpt lat="49.42159" lon="1.47285">
        <ele>162</ele>
        <time>2017-07-18T15:39:24Z</time>
      </trkpt>
      <trkpt lat="49.42156" lon="1.47287">
        <ele>162</ele>
        <time>2017-07-18T15:39:24Z</time>
      </trkpt>
      <trkpt lat="49.42151" lon="1.47292">
        <ele>155</ele>
        <time>2017-07-18T15:39:24Z</time>
      </trkpt>
      <trkpt lat="49.42146" lon="1.47296">
        <ele>155</ele>
        <time>2017-07-18T15:39:40Z</time>
      </trkpt>
      <trkpt lat="49.42141" lon="1.47298">
        <ele>155</ele>
        <time>2017-07-18T15:39:40Z</time>
      </trkpt>
      <trkpt lat="49.42133" lon="1.47298">
        <ele>155</ele>
        <time>2017-07-18T15:39:40Z</time>
      </trkpt>
      <trkpt lat="49.42126" lon="1.47295">
        <ele>155</ele>
        <time>2017-07-18T15:39:40Z</time>
      </trkpt>
      <trkpt lat="49.42121" lon="1.47296">
        <ele>158</ele>
        <time>2017-07-18T15:39:56Z</time>
      </trkpt>
      <trkpt lat="49.42114" lon="1.47301">
        <ele>158</ele>
        <time>2017-07-18T15:39:56Z</time>
      </trkpt>
      <trkpt lat="49.4211" lon="1.47304">
        <ele>158</ele>
        <time>2017-07-18T15:39:56Z</time>
      </trkpt>
      <trkpt lat="49.42108" lon="1.47308">
        <ele>158</ele>
        <time>2017-07-18T15:39:56Z</time>
      </trkpt>
      <trkpt lat="49.42105" lon="1.47313">
        <ele>158</ele>
        <time>2017-07-18T15:40:12Z</time>
      </trkpt>
      <trkpt lat="49.42101" lon="1.47319">
        <ele>158</ele>
        <time>2017-07-18T15:40:12Z</time>
      </trkpt>
      <trkpt lat="49.42098" lon="1.47322">
        <ele>158</ele>
        <time>2017-07-18T15:40:12Z</time>
      </trkpt>
      <trkpt lat="49.42093" lon="1.47328">
        <ele>158</ele>
        <time>2017-07-18T15:40:12Z</time>
      </trkpt>
      <trkpt lat="49.4209" lon="1.47331">
        <ele>158</ele>
        <time>2017-07-18T15:40:28Z</time>
      </trkpt>
      <trkpt lat="49.42086" lon="1.47334">
        <ele>158</ele>
        <time>2017-07-18T15:40:28Z</time>
      </trkpt>
      <trkpt lat="49.42081" lon="1.4734">
        <ele>158</ele>
        <time>2017-07-18T15:40:28Z</time>
      </trkpt>
      <trkpt lat="49.42077" lon="1.47344">
        <ele>158</ele>
        <time>2017-07-18T15:40:28Z</time>
      </trkpt>
      <trkpt lat="49.42074" lon="1.47347">
        <ele>158</ele>
        <time>2017-07-18T15:40:44Z</time>
      </trkpt>
      <trkpt lat="49.42071" lon="1.47351">
        <ele>158</ele>
        <time>2017-07-18T15:40:44Z</time>
      </trkpt>
      <trkpt lat="49.42067" lon="1.47356">
        <ele>158</ele>
        <time>2017-07-18T15:40:44Z</time>
      </trkpt>
      <trkpt lat="49.42063" lon="1.47361">
        <ele>158</ele>
        <time>2017-07-18T15:40:44Z</time>
      </trkpt>
      <trkpt lat="49.42058" lon="1.47368">
        <ele>158</ele>
        <time>2017-07-18T15:41:00Z</time>
      </trkpt>
      <trkpt lat="49.42052" lon="1.47372">
        <ele>158</ele>
        <time>2017-07-18T15:41:00Z</time>
      </trkpt>
      <trkpt lat="49.42049" lon="1.47376">
        <ele>153</ele>
        <time>2017-07-18T15:41:00Z</time>
      </trkpt>
      <trkpt lat="49.42045" lon="1.4738">
        <ele>153</ele>
        <time>2017-07-18T15:41:00Z</time>
      </trkpt>
      <trkpt lat="49.42041" lon="1.47384">
        <ele>158</ele>
        <time>2017-07-18T15:41:16Z</time>
      </trkpt>
      <trkpt lat="49.42036" lon="1.4739">
        <ele>158</ele>
        <time>2017-07-18T15:41:16Z</time>
      </trkpt>
      <trkpt lat="49.42033" lon="1.47394">
        <ele>158</ele>
        <time>2017-07-18T15:41:16Z</time>
      </trkpt>
      <trkpt lat="49.42029" lon="1.47397">
        <ele>158</ele>
        <time>2017-07-18T15:41:16Z</time>
      </trkpt>
      <trkpt lat="49.42025" lon="1.47403">
        <ele>158</ele>
        <time>2017-07-18T15:41:32Z</time>
      </trkpt>
      <trkpt lat="49.4202" lon="1.47407">
        <ele>158</ele>
        <time>2017-07-18T15:41:32Z</time>
      </trkpt>
      <trkpt lat="49.42014" lon="1.47411">
        <ele>158</ele>
        <time>2017-07-18T15:41:32Z</time>
      </trkpt>
      <trkpt lat="49.42012" lon="1.47412">
        <ele>158</ele>
        <time>2017-07-18T15:41:32Z</time>
      </trkpt>
      <trkpt lat="49.42008" lon="1.47416">
        <ele>158</ele>
        <time>2017-07-18T15:41:48Z</time>
      </trkpt>
      <trkpt lat="49.42003" lon="1.47421">
        <ele>158</ele>
        <time>2017-07-18T15:41:48Z</time>
      </trkpt>
      <trkpt lat="49.41999" lon="1.47423">
        <ele>158</ele>
        <time>2017-07-18T15:41:48Z</time>
      </trkpt>
      <trkpt lat="49.41993" lon="1.47424">
        <ele>158</ele>
        <time>2017-07-18T15:41:48Z</time>
      </trkpt>
      <trkpt lat="49.41989" lon="1.47424">
        <ele>158</ele>
        <time>2017-07-18T15:42:04Z</time>
      </trkpt>
      <trkpt lat="49.41985" lon="1.47428">
        <ele>158</ele>
        <time>2017-07-18T15:42:04Z</time>
      </trkpt>
      <trkpt lat="49.41979" lon="1.47432">
        <ele>158</ele>
        <time>2017-07-18T15:42:04Z</time>
      </trkpt>
      <trkpt lat="49.41976" lon="1.47435">
        <ele>158</ele>
        <time>2017-07-18T15:42:04Z</time>
      </trkpt>
      <trkpt lat="49.41972" lon="1.47438">
        <ele>158</ele>
        <time>2017-07-18T15:42:20Z</time>
      </trkpt>
      <trkpt lat="49.41966" lon="1.47442">
        <ele>158</ele>
        <time>2017-07-18T15:42:20Z</time>
      </trkpt>
      <trkpt lat="49.41961" lon="1.47446">
        <ele>158</ele>
        <time>2017-07-18T15:42:20Z</time>
      </trkpt>
      <trkpt lat="49.41951" lon="1.47447">
        <ele>164</ele>
        <time>2017-07-18T15:42:20Z</time>
      </trkpt>
      <trkpt lat="49.41948" lon="1.47447">
        <ele>164</ele>
        <time>2017-07-18T15:42:36Z</time>
      </trkpt>
      <trkpt lat="49.41943" lon="1.4745">
        <ele>164</ele>
        <time>2017-07-18T15:42:36Z</time>
      </trkpt>
      <trkpt lat="49.4194" lon="1.47452">
        <ele>164</ele>
        <time>2017-07-18T15:42:36Z</time>
      </trkpt>
      <trkpt lat="49.41935" lon="1.47455">
        <ele>164</ele>
        <time>2017-07-18T15:42:36Z</time>
      </trkpt>
      <trkpt lat="49.41931" lon="1.47459">
        <ele>158</ele>
        <time>2017-07-18T15:42:52Z</time>
      </trkpt>
      <trkpt lat="49.41927" lon="1.47462">
        <ele>158</ele>
        <time>2017-07-18T15:42:52Z</time>
      </trkpt>
      <trkpt lat="49.41923" lon="1.47465">
        <ele>158</ele>
        <time>2017-07-18T15:42:52Z</time>
      </trkpt>
      <trkpt lat="49.41917" lon="1.47469">
        <ele>158</ele>
        <time>2017-07-18T15:42:52Z</time>
      </trkpt>
      <trkpt lat="49.41913" lon="1.47473">
        <ele>158</ele>
        <time>2017-07-18T15:43:08Z</time>
      </trkpt>
      <trkpt lat="49.41909" lon="1.47477">
        <ele>158</ele>
        <time>2017-07-18T15:43:08Z</time>
      </trkpt>
      <trkpt lat="49.41906" lon="1.47479">
        <ele>158</ele>
        <time>2017-07-18T15:43:08Z</time>
      </trkpt>
      <trkpt lat="49.41901" lon="1.47483">
        <ele>158</ele>
        <time>2017-07-18T15:43:08Z</time>
      </trkpt>
      <trkpt lat="49.41896" lon="1.47487">
        <ele>158</ele>
        <time>2017-07-18T15:43:24Z</time>
      </trkpt>
      <trkpt lat="49.41892" lon="1.4749">
        <ele>158</ele>
        <time>2017-07-18T15:43:24Z</time>
      </trkpt>
      <trkpt lat="49.41887" lon="1.47492">
        <ele>158</ele>
        <time>2017-07-18T15:43:24Z</time>
      </trkpt>
      <trkpt lat="49.41882" lon="1.47493">
        <ele>158</ele>
        <time>2017-07-18T15:43:24Z</time>
      </trkpt>
      <trkpt lat="49.41879" lon="1.47494">
        <ele>158</ele>
        <time>2017-07-18T15:43:40Z</time>
      </trkpt>
      <trkpt lat="49.41873" lon="1.47495">
        <ele>163</ele>
        <time>2017-07-18T15:43:40Z</time>
      </trkpt>
      <trkpt lat="49.41869" lon="1.47496">
        <ele>163</ele>
        <time>2017-07-18T15:43:40Z</time>
      </trkpt>
      <trkpt lat="49.41865" lon="1.47497">
        <ele>163</ele>
        <time>2017-07-18T15:43:40Z</time>
      </trkpt>
      <trkpt lat="49.4186" lon="1.47498">
        <ele>163</ele>
        <time>2017-07-18T15:43:56Z</time>
      </trkpt>
      <trkpt lat="49.41855" lon="1.47499">
        <ele>163</ele>
        <time>2017-07-18T15:43:56Z</time>
      </trkpt>
      <trkpt lat="49.41849" lon="1.47501">
        <ele>163</ele>
        <time>2017-07-18T15:43:56Z</time>
      </trkpt>
      <trkpt lat="49.41846" lon="1.47503">
        <ele>163</ele>
        <time>2017-07-18T15:43:56Z</time>
      </trkpt>
      <trkpt lat="49.4184" lon="1.47506">
        <ele>163</ele>
        <time>2017-07-18T15:44:12Z</time>
      </trkpt>
      <trkpt lat="49.41836" lon="1.47509">
        <ele>163</ele>
        <time>2017-07-18T15:44:12Z</time>
      </trkpt>
      <trkpt lat="49.41832" lon="1.4751">
        <ele>163</ele>
        <time>2017-07-18T15:44:12Z</time>
      </trkpt>
      <trkpt lat="49.41827" lon="1.47511">
        <ele>163</ele>
        <time>2017-07-18T15:44:12Z</time>
      </trkpt>
      <trkpt lat="49.4182" lon="1.47506">
        <ele>163</ele>
        <time>2017-07-18T15:44:29Z</time>
      </trkpt>
      <trkpt lat="49.4181" lon="1.47501">
        <ele>163</ele>
        <time>2017-07-18T15:44:29Z</time>
      </trkpt>
      <trkpt lat="49.41805" lon="1.475">
        <ele>163</ele>
        <time>2017-07-18T15:44:29Z</time>
      </trkpt>
      <trkpt lat="49.418" lon="1.47501">
        <ele>163</ele>
        <time>2017-07-18T15:44:29Z</time>
      </trkpt>
      <trkpt lat="49.41796" lon="1.47501">
        <ele>163</ele>
        <time>2017-07-18T15:44:44Z</time>
      </trkpt>
      <trkpt lat="49.4179" lon="1.47502">
        <ele>158</ele>
        <time>2017-07-18T15:44:44Z</time>
      </trkpt>
      <trkpt lat="49.41785" lon="1.47502">
        <ele>158</ele>
        <time>2017-07-18T15:44:44Z</time>
      </trkpt>
      <trkpt lat="49.4178" lon="1.47501">
        <ele>158</ele>
        <time>2017-07-18T15:44:44Z</time>
      </trkpt>
      <trkpt lat="49.41771" lon="1.475">
        <ele>158</ele>
        <time>2017-07-18T15:45:00Z</time>
      </trkpt>
      <trkpt lat="49.41766" lon="1.47501">
        <ele>158</ele>
        <time>2017-07-18T15:45:00Z</time>
      </trkpt>
      <trkpt lat="49.41761" lon="1.47499">
        <ele>158</ele>
        <time>2017-07-18T15:45:00Z</time>
      </trkpt>
      <trkpt lat="49.41756" lon="1.47497">
        <ele>158</ele>
        <time>2017-07-18T15:45:00Z</time>
      </trkpt>
      <trkpt lat="49.4175" lon="1.47501">
        <ele>158</ele>
        <time>2017-07-18T15:45:16Z</time>
      </trkpt>
      <trkpt lat="49.41747" lon="1.47505">
        <ele>158</ele>
        <time>2017-07-18T15:45:16Z</time>
      </trkpt>
      <trkpt lat="49.41743" lon="1.47508">
        <ele>158</ele>
        <time>2017-07-18T15:45:16Z</time>
      </trkpt>
      <trkpt lat="49.41739" lon="1.47512">
        <ele>158</ele>
        <time>2017-07-18T15:45:16Z</time>
      </trkpt>
      <trkpt lat="49.41734" lon="1.47517">
        <ele>158</ele>
        <time>2017-07-18T15:45:32Z</time>
      </trkpt>
      <trkpt lat="49.41731" lon="1.4752">
        <ele>158</ele>
        <time>2017-07-18T15:45:32Z</time>
      </trkpt>
      <trkpt lat="49.41727" lon="1.47524">
        <ele>158</ele>
        <time>2017-07-18T15:45:32Z</time>
      </trkpt>
      <trkpt lat="49.41723" lon="1.47527">
        <ele>158</ele>
        <time>2017-07-18T15:45:32Z</time>
      </trkpt>
      <trkpt lat="49.41718" lon="1.4753">
        <ele>158</ele>
        <time>2017-07-18T15:45:48Z</time>
      </trkpt>
      <trkpt lat="49.41713" lon="1.47532">
        <ele>158</ele>
        <time>2017-07-18T15:45:48Z</time>
      </trkpt>
      <trkpt lat="49.41709" lon="1.47534">
        <ele>158</ele>
        <time>2017-07-18T15:45:48Z</time>
      </trkpt>
      <trkpt lat="49.41703" lon="1.47535">
        <ele>145</ele>
        <time>2017-07-18T15:45:48Z</time>
      </trkpt>
      <trkpt lat="49.41699" lon="1.47537">
        <ele>145</ele>
        <time>2017-07-18T15:46:04Z</time>
      </trkpt>
      <trkpt lat="49.41689" lon="1.47539">
        <ele>145</ele>
        <time>2017-07-18T15:46:04Z</time>
      </trkpt>
      <trkpt lat="49.41684" lon="1.4754">
        <ele>145</ele>
        <time>2017-07-18T15:46:04Z</time>
      </trkpt>
      <trkpt lat="49.4168" lon="1.47543">
        <ele>148</ele>
        <time>2017-07-18T15:46:04Z</time>
      </trkpt>
      <trkpt lat="49.41676" lon="1.47547">
        <ele>148</ele>
        <time>2017-07-18T15:46:20Z</time>
      </trkpt>
      <trkpt lat="49.41674" lon="1.4755">
        <ele>148</ele>
        <time>2017-07-18T15:46:20Z</time>
      </trkpt>
      <trkpt lat="49.41669" lon="1.47556">
        <ele>148</ele>
        <time>2017-07-18T15:46:20Z</time>
      </trkpt>
      <trkpt lat="49.41666" lon="1.47558">
        <ele>148</ele>
        <time>2017-07-18T15:46:20Z</time>
      </trkpt>
      <trkpt lat="49.41661" lon="1.47561">
        <ele>148</ele>
        <time>2017-07-18T15:46:36Z</time>
      </trkpt>
      <trkpt lat="49.41657" lon="1.47564">
        <ele>148</ele>
        <time>2017-07-18T15:46:36Z</time>
      </trkpt>
      <trkpt lat="49.41653" lon="1.47567">
        <ele>148</ele>
        <time>2017-07-18T15:46:36Z</time>
      </trkpt>
      <trkpt lat="49.41649" lon="1.47571">
        <ele>148</ele>
        <time>2017-07-18T15:46:36Z</time>
      </trkpt>
      <trkpt lat="49.41644" lon="1.47574">
        <ele>148</ele>
        <time>2017-07-18T15:46:52Z</time>
      </trkpt>
      <trkpt lat="49.4164" lon="1.47578">
        <ele>148</ele>
        <time>2017-07-18T15:46:52Z</time>
      </trkpt>
      <trkpt lat="49.41635" lon="1.47578">
        <ele>148</ele>
        <time>2017-07-18T15:46:52Z</time>
      </trkpt>
      <trkpt lat="49.41633" lon="1.47577">
        <ele>148</ele>
        <time>2017-07-18T15:46:52Z</time>
      </trkpt>
      <trkpt lat="49.41627" lon="1.47577">
        <ele>148</ele>
        <time>2017-07-18T15:47:08Z</time>
      </trkpt>
      <trkpt lat="49.41622" lon="1.47579">
        <ele>152</ele>
        <time>2017-07-18T15:47:08Z</time>
      </trkpt>
      <trkpt lat="49.41614" lon="1.47578">
        <ele>152</ele>
        <time>2017-07-18T15:47:08Z</time>
      </trkpt>
      <trkpt lat="49.4161" lon="1.47578">
        <ele>152</ele>
        <time>2017-07-18T15:47:08Z</time>
      </trkpt>
      <trkpt lat="49.41604" lon="1.47574">
        <ele>152</ele>
        <time>2017-07-18T15:47:24Z</time>
      </trkpt>
      <trkpt lat="49.41601" lon="1.47575">
        <ele>152</ele>
        <time>2017-07-18T15:47:24Z</time>
      </trkpt>
      <trkpt lat="49.41597" lon="1.47577">
        <ele>152</ele>
        <time>2017-07-18T15:47:24Z</time>
      </trkpt>
      <trkpt lat="49.41592" lon="1.47581">
        <ele>152</ele>
        <time>2017-07-18T15:47:24Z</time>
      </trkpt>
      <trkpt lat="49.41588" lon="1.47586">
        <ele>152</ele>
        <time>2017-07-18T15:47:40Z</time>
      </trkpt>
      <trkpt lat="49.41584" lon="1.4759">
        <ele>152</ele>
        <time>2017-07-18T15:47:40Z</time>
      </trkpt>
      <trkpt lat="49.41582" lon="1.47594">
        <ele>152</ele>
        <time>2017-07-18T15:47:40Z</time>
      </trkpt>
      <trkpt lat="49.41578" lon="1.47599">
        <ele>152</ele>
        <time>2017-07-18T15:47:40Z</time>
      </trkpt>
      <trkpt lat="49.41575" lon="1.47604">
        <ele>152</ele>
        <time>2017-07-18T15:47:56Z</time>
      </trkpt>
      <trkpt lat="49.4157" lon="1.47609">
        <ele>152</ele>
        <time>2017-07-18T15:47:56Z</time>
      </trkpt>
      <trkpt lat="49.41567" lon="1.47612">
        <ele>152</ele>
        <time>2017-07-18T15:47:56Z</time>
      </trkpt>
      <trkpt lat="49.41562" lon="1.47617">
        <ele>152</ele>
        <time>2017-07-18T15:47:56Z</time>
      </trkpt>
      <trkpt lat="49.41558" lon="1.47621">
        <ele>152</ele>
        <time>2017-07-18T15:48:12Z</time>
      </trkpt>
      <trkpt lat="49.41553" lon="1.47624">
        <ele>152</ele>
        <time>2017-07-18T15:48:12Z</time>
      </trkpt>
      <trkpt lat="49.4155" lon="1.47626">
        <ele>159</ele>
        <time>2017-07-18T15:48:12Z</time>
      </trkpt>
      <trkpt lat="49.41546" lon="1.47629">
        <ele>159</ele>
        <time>2017-07-18T15:48:12Z</time>
      </trkpt>
      <trkpt lat="49.4154" lon="1.47633">
        <ele>164</ele>
        <time>2017-07-18T15:48:28Z</time>
      </trkpt>
      <trkpt lat="49.41537" lon="1.47635">
        <ele>164</ele>
        <time>2017-07-18T15:48:28Z</time>
      </trkpt>
      <trkpt lat="49.41532" lon="1.47638">
        <ele>164</ele>
        <time>2017-07-18T15:48:28Z</time>
      </trkpt>
      <trkpt lat="49.41528" lon="1.4764">
        <ele>164</ele>
        <time>2017-07-18T15:48:28Z</time>
      </trkpt>
      <trkpt lat="49.41524" lon="1.47642">
        <ele>164</ele>
        <time>2017-07-18T15:48:44Z</time>
      </trkpt>
      <trkpt lat="49.41519" lon="1.47644">
        <ele>164</ele>
        <time>2017-07-18T15:48:44Z</time>
      </trkpt>
      <trkpt lat="49.41515" lon="1.47646">
        <ele>164</ele>
        <time>2017-07-18T15:48:44Z</time>
      </trkpt>
      <trkpt lat="49.4151" lon="1.47647">
        <ele>164</ele>
        <time>2017-07-18T15:48:44Z</time>
      </trkpt>
      <trkpt lat="49.41506" lon="1.4765">
        <ele>164</ele>
        <time>2017-07-18T15:49:00Z</time>
      </trkpt>
      <trkpt lat="49.41501" lon="1.47653">
        <ele>164</ele>
        <time>2017-07-18T15:49:00Z</time>
      </trkpt>
      <trkpt lat="49.41496" lon="1.47657">
        <ele>164</ele>
        <time>2017-07-18T15:49:00Z</time>
      </trkpt>
      <trkpt lat="49.41493" lon="1.4766">
        <ele>164</ele>
        <time>2017-07-18T15:49:00Z</time>
      </trkpt>
      <trkpt lat="49.41487" lon="1.47664">
        <ele>164</ele>
        <time>2017-07-18T15:49:16Z</time>
      </trkpt>
      <trkpt lat="49.41484" lon="1.47667">
        <ele>164</ele>
        <time>2017-07-18T15:49:16Z</time>
      </trkpt>
      <trkpt lat="49.4148" lon="1.47672">
        <ele>164</ele>
        <time>2017-07-18T15:49:16Z</time>
      </trkpt>
      <trkpt lat="49.41474" lon="1.47677">
        <ele>164</ele>
        <time>2017-07-18T15:49:16Z</time>
      </trkpt>
      <trkpt lat="49.41471" lon="1.4768">
        <ele>164</ele>
        <time>2017-07-18T15:49:32Z</time>
      </trkpt>
      <trkpt lat="49.41466" lon="1.47685">
        <ele>164</ele>
        <time>2017-07-18T15:49:32Z</time>
      </trkpt>
      <trkpt lat="49.41461" lon="1.47688">
        <ele>164</ele>
        <time>2017-07-18T15:49:32Z</time>
      </trkpt>
      <trkpt lat="49.41458" lon="1.47691">
        <ele>158</ele>
        <time>2017-07-18T15:49:32Z</time>
      </trkpt>
      <trkpt lat="49.41454" lon="1.47695">
        <ele>158</ele>
        <time>2017-07-18T15:49:48Z</time>
      </trkpt>
      <trkpt lat="49.41449" lon="1.47701">
        <ele>158</ele>
        <time>2017-07-18T15:49:48Z</time>
      </trkpt>
      <trkpt lat="49.41447" lon="1.47704">
        <ele>158</ele>
        <time>2017-07-18T15:49:48Z</time>
      </trkpt>
      <trkpt lat="49.41443" lon="1.47709">
        <ele>161</ele>
        <time>2017-07-18T15:49:48Z</time>
      </trkpt>
      <trkpt lat="49.41439" lon="1.47716">
        <ele>161</ele>
        <time>2017-07-18T15:50:04Z</time>
      </trkpt>
      <trkpt lat="49.41437" lon="1.47719">
        <ele>161</ele>
        <time>2017-07-18T15:50:04Z</time>
      </trkpt>
      <trkpt lat="49.41432" lon="1.47725">
        <ele>161</ele>
        <time>2017-07-18T15:50:04Z</time>
      </trkpt>
      <trkpt lat="49.41428" lon="1.4773">
        <ele>161</ele>
        <time>2017-07-18T15:50:04Z</time>
      </trkpt>
      <trkpt lat="49.41424" lon="1.47734">
        <ele>161</ele>
        <time>2017-07-18T15:50:20Z</time>
      </trkpt>
      <trkpt lat="49.4142" lon="1.47738">
        <ele>161</ele>
        <time>2017-07-18T15:50:20Z</time>
      </trkpt>
      <trkpt lat="49.41416" lon="1.4774">
        <ele>161</ele>
        <time>2017-07-18T15:50:20Z</time>
      </trkpt>
      <trkpt lat="49.41409" lon="1.47741">
        <ele>161</ele>
        <time>2017-07-18T15:50:20Z</time>
      </trkpt>
      <trkpt lat="49.41398" lon="1.47738">
        <ele>161</ele>
        <time>2017-07-18T15:50:36Z</time>
      </trkpt>
      <trkpt lat="49.41394" lon="1.47736">
        <ele>161</ele>
        <time>2017-07-18T15:50:36Z</time>
      </trkpt>
      <trkpt lat="49.41388" lon="1.47738">
        <ele>161</ele>
        <time>2017-07-18T15:50:36Z</time>
      </trkpt>
      <trkpt lat="49.41383" lon="1.47742">
        <ele>161</ele>
        <time>2017-07-18T15:50:36Z</time>
      </trkpt>
      <trkpt lat="49.41378" lon="1.47747">
        <ele>161</ele>
        <time>2017-07-18T15:50:52Z</time>
      </trkpt>
      <trkpt lat="49.41375" lon="1.47751">
        <ele>161</ele>
        <time>2017-07-18T15:50:52Z</time>
      </trkpt>
      <trkpt lat="49.4137" lon="1.47756">
        <ele>158</ele>
        <time>2017-07-18T15:50:52Z</time>
      </trkpt>
      <trkpt lat="49.41366" lon="1.47759">
        <ele>158</ele>
        <time>2017-07-18T15:50:52Z</time>
      </trkpt>
      <trkpt lat="49.41363" lon="1.47762">
        <ele>158</ele>
        <time>2017-07-18T15:51:08Z</time>
      </trkpt>
      <trkpt lat="49.41357" lon="1.47764">
        <ele>158</ele>
        <time>2017-07-18T15:51:08Z</time>
      </trkpt>
      <trkpt lat="49.41352" lon="1.47766">
        <ele>158</ele>
        <time>2017-07-18T15:51:08Z</time>
      </trkpt>
      <trkpt lat="49.41346" lon="1.47767">
        <ele>158</ele>
        <time>2017-07-18T15:51:08Z</time>
      </trkpt>
      <trkpt lat="49.41342" lon="1.47768">
        <ele>158</ele>
        <time>2017-07-18T15:51:24Z</time>
      </trkpt>
      <trkpt lat="49.41337" lon="1.4777">
        <ele>158</ele>
        <time>2017-07-18T15:51:24Z</time>
      </trkpt>
      <trkpt lat="49.41331" lon="1.47771">
        <ele>158</ele>
        <time>2017-07-18T15:51:24Z</time>
      </trkpt>
      <trkpt lat="49.41326" lon="1.47775">
        <ele>158</ele>
        <time>2017-07-18T15:51:24Z</time>
      </trkpt>
      <trkpt lat="49.41321" lon="1.47777">
        <ele>158</ele>
        <time>2017-07-18T15:51:40Z</time>
      </trkpt>
      <trkpt lat="49.41318" lon="1.4778">
        <ele>158</ele>
        <time>2017-07-18T15:51:40Z</time>
      </trkpt>
      <trkpt lat="49.41315" lon="1.47784">
        <ele>158</ele>
        <time>2017-07-18T15:51:40Z</time>
      </trkpt>
      <trkpt lat="49.41312" lon="1.47789">
        <ele>158</ele>
        <time>2017-07-18T15:51:40Z</time>
      </trkpt>
      <trkpt lat="49.41308" lon="1.47794">
        <ele>157</ele>
        <time>2017-07-18T15:51:56Z</time>
      </trkpt>
      <trkpt lat="49.41304" lon="1.47801">
        <ele>157</ele>
        <time>2017-07-18T15:51:56Z</time>
      </trkpt>
      <trkpt lat="49.41302" lon="1.47805">
        <ele>157</ele>
        <time>2017-07-18T15:51:56Z</time>
      </trkpt>
      <trkpt lat="49.41298" lon="1.47807">
        <ele>157</ele>
        <time>2017-07-18T15:51:56Z</time>
      </trkpt>
      <trkpt lat="49.41291" lon="1.4781">
        <ele>150</ele>
        <time>2017-07-18T15:52:12Z</time>
      </trkpt>
      <trkpt lat="49.41287" lon="1.47812">
        <ele>150</ele>
        <time>2017-07-18T15:52:12Z</time>
      </trkpt>
      <trkpt lat="49.41283" lon="1.47816">
        <ele>150</ele>
        <time>2017-07-18T15:52:12Z</time>
      </trkpt>
      <trkpt lat="49.4128" lon="1.47819">
        <ele>150</ele>
        <time>2017-07-18T15:52:12Z</time>
      </trkpt>
      <trkpt lat="49.41275" lon="1.47822">
        <ele>150</ele>
        <time>2017-07-18T15:52:28Z</time>
      </trkpt>
      <trkpt lat="49.41271" lon="1.47828">
        <ele>150</ele>
        <time>2017-07-18T15:52:28Z</time>
      </trkpt>
      <trkpt lat="49.41268" lon="1.47833">
        <ele>150</ele>
        <time>2017-07-18T15:52:28Z</time>
      </trkpt>
      <trkpt lat="49.41262" lon="1.47837">
        <ele>150</ele>
        <time>2017-07-18T15:52:28Z</time>
      </trkpt>
      <trkpt lat="49.41257" lon="1.4784">
        <ele>150</ele>
        <time>2017-07-18T15:52:44Z</time>
      </trkpt>
      <trkpt lat="49.41253" lon="1.47841">
        <ele>150</ele>
        <time>2017-07-18T15:52:44Z</time>
      </trkpt>
      <trkpt lat="49.41248" lon="1.47845">
        <ele>150</ele>
        <time>2017-07-18T15:52:44Z</time>
      </trkpt>
      <trkpt lat="49.41244" lon="1.47849">
        <ele>150</ele>
        <time>2017-07-18T15:52:44Z</time>
      </trkpt>
      <trkpt lat="49.41229" lon="1.47857">
        <ele>150</ele>
        <time>2017-07-18T15:54:00Z</time>
      </trkpt>
      <trkpt lat="49.41229" lon="1.47857">
        <ele>150</ele>
        <time>2017-07-18T15:54:00Z</time>
      </trkpt>
      <trkpt lat="49.41229" lon="1.47857">
        <ele>150</ele>
        <time>2017-07-18T15:54:00Z</time>
      </trkpt>
      <trkpt lat="49.41229" lon="1.47857">
        <ele>150</ele>
        <time>2017-07-18T15:54:00Z</time>
      </trkpt>
      <trkpt lat="49.41229" lon="1.47857">
        <ele>150</ele>
        <time>2017-07-18T15:54:00Z</time>
      </trkpt>
      <trkpt lat="49.41229" lon="1.47857">
        <ele>150</ele>
        <time>2017-07-18T15:57:48Z</time>
      </trkpt>
      <trkpt lat="49.41172" lon="1.47853">
        <ele>146</ele>
        <time>2017-07-18T15:57:48Z</time>
      </trkpt>
      <trkpt lat="49.41165" lon="1.47847">
        <ele>146</ele>
        <time>2017-07-18T15:57:48Z</time>
      </trkpt>
      <trkpt lat="49.41158" lon="1.47845">
        <ele>146</ele>
        <time>2017-07-18T15:57:48Z</time>
      </trkpt>
      <trkpt lat="49.41154" lon="1.47844">
        <ele>146</ele>
        <time>2017-07-18T15:57:48Z</time>
      </trkpt>
      <trkpt lat="49.41144" lon="1.47845">
        <ele>146</ele>
        <time>2017-07-18T15:58:08Z</time>
      </trkpt>
      <trkpt lat="49.4114" lon="1.47845">
        <ele>146</ele>
        <time>2017-07-18T15:58:08Z</time>
      </trkpt>
      <trkpt lat="49.41139" lon="1.47845">
        <ele>146</ele>
        <time>2017-07-18T15:58:08Z</time>
      </trkpt>
      <trkpt lat="49.41137" lon="1.47845">
        <ele>146</ele>
        <time>2017-07-18T15:58:08Z</time>
      </trkpt>
      <trkpt lat="49.41132" lon="1.47845">
        <ele>146</ele>
        <time>2017-07-18T15:58:08Z</time>
      </trkpt>
      <trkpt lat="49.41128" lon="1.47846">
        <ele>146</ele>
        <time>2017-07-18T15:58:28Z</time>
      </trkpt>
      <trkpt lat="49.41118" lon="1.47848">
        <ele>142</ele>
        <time>2017-07-18T15:58:28Z</time>
      </trkpt>
      <trkpt lat="49.41113" lon="1.4785">
        <ele>142</ele>
        <time>2017-07-18T15:58:28Z</time>
      </trkpt>
      <trkpt lat="49.41109" lon="1.47849">
        <ele>142</ele>
        <time>2017-07-18T15:58:28Z</time>
      </trkpt>
      <trkpt lat="49.41106" lon="1.47849">
        <ele>142</ele>
        <time>2017-07-18T15:58:44Z</time>
      </trkpt>
      <trkpt lat="49.41103" lon="1.47855">
        <ele>142</ele>
        <time>2017-07-18T15:58:44Z</time>
      </trkpt>
      <trkpt lat="49.41098" lon="1.47861">
        <ele>142</ele>
        <time>2017-07-18T15:58:44Z</time>
      </trkpt>
      <trkpt lat="49.41094" lon="1.47865">
        <ele>142</ele>
        <time>2017-07-18T15:58:44Z</time>
      </trkpt>
      <trkpt lat="49.41091" lon="1.47869">
        <ele>142</ele>
        <time>2017-07-18T15:59:00Z</time>
      </trkpt>
      <trkpt lat="49.41087" lon="1.47874">
        <ele>142</ele>
        <time>2017-07-18T15:59:00Z</time>
      </trkpt>
      <trkpt lat="49.41083" lon="1.4788">
        <ele>153</ele>
        <time>2017-07-18T15:59:00Z</time>
      </trkpt>
      <trkpt lat="49.4108" lon="1.47883">
        <ele>153</ele>
        <time>2017-07-18T15:59:00Z</time>
      </trkpt>
      <trkpt lat="49.41076" lon="1.47888">
        <ele>153</ele>
        <time>2017-07-18T15:59:16Z</time>
      </trkpt>
      <trkpt lat="49.41072" lon="1.47893">
        <ele>153</ele>
        <time>2017-07-18T15:59:16Z</time>
      </trkpt>
      <trkpt lat="49.41068" lon="1.47898">
        <ele>153</ele>
        <time>2017-07-18T15:59:16Z</time>
      </trkpt>
      <trkpt lat="49.41065" lon="1.47902">
        <ele>153</ele>
        <time>2017-07-18T15:59:16Z</time>
      </trkpt>
      <trkpt lat="49.41061" lon="1.47907">
        <ele>153</ele>
        <time>2017-07-18T15:59:32Z</time>
      </trkpt>
      <trkpt lat="49.41056" lon="1.47913">
        <ele>153</ele>
        <time>2017-07-18T15:59:32Z</time>
      </trkpt>
      <trkpt lat="49.41052" lon="1.47917">
        <ele>153</ele>
        <time>2017-07-18T15:59:32Z</time>
      </trkpt>
      <trkpt lat="49.41049" lon="1.4792">
        <ele>153</ele>
        <time>2017-07-18T15:59:32Z</time>
      </trkpt>
      <trkpt lat="49.41045" lon="1.47924">
        <ele>153</ele>
        <time>2017-07-18T15:59:48Z</time>
      </trkpt>
      <trkpt lat="49.41041" lon="1.47928">
        <ele>148</ele>
        <time>2017-07-18T15:59:48Z</time>
      </trkpt>
      <trkpt lat="49.41036" lon="1.47932">
        <ele>148</ele>
        <time>2017-07-18T15:59:48Z</time>
      </trkpt>
      <trkpt lat="49.41033" lon="1.47935">
        <ele>148</ele>
        <time>2017-07-18T15:59:48Z</time>
      </trkpt>
      <trkpt lat="49.41028" lon="1.47939">
        <ele>148</ele>
        <time>2017-07-18T16:00:52Z</time>
      </trkpt>
      <trkpt lat="49.41028" lon="1.47939">
        <ele>148</ele>
        <time>2017-07-18T16:00:52Z</time>
      </trkpt>
      <trkpt lat="49.41026" lon="1.47942">
        <ele>148</ele>
        <time>2017-07-18T16:00:52Z</time>
      </trkpt>
      <trkpt lat="49.41023" lon="1.47947">
        <ele>148</ele>
        <time>2017-07-18T16:00:52Z</time>
      </trkpt>
      <trkpt lat="49.4102" lon="1.47954">
        <ele>148</ele>
        <time>2017-07-18T16:00:52Z</time>
      </trkpt>
      <trkpt lat="49.41018" lon="1.4796">
        <ele>156</ele>
        <time>2017-07-18T16:01:08Z</time>
      </trkpt>
      <trkpt lat="49.41017" lon="1.47967">
        <ele>156</ele>
        <time>2017-07-18T16:01:08Z</time>
      </trkpt>
      <trkpt lat="49.41016" lon="1.47974">
        <ele>156</ele>
        <time>2017-07-18T16:01:08Z</time>
      </trkpt>
      <trkpt lat="49.41014" lon="1.47982">
        <ele>156</ele>
        <time>2017-07-18T16:01:08Z</time>
      </trkpt>
      <trkpt lat="49.41012" lon="1.47988">
        <ele>156</ele>
        <time>2017-07-18T16:01:24Z</time>
      </trkpt>
      <trkpt lat="49.4101" lon="1.47995">
        <ele>156</ele>
        <time>2017-07-18T16:01:24Z</time>
      </trkpt>
      <trkpt lat="49.41007" lon="1.48001">
        <ele>156</ele>
        <time>2017-07-18T16:01:24Z</time>
      </trkpt>
      <trkpt lat="49.41004" lon="1.48006">
        <ele>156</ele>
        <time>2017-07-18T16:01:24Z</time>
      </trkpt>
      <trkpt lat="49.41002" lon="1.48012">
        <ele>156</ele>
        <time>2017-07-18T16:01:48Z</time>
      </trkpt>
      <trkpt lat="49.40988" lon="1.48027">
        <ele>156</ele>
        <time>2017-07-18T16:01:48Z</time>
      </trkpt>
      <trkpt lat="49.40984" lon="1.48032">
        <ele>156</ele>
        <time>2017-07-18T16:01:48Z</time>
      </trkpt>
      <trkpt lat="49.4098" lon="1.48037">
        <ele>156</ele>
        <time>2017-07-18T16:01:48Z</time>
      </trkpt>
      <trkpt lat="49.40976" lon="1.48043">
        <ele>152</ele>
        <time>2017-07-18T16:02:04Z</time>
      </trkpt>
      <trkpt lat="49.40973" lon="1.48049">
        <ele>152</ele>
        <time>2017-07-18T16:02:04Z</time>
      </trkpt>
      <trkpt lat="49.40971" lon="1.48056">
        <ele>152</ele>
        <time>2017-07-18T16:02:04Z</time>
      </trkpt>
      <trkpt lat="49.40968" lon="1.48063">
        <ele>152</ele>
        <time>2017-07-18T16:02:04Z</time>
      </trkpt>
      <trkpt lat="49.40966" lon="1.4807">
        <ele>152</ele>
        <time>2017-07-18T16:02:20Z</time>
      </trkpt>
      <trkpt lat="49.40963" lon="1.48077">
        <ele>152</ele>
        <time>2017-07-18T16:02:20Z</time>
      </trkpt>
      <trkpt lat="49.40961" lon="1.48083">
        <ele>152</ele>
        <time>2017-07-18T16:02:20Z</time>
      </trkpt>
      <trkpt lat="49.40959" lon="1.48089">
        <ele>152</ele>
        <time>2017-07-18T16:02:20Z</time>
      </trkpt>
      <trkpt lat="49.40957" lon="1.48095">
        <ele>149</ele>
        <time>2017-07-18T16:02:36Z</time>
      </trkpt>
      <trkpt lat="49.40955" lon="1.48108">
        <ele>149</ele>
        <time>2017-07-18T16:02:36Z</time>
      </trkpt>
      <trkpt lat="49.40951" lon="1.48118">
        <ele>149</ele>
        <time>2017-07-18T16:02:36Z</time>
      </trkpt>
      <trkpt lat="49.40947" lon="1.48125">
        <ele>153</ele>
        <time>2017-07-18T16:02:36Z</time>
      </trkpt>
      <trkpt lat="49.40945" lon="1.48133">
        <ele>153</ele>
        <time>2017-07-18T16:02:52Z</time>
      </trkpt>
      <trkpt lat="49.40944" lon="1.48141">
        <ele>153</ele>
        <time>2017-07-18T16:02:52Z</time>
      </trkpt>
      <trkpt lat="49.40945" lon="1.4815">
        <ele>153</ele>
        <time>2017-07-18T16:02:52Z</time>
      </trkpt>
      <trkpt lat="49.40945" lon="1.48155">
        <ele>153</ele>
        <time>2017-07-18T16:02:52Z</time>
      </trkpt>
      <trkpt lat="49.40946" lon="1.48162">
        <ele>153</ele>
        <time>2017-07-18T16:03:08Z</time>
      </trkpt>
      <trkpt lat="49.40947" lon="1.48169">
        <ele>153</ele>
        <time>2017-07-18T16:03:08Z</time>
      </trkpt>
      <trkpt lat="49.40948" lon="1.48176">
        <ele>153</ele>
        <time>2017-07-18T16:03:08Z</time>
      </trkpt>
      <trkpt lat="49.4095" lon="1.48183">
        <ele>153</ele>
        <time>2017-07-18T16:03:08Z</time>
      </trkpt>
      <trkpt lat="49.40951" lon="1.4819">
        <ele>153</ele>
        <time>2017-07-18T16:03:24Z</time>
      </trkpt>
      <trkpt lat="49.40953" lon="1.48196">
        <ele>153</ele>
        <time>2017-07-18T16:03:24Z</time>
      </trkpt>
      <trkpt lat="49.40956" lon="1.48204">
        <ele>153</ele>
        <time>2017-07-18T16:03:24Z</time>
      </trkpt>
      <trkpt lat="49.40957" lon="1.48209">
        <ele>157</ele>
        <time>2017-07-18T16:03:24Z</time>
      </trkpt>
      <trkpt lat="49.40959" lon="1.48216">
        <ele>156</ele>
        <time>2017-07-18T16:03:40Z</time>
      </trkpt>
      <trkpt lat="49.40963" lon="1.48222">
        <ele>156</ele>
        <time>2017-07-18T16:03:40Z</time>
      </trkpt>
      <trkpt lat="49.40965" lon="1.48226">
        <ele>156</ele>
        <time>2017-07-18T16:03:40Z</time>
      </trkpt>
      <trkpt lat="49.40969" lon="1.48231">
        <ele>156</ele>
        <time>2017-07-18T16:03:40Z</time>
      </trkpt>
      <trkpt lat="49.40972" lon="1.48235">
        <ele>156</ele>
        <time>2017-07-18T16:03:56Z</time>
      </trkpt>
      <trkpt lat="49.40976" lon="1.48239">
        <ele>156</ele>
        <time>2017-07-18T16:03:56Z</time>
      </trkpt>
      <trkpt lat="49.40979" lon="1.48243">
        <ele>156</ele>
        <time>2017-07-18T16:03:56Z</time>
      </trkpt>
      <trkpt lat="49.40982" lon="1.48249">
        <ele>156</ele>
        <time>2017-07-18T16:03:56Z</time>
      </trkpt>
      <trkpt lat="49.40984" lon="1.48255">
        <ele>156</ele>
        <time>2017-07-18T16:04:24Z</time>
      </trkpt>
      <trkpt lat="49.40985" lon="1.48261">
        <ele>156</ele>
        <time>2017-07-18T16:04:24Z</time>
      </trkpt>
      <trkpt lat="49.40985" lon="1.48262">
        <ele>156</ele>
        <time>2017-07-18T16:04:24Z</time>
      </trkpt>
      <trkpt lat="49.40987" lon="1.48267">
        <ele>156</ele>
        <time>2017-07-18T16:04:24Z</time>
      </trkpt>
      <trkpt lat="49.40992" lon="1.48271">
        <ele>156</ele>
        <time>2017-07-18T16:04:24Z</time>
      </trkpt>
      <trkpt lat="49.40996" lon="1.48274">
        <ele>156</ele>
        <time>2017-07-18T16:04:40Z</time>
      </trkpt>
      <trkpt lat="49.41001" lon="1.48277">
        <ele>156</ele>
        <time>2017-07-18T16:04:40Z</time>
      </trkpt>
      <trkpt lat="49.41005" lon="1.48278">
        <ele>156</ele>
        <time>2017-07-18T16:04:40Z</time>
      </trkpt>
      <trkpt lat="49.4101" lon="1.48279">
        <ele>156</ele>
        <time>2017-07-18T16:04:40Z</time>
      </trkpt>
      <trkpt lat="49.41016" lon="1.4828">
        <ele>156</ele>
        <time>2017-07-18T16:10:44Z</time>
      </trkpt>
      <trkpt lat="49.41017" lon="1.4828">
        <ele>156</ele>
        <time>2017-07-18T16:10:44Z</time>
      </trkpt>
      <trkpt lat="49.41017" lon="1.4828">
        <ele>156</ele>
        <time>2017-07-18T16:10:44Z</time>
      </trkpt>
      <trkpt lat="49.41017" lon="1.4828">
        <ele>156</ele>
        <time>2017-07-18T16:10:44Z</time>
      </trkpt>
      <trkpt lat="49.41009" lon="1.47956">
        <ele>148</ele>
        <time>2017-07-18T16:10:44Z</time>
      </trkpt>
      <trkpt lat="49.41009" lon="1.47957">
        <ele>148</ele>
        <time>2017-07-18T16:14:00Z</time>
      </trkpt>
      <trkpt lat="49.41009" lon="1.47957">
        <ele>148</ele>
        <time>2017-07-18T16:14:00Z</time>
      </trkpt>
      <trkpt lat="49.41006" lon="1.47948">
        <ele>148</ele>
        <time>2017-07-18T16:14:00Z</time>
      </trkpt>
      <trkpt lat="49.41005" lon="1.47945">
        <ele>148</ele>
        <time>2017-07-18T16:14:00Z</time>
      </trkpt>
      <trkpt lat="49.41005" lon="1.47945">
        <ele>148</ele>
        <time>2017-07-18T16:14:00Z</time>
      </trkpt>
      <trkpt lat="49.41005" lon="1.47944">
        <ele>148</ele>
        <time>2017-07-18T16:24:16Z</time>
      </trkpt>
      <trkpt lat="49.41005" lon="1.47944">
        <ele>148</ele>
        <time>2017-07-18T16:24:16Z</time>
      </trkpt>
      <trkpt lat="49.41005" lon="1.47944">
        <ele>148</ele>
        <time>2017-07-18T16:24:16Z</time>
      </trkpt>
      <trkpt lat="49.41005" lon="1.47944">
        <ele>148</ele>
        <time>2017-07-18T16:24:16Z</time>
      </trkpt>
      <trkpt lat="49.41005" lon="1.47896">
        <ele>148</ele>
        <time>2017-07-18T16:24:16Z</time>
      </trkpt>
      <trkpt lat="49.40943" lon="1.479">
        <ele>138</ele>
        <time>2017-07-18T16:29:56Z</time>
      </trkpt>
      <trkpt lat="49.4056" lon="1.48278">
        <ele>97</ele>
        <time>2017-07-18T16:29:56Z</time>
      </trkpt>
      <trkpt lat="49.40554" lon="1.48298">
        <ele>102</ele>
        <time>2017-07-18T16:29:56Z</time>
      </trkpt>
      <trkpt lat="49.40548" lon="1.48312">
        <ele>102</ele>
        <time>2017-07-18T16:29:56Z</time>
      </trkpt>
      <trkpt lat="49.40545" lon="1.48319">
        <ele>102</ele>
        <time>2017-07-18T16:29:56Z</time>
      </trkpt>
      <trkpt lat="49.4054" lon="1.48323">
        <ele>93</ele>
        <time>2017-07-18T16:30:12Z</time>
      </trkpt>
      <trkpt lat="49.40536" lon="1.48326">
        <ele>93</ele>
        <time>2017-07-18T16:30:12Z</time>
      </trkpt>
      <trkpt lat="49.40529" lon="1.48325">
        <ele>93</ele>
        <time>2017-07-18T16:30:12Z</time>
      </trkpt>
      <trkpt lat="49.40525" lon="1.48328">
        <ele>93</ele>
        <time>2017-07-18T16:30:12Z</time>
      </trkpt>
      <trkpt lat="49.40518" lon="1.48331">
        <ele>93</ele>
        <time>2017-07-18T16:30:28Z</time>
      </trkpt>
      <trkpt lat="49.40515" lon="1.48332">
        <ele>93</ele>
        <time>2017-07-18T16:30:28Z</time>
      </trkpt>
      <trkpt lat="49.40511" lon="1.48336">
        <ele>93</ele>
        <time>2017-07-18T16:30:28Z</time>
      </trkpt>
      <trkpt lat="49.40506" lon="1.48339">
        <ele>93</ele>
        <time>2017-07-18T16:30:28Z</time>
      </trkpt>
      <trkpt lat="49.40499" lon="1.48331">
        <ele>93</ele>
        <time>2017-07-18T16:30:44Z</time>
      </trkpt>
      <trkpt lat="49.40494" lon="1.48329">
        <ele>93</ele>
        <time>2017-07-18T16:30:44Z</time>
      </trkpt>
      <trkpt lat="49.40489" lon="1.48327">
        <ele>93</ele>
        <time>2017-07-18T16:30:44Z</time>
      </trkpt>
      <trkpt lat="49.40486" lon="1.48325">
        <ele>93</ele>
        <time>2017-07-18T16:30:44Z</time>
      </trkpt>
      <trkpt lat="49.40485" lon="1.48325">
        <ele>93</ele>
        <time>2017-07-18T16:31:12Z</time>
      </trkpt>
      <trkpt lat="49.40464" lon="1.48293">
        <ele>93</ele>
        <time>2017-07-18T16:31:12Z</time>
      </trkpt>
      <trkpt lat="49.40458" lon="1.48283">
        <ele>98</ele>
        <time>2017-07-18T16:31:12Z</time>
      </trkpt>
      <trkpt lat="49.40453" lon="1.48275">
        <ele>98</ele>
        <time>2017-07-18T16:31:12Z</time>
      </trkpt>
      <trkpt lat="49.40451" lon="1.48269">
        <ele>98</ele>
        <time>2017-07-18T16:31:28Z</time>
      </trkpt>
      <trkpt lat="49.40449" lon="1.48264">
        <ele>98</ele>
        <time>2017-07-18T16:31:28Z</time>
      </trkpt>
      <trkpt lat="49.40446" lon="1.48259">
        <ele>98</ele>
        <time>2017-07-18T16:31:28Z</time>
      </trkpt>
      <trkpt lat="49.40442" lon="1.48253">
        <ele>98</ele>
        <time>2017-07-18T16:31:28Z</time>
      </trkpt>
      <trkpt lat="49.40439" lon="1.48247">
        <ele>98</ele>
        <time>2017-07-18T16:31:44Z</time>
      </trkpt>
      <trkpt lat="49.40436" lon="1.48241">
        <ele>98</ele>
        <time>2017-07-18T16:31:44Z</time>
      </trkpt>
      <trkpt lat="49.40433" lon="1.48233">
        <ele>98</ele>
        <time>2017-07-18T16:31:44Z</time>
      </trkpt>
      <trkpt lat="49.40431" lon="1.48227">
        <ele>98</ele>
        <time>2017-07-18T16:31:44Z</time>
      </trkpt>
      <trkpt lat="49.40429" lon="1.48218">
        <ele>98</ele>
        <time>2017-07-18T16:32:00Z</time>
      </trkpt>
      <trkpt lat="49.40427" lon="1.4821">
        <ele>98</ele>
        <time>2017-07-18T16:32:00Z</time>
      </trkpt>
      <trkpt lat="49.40425" lon="1.48202">
        <ele>101</ele>
        <time>2017-07-18T16:32:00Z</time>
      </trkpt>
      <trkpt lat="49.40422" lon="1.48195">
        <ele>101</ele>
        <time>2017-07-18T16:32:00Z</time>
      </trkpt>
      <trkpt lat="49.40418" lon="1.48186">
        <ele>101</ele>
        <time>2017-07-18T16:32:16Z</time>
      </trkpt>
      <trkpt lat="49.40419" lon="1.48181">
        <ele>101</ele>
        <time>2017-07-18T16:32:16Z</time>
      </trkpt>
      <trkpt lat="49.40419" lon="1.48178">
        <ele>101</ele>
        <time>2017-07-18T16:32:16Z</time>
      </trkpt>
      <trkpt lat="49.40417" lon="1.48172">
        <ele>101</ele>
        <time>2017-07-18T16:32:16Z</time>
      </trkpt>
      <trkpt lat="49.40414" lon="1.48165">
        <ele>101</ele>
        <time>2017-07-18T16:32:32Z</time>
      </trkpt>
      <trkpt lat="49.4041" lon="1.48157">
        <ele>101</ele>
        <time>2017-07-18T16:32:32Z</time>
      </trkpt>
      <trkpt lat="49.40407" lon="1.4815">
        <ele>101</ele>
        <time>2017-07-18T16:32:32Z</time>
      </trkpt>
      <trkpt lat="49.40406" lon="1.48143">
        <ele>101</ele>
        <time>2017-07-18T16:32:32Z</time>
      </trkpt>
      <trkpt lat="49.40405" lon="1.48136">
        <ele>101</ele>
        <time>2017-07-18T16:32:48Z</time>
      </trkpt>
      <trkpt lat="49.40403" lon="1.48129">
        <ele>101</ele>
        <time>2017-07-18T16:32:48Z</time>
      </trkpt>
      <trkpt lat="49.40402" lon="1.48122">
        <ele>102</ele>
        <time>2017-07-18T16:32:48Z</time>
      </trkpt>
      <trkpt lat="49.404" lon="1.48115">
        <ele>102</ele>
        <time>2017-07-18T16:32:48Z</time>
      </trkpt>
      <trkpt lat="49.40398" lon="1.48108">
        <ele>102</ele>
        <time>2017-07-18T16:33:04Z</time>
      </trkpt>
      <trkpt lat="49.40398" lon="1.481">
        <ele>102</ele>
        <time>2017-07-18T16:33:04Z</time>
      </trkpt>
      <trkpt lat="49.40397" lon="1.48093">
        <ele>102</ele>
        <time>2017-07-18T16:33:04Z</time>
      </trkpt>
      <trkpt lat="49.40395" lon="1.48086">
        <ele>102</ele>
        <time>2017-07-18T16:33:04Z</time>
      </trkpt>
      <trkpt lat="49.40394" lon="1.48079">
        <ele>102</ele>
        <time>2017-07-18T16:33:20Z</time>
      </trkpt>
      <trkpt lat="49.40392" lon="1.48072">
        <ele>102</ele>
        <time>2017-07-18T16:33:20Z</time>
      </trkpt>
      <trkpt lat="49.4039" lon="1.48065">
        <ele>102</ele>
        <time>2017-07-18T16:33:20Z</time>
      </trkpt>
      <trkpt lat="49.40387" lon="1.48059">
        <ele>102</ele>
        <time>2017-07-18T16:33:20Z</time>
      </trkpt>
      <trkpt lat="49.40384" lon="1.48053">
        <ele>102</ele>
        <time>2017-07-18T16:33:36Z</time>
      </trkpt>
      <trkpt lat="49.40382" lon="1.48046">
        <ele>102</ele>
        <time>2017-07-18T16:33:36Z</time>
      </trkpt>
      <trkpt lat="49.4038" lon="1.48039">
        <ele>102</ele>
        <time>2017-07-18T16:33:36Z</time>
      </trkpt>
      <trkpt lat="49.40378" lon="1.48033">
        <ele>102</ele>
        <time>2017-07-18T16:33:36Z</time>
      </trkpt>
      <trkpt lat="49.40376" lon="1.48026">
        <ele>102</ele>
        <time>2017-07-18T16:33:52Z</time>
      </trkpt>
      <trkpt lat="49.40374" lon="1.48019">
        <ele>86</ele>
        <time>2017-07-18T16:33:52Z</time>
      </trkpt>
      <trkpt lat="49.40372" lon="1.48012">
        <ele>86</ele>
        <time>2017-07-18T16:33:52Z</time>
      </trkpt>
      <trkpt lat="49.4037" lon="1.48005">
        <ele>86</ele>
        <time>2017-07-18T16:33:52Z</time>
      </trkpt>
      <trkpt lat="49.40369" lon="1.47998">
        <ele>86</ele>
        <time>2017-07-18T16:34:08Z</time>
      </trkpt>
      <trkpt lat="49.40368" lon="1.4799">
        <ele>86</ele>
        <time>2017-07-18T16:34:08Z</time>
      </trkpt>
      <trkpt lat="49.40367" lon="1.47982">
        <ele>86</ele>
        <time>2017-07-18T16:34:08Z</time>
      </trkpt>
      <trkpt lat="49.40366" lon="1.4797">
        <ele>86</ele>
        <time>2017-07-18T16:34:08Z</time>
      </trkpt>
      <trkpt lat="49.40366" lon="1.47965">
        <ele>86</ele>
        <time>2017-07-18T16:34:24Z</time>
      </trkpt>
      <trkpt lat="49.40368" lon="1.47954">
        <ele>90</ele>
        <time>2017-07-18T16:34:24Z</time>
      </trkpt>
      <trkpt lat="49.40371" lon="1.47945">
        <ele>90</ele>
        <time>2017-07-18T16:34:24Z</time>
      </trkpt>
      <trkpt lat="49.4037" lon="1.47935">
        <ele>90</ele>
        <time>2017-07-18T16:34:24Z</time>
      </trkpt>
      <trkpt lat="49.40369" lon="1.47927">
        <ele>90</ele>
        <time>2017-07-18T16:34:40Z</time>
      </trkpt>
      <trkpt lat="49.40368" lon="1.47919">
        <ele>90</ele>
        <time>2017-07-18T16:34:40Z</time>
      </trkpt>
      <trkpt lat="49.40365" lon="1.47912">
        <ele>90</ele>
        <time>2017-07-18T16:34:40Z</time>
      </trkpt>
      <trkpt lat="49.40363" lon="1.47905">
        <ele>90</ele>
        <time>2017-07-18T16:34:40Z</time>
      </trkpt>
      <trkpt lat="49.40361" lon="1.47897">
        <ele>90</ele>
        <time>2017-07-18T16:34:56Z</time>
      </trkpt>
      <trkpt lat="49.40359" lon="1.4789">
        <ele>90</ele>
        <time>2017-07-18T16:34:56Z</time>
      </trkpt>
      <trkpt lat="49.40357" lon="1.47882">
        <ele>90</ele>
        <time>2017-07-18T16:34:56Z</time>
      </trkpt>
      <trkpt lat="49.40365" lon="1.47877">
        <ele>90</ele>
        <time>2017-07-18T16:34:56Z</time>
      </trkpt>
      <trkpt lat="49.40371" lon="1.47873">
        <ele>93</ele>
        <time>2017-07-18T16:35:12Z</time>
      </trkpt>
      <trkpt lat="49.40373" lon="1.47865">
        <ele>93</ele>
        <time>2017-07-18T16:35:12Z</time>
      </trkpt>
      <trkpt lat="49.40374" lon="1.47857">
        <ele>93</ele>
        <time>2017-07-18T16:35:12Z</time>
      </trkpt>
      <trkpt lat="49.40371" lon="1.47849">
        <ele>93</ele>
        <time>2017-07-18T16:35:12Z</time>
      </trkpt>
      <trkpt lat="49.40369" lon="1.47842">
        <ele>93</ele>
        <time>2017-07-18T16:35:28Z</time>
      </trkpt>
      <trkpt lat="49.40367" lon="1.47835">
        <ele>93</ele>
        <time>2017-07-18T16:35:28Z</time>
      </trkpt>
      <trkpt lat="49.40365" lon="1.47828">
        <ele>93</ele>
        <time>2017-07-18T16:35:28Z</time>
      </trkpt>
      <trkpt lat="49.40363" lon="1.47822">
        <ele>93</ele>
        <time>2017-07-18T16:35:28Z</time>
      </trkpt>
      <trkpt lat="49.4036" lon="1.47815">
        <ele>93</ele>
        <time>2017-07-18T16:35:44Z</time>
      </trkpt>
      <trkpt lat="49.40358" lon="1.47808">
        <ele>93</ele>
        <time>2017-07-18T16:35:44Z</time>
      </trkpt>
      <trkpt lat="49.40359" lon="1.47799">
        <ele>93</ele>
        <time>2017-07-18T16:35:44Z</time>
      </trkpt>
      <trkpt lat="49.40362" lon="1.4779">
        <ele>95</ele>
        <time>2017-07-18T16:35:44Z</time>
      </trkpt>
      <trkpt lat="49.4036" lon="1.47788">
        <ele>95</ele>
        <time>2017-07-18T16:36:00Z</time>
      </trkpt>
      <trkpt lat="49.40359" lon="1.47786">
        <ele>95</ele>
        <time>2017-07-18T16:36:00Z</time>
      </trkpt>
      <trkpt lat="49.40362" lon="1.47781">
        <ele>95</ele>
        <time>2017-07-18T16:36:00Z</time>
      </trkpt>
      <trkpt lat="49.40367" lon="1.47774">
        <ele>95</ele>
        <time>2017-07-18T16:36:00Z</time>
      </trkpt>
      <trkpt lat="49.40371" lon="1.4777">
        <ele>95</ele>
        <time>2017-07-18T16:36:16Z</time>
      </trkpt>
      <trkpt lat="49.4037" lon="1.47764">
        <ele>95</ele>
        <time>2017-07-18T16:36:16Z</time>
      </trkpt>
      <trkpt lat="49.40368" lon="1.47758">
        <ele>95</ele>
        <time>2017-07-18T16:36:16Z</time>
      </trkpt>
      <trkpt lat="49.40364" lon="1.47752">
        <ele>95</ele>
        <time>2017-07-18T16:36:16Z</time>
      </trkpt>
      <trkpt lat="49.40359" lon="1.47747">
        <ele>95</ele>
        <time>2017-07-18T16:36:32Z</time>
      </trkpt>
      <trkpt lat="49.40355" lon="1.47742">
        <ele>95</ele>
        <time>2017-07-18T16:36:32Z</time>
      </trkpt>
      <trkpt lat="49.40352" lon="1.47737">
        <ele>95</ele>
        <time>2017-07-18T16:36:32Z</time>
      </trkpt>
      <trkpt lat="49.40349" lon="1.47731">
        <ele>95</ele>
        <time>2017-07-18T16:36:32Z</time>
      </trkpt>
      <trkpt lat="49.40346" lon="1.47726">
        <ele>95</ele>
        <time>2017-07-18T16:36:48Z</time>
      </trkpt>
      <trkpt lat="49.40343" lon="1.4772">
        <ele>95</ele>
        <time>2017-07-18T16:36:48Z</time>
      </trkpt>
      <trkpt lat="49.4034" lon="1.47715">
        <ele>95</ele>
        <time>2017-07-18T16:36:48Z</time>
      </trkpt>
      <trkpt lat="49.40337" lon="1.47707">
        <ele>100</ele>
        <time>2017-07-18T16:36:48Z</time>
      </trkpt>
      <trkpt lat="49.40335" lon="1.47699">
        <ele>100</ele>
        <time>2017-07-18T16:37:04Z</time>
      </trkpt>
      <trkpt lat="49.40335" lon="1.47691">
        <ele>100</ele>
        <time>2017-07-18T16:37:04Z</time>
      </trkpt>
      <trkpt lat="49.40334" lon="1.47685">
        <ele>100</ele>
        <time>2017-07-18T16:37:04Z</time>
      </trkpt>
      <trkpt lat="49.40332" lon="1.47677">
        <ele>100</ele>
        <time>2017-07-18T16:37:04Z</time>
      </trkpt>
      <trkpt lat="49.40331" lon="1.47672">
        <ele>100</ele>
        <time>2017-07-18T16:37:20Z</time>
      </trkpt>
      <trkpt lat="49.40329" lon="1.47665">
        <ele>100</ele>
        <time>2017-07-18T16:37:20Z</time>
      </trkpt>
      <trkpt lat="49.40327" lon="1.47658">
        <ele>100</ele>
        <time>2017-07-18T16:37:20Z</time>
      </trkpt>
      <trkpt lat="49.40324" lon="1.47652">
        <ele>100</ele>
        <time>2017-07-18T16:37:20Z</time>
      </trkpt>
      <trkpt lat="49.40322" lon="1.47645">
        <ele>100</ele>
        <time>2017-07-18T16:37:36Z</time>
      </trkpt>
      <trkpt lat="49.4032" lon="1.47638">
        <ele>100</ele>
        <time>2017-07-18T16:37:36Z</time>
      </trkpt>
      <trkpt lat="49.40319" lon="1.47631">
        <ele>100</ele>
        <time>2017-07-18T16:37:36Z</time>
      </trkpt>
      <trkpt lat="49.40319" lon="1.47623">
        <ele>106</ele>
        <time>2017-07-18T16:37:36Z</time>
      </trkpt>
      <trkpt lat="49.40318" lon="1.47616">
        <ele>106</ele>
        <time>2017-07-18T16:37:52Z</time>
      </trkpt>
      <trkpt lat="49.40316" lon="1.47609">
        <ele>106</ele>
        <time>2017-07-18T16:37:52Z</time>
      </trkpt>
      <trkpt lat="49.40314" lon="1.47602">
        <ele>106</ele>
        <time>2017-07-18T16:37:52Z</time>
      </trkpt>
      <trkpt lat="49.40312" lon="1.47596">
        <ele>106</ele>
        <time>2017-07-18T16:37:52Z</time>
      </trkpt>
      <trkpt lat="49.40309" lon="1.47589">
        <ele>106</ele>
        <time>2017-07-18T16:38:08Z</time>
      </trkpt>
      <trkpt lat="49.40307" lon="1.47582">
        <ele>106</ele>
        <time>2017-07-18T16:38:08Z</time>
      </trkpt>
      <trkpt lat="49.40303" lon="1.47577">
        <ele>106</ele>
        <time>2017-07-18T16:38:08Z</time>
      </trkpt>
      <trkpt lat="49.40299" lon="1.47573">
        <ele>106</ele>
        <time>2017-07-18T16:38:08Z</time>
      </trkpt>
      <trkpt lat="49.40302" lon="1.47564">
        <ele>106</ele>
        <time>2017-07-18T16:39:52Z</time>
      </trkpt>
      <trkpt lat="49.40302" lon="1.47564">
        <ele>106</ele>
        <time>2017-07-18T16:39:52Z</time>
      </trkpt>
      <trkpt lat="49.40302" lon="1.47564">
        <ele>106</ele>
        <time>2017-07-18T16:39:52Z</time>
      </trkpt>
      <trkpt lat="49.40302" lon="1.47564">
        <ele>106</ele>
        <time>2017-07-18T16:39:52Z</time>
      </trkpt>
      <trkpt lat="49.40286" lon="1.47536">
        <ele>93</ele>
        <time>2017-07-18T16:39:52Z</time>
      </trkpt>
      <trkpt lat="49.40283" lon="1.4753">
        <ele>93</ele>
        <time>2017-07-18T16:40:08Z</time>
      </trkpt>
      <trkpt lat="49.40279" lon="1.47525">
        <ele>93</ele>
        <time>2017-07-18T16:40:08Z</time>
      </trkpt>
      <trkpt lat="49.40276" lon="1.47519">
        <ele>93</ele>
        <time>2017-07-18T16:40:08Z</time>
      </trkpt>
      <trkpt lat="49.40273" lon="1.47513">
        <ele>93</ele>
        <time>2017-07-18T16:40:08Z</time>
      </trkpt>
      <trkpt lat="49.4027" lon="1.47507">
        <ele>93</ele>
        <time>2017-07-18T16:40:24Z</time>
      </trkpt>
      <trkpt lat="49.40266" lon="1.47502">
        <ele>93</ele>
        <time>2017-07-18T16:40:24Z</time>
      </trkpt>
      <trkpt lat="49.40263" lon="1.47496">
        <ele>93</ele>
        <time>2017-07-18T16:40:24Z</time>
      </trkpt>
      <trkpt lat="49.4026" lon="1.47491">
        <ele>93</ele>
        <time>2017-07-18T16:40:24Z</time>
      </trkpt>
      <trkpt lat="49.40257" lon="1.47485">
        <ele>93</ele>
        <time>2017-07-18T16:40:40Z</time>
      </trkpt>
      <trkpt lat="49.40253" lon="1.47478">
        <ele>93</ele>
        <time>2017-07-18T16:40:40Z</time>
      </trkpt>
      <trkpt lat="49.40249" lon="1.47474">
        <ele>93</ele>
        <time>2017-07-18T16:40:40Z</time>
      </trkpt>
      <trkpt lat="49.40245" lon="1.4747">
        <ele>93</ele>
        <time>2017-07-18T16:40:40Z</time>
      </trkpt>
      <trkpt lat="49.40242" lon="1.47465">
        <ele>93</ele>
        <time>2017-07-18T16:40:56Z</time>
      </trkpt>
      <trkpt lat="49.40238" lon="1.4746">
        <ele>93</ele>
        <time>2017-07-18T16:40:56Z</time>
      </trkpt>
      <trkpt lat="49.40235" lon="1.47454">
        <ele>102</ele>
        <time>2017-07-18T16:40:56Z</time>
      </trkpt>
      <trkpt lat="49.40232" lon="1.47448">
        <ele>102</ele>
        <time>2017-07-18T16:40:56Z</time>
      </trkpt>
      <trkpt lat="49.40229" lon="1.47442">
        <ele>102</ele>
        <time>2017-07-18T16:41:12Z</time>
      </trkpt>
      <trkpt lat="49.40225" lon="1.47437">
        <ele>102</ele>
        <time>2017-07-18T16:41:12Z</time>
      </trkpt>
      <trkpt lat="49.40222" lon="1.47432">
        <ele>102</ele>
        <time>2017-07-18T16:41:12Z</time>
      </trkpt>
      <trkpt lat="49.40219" lon="1.47427">
        <ele>102</ele>
        <time>2017-07-18T16:41:12Z</time>
      </trkpt>
      <trkpt lat="49.40215" lon="1.47422">
        <ele>102</ele>
        <time>2017-07-18T16:41:48Z</time>
      </trkpt>
      <trkpt lat="49.40212" lon="1.47417">
        <ele>102</ele>
        <time>2017-07-18T16:41:48Z</time>
      </trkpt>
      <trkpt lat="49.40208" lon="1.47412">
        <ele>86</ele>
        <time>2017-07-18T16:41:48Z</time>
      </trkpt>
      <trkpt lat="49.4019" lon="1.47381">
        <ele>86</ele>
        <time>2017-07-18T16:41:48Z</time>
      </trkpt>
      <trkpt lat="49.40187" lon="1.47375">
        <ele>91</ele>
        <time>2017-07-18T16:42:04Z</time>
      </trkpt>
      <trkpt lat="49.40184" lon="1.4737">
        <ele>91</ele>
        <time>2017-07-18T16:42:04Z</time>
      </trkpt>
      <trkpt lat="49.4018" lon="1.47366">
        <ele>91</ele>
        <time>2017-07-18T16:42:04Z</time>
      </trkpt>
      <trkpt lat="49.40176" lon="1.47361">
        <ele>91</ele>
        <time>2017-07-18T16:42:04Z</time>
      </trkpt>
      <trkpt lat="49.40172" lon="1.47356">
        <ele>91</ele>
        <time>2017-07-18T16:42:20Z</time>
      </trkpt>
      <trkpt lat="49.40168" lon="1.47352">
        <ele>91</ele>
        <time>2017-07-18T16:42:20Z</time>
      </trkpt>
      <trkpt lat="49.40164" lon="1.47348">
        <ele>91</ele>
        <time>2017-07-18T16:42:20Z</time>
      </trkpt>
      <trkpt lat="49.4016" lon="1.47343">
        <ele>91</ele>
        <time>2017-07-18T16:42:20Z</time>
      </trkpt>
      <trkpt lat="49.40156" lon="1.47338">
        <ele>91</ele>
        <time>2017-07-18T16:42:36Z</time>
      </trkpt>
      <trkpt lat="49.40152" lon="1.47332">
        <ele>91</ele>
        <time>2017-07-18T16:42:36Z</time>
      </trkpt>
      <trkpt lat="49.40148" lon="1.47328">
        <ele>91</ele>
        <time>2017-07-18T16:42:36Z</time>
      </trkpt>
      <trkpt lat="49.40144" lon="1.47325">
        <ele>91</ele>
        <time>2017-07-18T16:42:36Z</time>
      </trkpt>
      <trkpt lat="49.40087" lon="1.47334">
        <ele>87</ele>
        <time>2017-07-18T16:44:56Z</time>
      </trkpt>
      <trkpt lat="49.40084" lon="1.47338">
        <ele>87</ele>
        <time>2017-07-18T16:44:56Z</time>
      </trkpt>
      <trkpt lat="49.4007" lon="1.47333">
        <ele>87</ele>
        <time>2017-07-18T16:44:56Z</time>
      </trkpt>
      <trkpt lat="49.40064" lon="1.47334">
        <ele>87</ele>
        <time>2017-07-18T16:44:56Z</time>
      </trkpt>
      <trkpt lat="49.40059" lon="1.47331">
        <ele>87</ele>
        <time>2017-07-18T16:44:56Z</time>
      </trkpt>
      <trkpt lat="49.40053" lon="1.47331">
        <ele>87</ele>
        <time>2017-07-18T16:45:12Z</time>
      </trkpt>
      <trkpt lat="49.40048" lon="1.47332">
        <ele>87</ele>
        <time>2017-07-18T16:45:12Z</time>
      </trkpt>
      <trkpt lat="49.40043" lon="1.47334">
        <ele>87</ele>
        <time>2017-07-18T16:45:12Z</time>
      </trkpt>
      <trkpt lat="49.40034" lon="1.47336">
        <ele>87</ele>
        <time>2017-07-18T16:45:12Z</time>
      </trkpt>
      <trkpt lat="49.40028" lon="1.47337">
        <ele>87</ele>
        <time>2017-07-18T16:45:28Z</time>
      </trkpt>
      <trkpt lat="49.40024" lon="1.47338">
        <ele>87</ele>
        <time>2017-07-18T16:45:28Z</time>
      </trkpt>
      <trkpt lat="49.40019" lon="1.47338">
        <ele>87</ele>
        <time>2017-07-18T16:45:28Z</time>
      </trkpt>
      <trkpt lat="49.40014" lon="1.47338">
        <ele>87</ele>
        <time>2017-07-18T16:45:28Z</time>
      </trkpt>
      <trkpt lat="49.40008" lon="1.4734">
        <ele>87</ele>
        <time>2017-07-18T16:45:44Z</time>
      </trkpt>
      <trkpt lat="49.40004" lon="1.47343">
        <ele>87</ele>
        <time>2017-07-18T16:45:44Z</time>
      </trkpt>
      <trkpt lat="49.4" lon="1.47344">
        <ele>87</ele>
        <time>2017-07-18T16:45:44Z</time>
      </trkpt>
      <trkpt lat="49.39997" lon="1.47347">
        <ele>87</ele>
        <time>2017-07-18T16:45:44Z</time>
      </trkpt>
      <trkpt lat="49.39999" lon="1.47349">
        <ele>87</ele>
        <time>2017-07-18T16:46:24Z</time>
      </trkpt>
      <trkpt lat="49.39999" lon="1.47349">
        <ele>87</ele>
        <time>2017-07-18T16:46:24Z</time>
      </trkpt>
      <trkpt lat="49.39999" lon="1.47349">
        <ele>87</ele>
        <time>2017-07-18T16:46:24Z</time>
      </trkpt>
      <trkpt lat="49.40005" lon="1.47351">
        <ele>87</ele>
        <time>2017-07-18T16:46:24Z</time>
      </trkpt>
      <trkpt lat="49.4001" lon="1.47351">
        <ele>87</ele>
        <time>2017-07-18T16:46:24Z</time>
      </trkpt>
      <trkpt lat="49.4001" lon="1.47349">
        <ele>87</ele>
        <time>2017-07-18T16:47:16Z</time>
      </trkpt>
      <trkpt lat="49.39952" lon="1.47349">
        <ele>93</ele>
        <time>2017-07-18T16:47:16Z</time>
      </trkpt>
      <trkpt lat="49.39947" lon="1.47348">
        <ele>93</ele>
        <time>2017-07-18T16:47:16Z</time>
      </trkpt>
      <trkpt lat="49.39941" lon="1.47345">
        <ele>93</ele>
        <time>2017-07-18T16:47:16Z</time>
      </trkpt>
      <trkpt lat="49.39934" lon="1.47343">
        <ele>93</ele>
        <time>2017-07-18T16:47:16Z</time>
      </trkpt>
      <trkpt lat="49.39929" lon="1.47341">
        <ele>93</ele>
        <time>2017-07-18T16:47:32Z</time>
      </trkpt>
      <trkpt lat="49.39924" lon="1.47338">
        <ele>93</ele>
        <time>2017-07-18T16:47:32Z</time>
      </trkpt>
      <trkpt lat="49.39919" lon="1.47337">
        <ele>93</ele>
        <time>2017-07-18T16:47:32Z</time>
      </trkpt>
      <trkpt lat="49.39915" lon="1.47334">
        <ele>93</ele>
        <time>2017-07-18T16:47:32Z</time>
      </trkpt>
      <trkpt lat="49.39911" lon="1.4733">
        <ele>93</ele>
        <time>2017-07-18T16:47:48Z</time>
      </trkpt>
      <trkpt lat="49.39908" lon="1.47325">
        <ele>93</ele>
        <time>2017-07-18T16:47:48Z</time>
      </trkpt>
      <trkpt lat="49.39905" lon="1.47319">
        <ele>93</ele>
        <time>2017-07-18T16:47:48Z</time>
      </trkpt>
      <trkpt lat="49.39902" lon="1.47313">
        <ele>93</ele>
        <time>2017-07-18T16:47:48Z</time>
      </trkpt>
      <trkpt lat="49.399" lon="1.47307">
        <ele>93</ele>
        <time>2017-07-18T16:48:04Z</time>
      </trkpt>
      <trkpt lat="49.39898" lon="1.47299">
        <ele>93</ele>
        <time>2017-07-18T16:48:04Z</time>
      </trkpt>
      <trkpt lat="49.39896" lon="1.4729">
        <ele>91</ele>
        <time>2017-07-18T16:48:04Z</time>
      </trkpt>
      <trkpt lat="49.39892" lon="1.47284">
        <ele>91</ele>
        <time>2017-07-18T16:48:04Z</time>
      </trkpt>
      <trkpt lat="49.3989" lon="1.47279">
        <ele>91</ele>
        <time>2017-07-18T16:48:20Z</time>
      </trkpt>
      <trkpt lat="49.39888" lon="1.47272">
        <ele>91</ele>
        <time>2017-07-18T16:48:20Z</time>
      </trkpt>
      <trkpt lat="49.39889" lon="1.47264">
        <ele>91</ele>
        <time>2017-07-18T16:48:20Z</time>
      </trkpt>
      <trkpt lat="49.39889" lon="1.47256">
        <ele>91</ele>
        <time>2017-07-18T16:48:20Z</time>
      </trkpt>
      <trkpt lat="49.39891" lon="1.47248">
        <ele>91</ele>
        <time>2017-07-18T16:48:36Z</time>
      </trkpt>
      <trkpt lat="49.39892" lon="1.47241">
        <ele>91</ele>
        <time>2017-07-18T16:48:36Z</time>
      </trkpt>
      <trkpt lat="49.39894" lon="1.47235">
        <ele>91</ele>
        <time>2017-07-18T16:48:36Z</time>
      </trkpt>
      <trkpt lat="49.39894" lon="1.47227">
        <ele>91</ele>
        <time>2017-07-18T16:48:36Z</time>
      </trkpt>
      <trkpt lat="49.39894" lon="1.47219">
        <ele>91</ele>
        <time>2017-07-18T16:48:52Z</time>
      </trkpt>
      <trkpt lat="49.39893" lon="1.47211">
        <ele>91</ele>
        <time>2017-07-18T16:48:52Z</time>
      </trkpt>
      <trkpt lat="49.39893" lon="1.47204">
        <ele>89</ele>
        <time>2017-07-18T16:48:52Z</time>
      </trkpt>
      <trkpt lat="49.39893" lon="1.47196">
        <ele>89</ele>
        <time>2017-07-18T16:48:52Z</time>
      </trkpt>
      <trkpt lat="49.39894" lon="1.47188">
        <ele>89</ele>
        <time>2017-07-18T16:49:08Z</time>
      </trkpt>
      <trkpt lat="49.39894" lon="1.47181">
        <ele>89</ele>
        <time>2017-07-18T16:49:08Z</time>
      </trkpt>
      <trkpt lat="49.39894" lon="1.47173">
        <ele>89</ele>
        <time>2017-07-18T16:49:08Z</time>
      </trkpt>
      <trkpt lat="49.39893" lon="1.47166">
        <ele>89</ele>
        <time>2017-07-18T16:49:08Z</time>
      </trkpt>
      <trkpt lat="49.39888" lon="1.47155">
        <ele>89</ele>
        <time>2017-07-18T16:50:52Z</time>
      </trkpt>
      <trkpt lat="49.39889" lon="1.47153">
        <ele>89</ele>
        <time>2017-07-18T16:50:52Z</time>
      </trkpt>
      <trkpt lat="49.39894" lon="1.47132">
        <ele>89</ele>
        <time>2017-07-18T16:50:52Z</time>
      </trkpt>
      <trkpt lat="49.39861" lon="1.47051">
        <ele>93</ele>
        <time>2017-07-18T16:50:52Z</time>
      </trkpt>
      <trkpt lat="49.39859" lon="1.47046">
        <ele>93</ele>
        <time>2017-07-18T16:50:52Z</time>
      </trkpt>
      <trkpt lat="49.39852" lon="1.47043">
        <ele>93</ele>
        <time>2017-07-18T16:51:08Z</time>
      </trkpt>
      <trkpt lat="49.39849" lon="1.47038">
        <ele>85</ele>
        <time>2017-07-18T16:51:08Z</time>
      </trkpt>
      <trkpt lat="49.39847" lon="1.47031">
        <ele>85</ele>
        <time>2017-07-18T16:51:08Z</time>
      </trkpt>
      <trkpt lat="49.39845" lon="1.47028">
        <ele>85</ele>
        <time>2017-07-18T16:51:08Z</time>
      </trkpt>
      <trkpt lat="49.39842" lon="1.4702">
        <ele>85</ele>
        <time>2017-07-18T16:51:24Z</time>
      </trkpt>
      <trkpt lat="49.39838" lon="1.47009">
        <ele>85</ele>
        <time>2017-07-18T16:51:24Z</time>
      </trkpt>
      <trkpt lat="49.39836" lon="1.47">
        <ele>85</ele>
        <time>2017-07-18T16:51:24Z</time>
      </trkpt>
      <trkpt lat="49.39831" lon="1.46993">
        <ele>85</ele>
        <time>2017-07-18T16:51:24Z</time>
      </trkpt>
      <trkpt lat="49.39827" lon="1.46984">
        <ele>85</ele>
        <time>2017-07-18T16:51:40Z</time>
      </trkpt>
      <trkpt lat="49.39824" lon="1.46976">
        <ele>85</ele>
        <time>2017-07-18T16:51:40Z</time>
      </trkpt>
      <trkpt lat="49.3982" lon="1.46969">
        <ele>85</ele>
        <time>2017-07-18T16:51:40Z</time>
      </trkpt>
      <trkpt lat="49.39817" lon="1.46962">
        <ele>85</ele>
        <time>2017-07-18T16:51:40Z</time>
      </trkpt>
      <trkpt lat="49.39817" lon="1.46953">
        <ele>82</ele>
        <time>2017-07-18T16:51:56Z</time>
      </trkpt>
      <trkpt lat="49.39819" lon="1.46943">
        <ele>82</ele>
        <time>2017-07-18T16:51:56Z</time>
      </trkpt>
      <trkpt lat="49.39821" lon="1.46939">
        <ele>82</ele>
        <time>2017-07-18T16:51:56Z</time>
      </trkpt>
      <trkpt lat="49.3982" lon="1.4693">
        <ele>82</ele>
        <time>2017-07-18T16:51:56Z</time>
      </trkpt>
      <trkpt lat="49.3982" lon="1.46922">
        <ele>82</ele>
        <time>2017-07-18T16:52:12Z</time>
      </trkpt>
      <trkpt lat="49.39817" lon="1.46914">
        <ele>82</ele>
        <time>2017-07-18T16:52:12Z</time>
      </trkpt>
      <trkpt lat="49.39815" lon="1.46905">
        <ele>82</ele>
        <time>2017-07-18T16:52:12Z</time>
      </trkpt>
      <trkpt lat="49.39812" lon="1.46897">
        <ele>82</ele>
        <time>2017-07-18T16:52:12Z</time>
      </trkpt>
      <trkpt lat="49.39811" lon="1.46888">
        <ele>82</ele>
        <time>2017-07-18T16:52:28Z</time>
      </trkpt>
      <trkpt lat="49.39811" lon="1.46882">
        <ele>82</ele>
        <time>2017-07-18T16:52:28Z</time>
      </trkpt>
      <trkpt lat="49.39809" lon="1.46875">
        <ele>82</ele>
        <time>2017-07-18T16:52:28Z</time>
      </trkpt>
      <trkpt lat="49.39808" lon="1.46863">
        <ele>82</ele>
        <time>2017-07-18T16:52:28Z</time>
      </trkpt>
      <trkpt lat="49.39808" lon="1.46856">
        <ele>82</ele>
        <time>2017-07-18T16:52:44Z</time>
      </trkpt>
      <trkpt lat="49.3981" lon="1.46847">
        <ele>82</ele>
        <time>2017-07-18T16:52:44Z</time>
      </trkpt>
      <trkpt lat="49.39811" lon="1.46839">
        <ele>82</ele>
        <time>2017-07-18T16:52:44Z</time>
      </trkpt>
      <trkpt lat="49.3981" lon="1.46832">
        <ele>82</ele>
        <time>2017-07-18T16:52:44Z</time>
      </trkpt>
      <trkpt lat="49.3981" lon="1.46826">
        <ele>82</ele>
        <time>2017-07-18T16:53:00Z</time>
      </trkpt>
      <trkpt lat="49.3981" lon="1.46819">
        <ele>82</ele>
        <time>2017-07-18T16:53:00Z</time>
      </trkpt>
      <trkpt lat="49.39812" lon="1.46809">
        <ele>82</ele>
        <time>2017-07-18T16:53:00Z</time>
      </trkpt>
      <trkpt lat="49.39815" lon="1.46802">
        <ele>82</ele>
        <time>2017-07-18T16:53:00Z</time>
      </trkpt>
      <trkpt lat="49.39816" lon="1.46796">
        <ele>82</ele>
        <time>2017-07-18T16:53:16Z</time>
      </trkpt>
      <trkpt lat="49.39816" lon="1.46788">
        <ele>82</ele>
        <time>2017-07-18T16:53:16Z</time>
      </trkpt>
      <trkpt lat="49.39818" lon="1.46781">
        <ele>82</ele>
        <time>2017-07-18T16:53:16Z</time>
      </trkpt>
      <trkpt lat="49.39819" lon="1.46773">
        <ele>82</ele>
        <time>2017-07-18T16:53:16Z</time>
      </trkpt>
      <trkpt lat="49.39822" lon="1.46765">
        <ele>82</ele>
        <time>2017-07-18T16:53:32Z</time>
      </trkpt>
      <trkpt lat="49.39822" lon="1.46758">
        <ele>82</ele>
        <time>2017-07-18T16:53:32Z</time>
      </trkpt>
      <trkpt lat="49.39822" lon="1.46751">
        <ele>82</ele>
        <time>2017-07-18T16:53:32Z</time>
      </trkpt>
      <trkpt lat="49.39824" lon="1.46742">
        <ele>82</ele>
        <time>2017-07-18T16:53:32Z</time>
      </trkpt>
      <trkpt lat="49.39821" lon="1.46734">
        <ele>82</ele>
        <time>2017-07-18T16:53:48Z</time>
      </trkpt>
      <trkpt lat="49.39819" lon="1.46726">
        <ele>82</ele>
        <time>2017-07-18T16:53:48Z</time>
      </trkpt>
      <trkpt lat="49.39819" lon="1.46718">
        <ele>82</ele>
        <time>2017-07-18T16:53:48Z</time>
      </trkpt>
      <trkpt lat="49.39816" lon="1.46713">
        <ele>82</ele>
        <time>2017-07-18T16:53:48Z</time>
      </trkpt>
      <trkpt lat="49.39816" lon="1.46709">
        <ele>82</ele>
        <time>2017-07-18T16:55:52Z</time>
      </trkpt>
      <trkpt lat="49.39816" lon="1.46703">
        <ele>82</ele>
        <time>2017-07-18T16:55:52Z</time>
      </trkpt>
      <trkpt lat="49.39817" lon="1.46695">
        <ele>82</ele>
        <time>2017-07-18T16:55:52Z</time>
      </trkpt>
      <trkpt lat="49.39816" lon="1.46687">
        <ele>82</ele>
        <time>2017-07-18T16:55:52Z</time>
      </trkpt>
      <trkpt lat="49.39814" lon="1.46679">
        <ele>82</ele>
        <time>2017-07-18T16:55:52Z</time>
      </trkpt>
      <trkpt lat="49.39812" lon="1.46672">
        <ele>82</ele>
        <time>2017-07-18T16:56:20Z</time>
      </trkpt>
      <trkpt lat="49.39809" lon="1.46665">
        <ele>82</ele>
        <time>2017-07-18T16:56:20Z</time>
      </trkpt>
      <trkpt lat="49.39807" lon="1.46659">
        <ele>82</ele>
        <time>2017-07-18T16:56:20Z</time>
      </trkpt>
      <trkpt lat="49.39796" lon="1.46634">
        <ele>82</ele>
        <time>2017-07-18T16:56:20Z</time>
      </trkpt>
      <trkpt lat="49.39793" lon="1.46628">
        <ele>82</ele>
        <time>2017-07-18T16:56:36Z</time>
      </trkpt>
      <trkpt lat="49.39791" lon="1.46618">
        <ele>80</ele>
        <time>2017-07-18T16:56:36Z</time>
      </trkpt>
      <trkpt lat="49.39789" lon="1.46609">
        <ele>80</ele>
        <time>2017-07-18T16:56:36Z</time>
      </trkpt>
      <trkpt lat="49.39788" lon="1.46602">
        <ele>80</ele>
        <time>2017-07-18T16:56:36Z</time>
      </trkpt>
      <trkpt lat="49.39784" lon="1.46593">
        <ele>80</ele>
        <time>2017-07-18T16:56:52Z</time>
      </trkpt>
      <trkpt lat="49.39782" lon="1.46587">
        <ele>80</ele>
        <time>2017-07-18T16:56:52Z</time>
      </trkpt>
      <trkpt lat="49.3978" lon="1.4658">
        <ele>80</ele>
        <time>2017-07-18T16:56:52Z</time>
      </trkpt>
      <trkpt lat="49.39779" lon="1.46571">
        <ele>80</ele>
        <time>2017-07-18T16:56:52Z</time>
      </trkpt>
      <trkpt lat="49.39778" lon="1.46564">
        <ele>80</ele>
        <time>2017-07-18T16:57:08Z</time>
      </trkpt>
      <trkpt lat="49.39776" lon="1.46556">
        <ele>80</ele>
        <time>2017-07-18T16:57:08Z</time>
      </trkpt>
      <trkpt lat="49.39774" lon="1.4655">
        <ele>80</ele>
        <time>2017-07-18T16:57:08Z</time>
      </trkpt>
      <trkpt lat="49.39771" lon="1.46543">
        <ele>80</ele>
        <time>2017-07-18T16:57:08Z</time>
      </trkpt>
      <trkpt lat="49.39769" lon="1.46536">
        <ele>81</ele>
        <time>2017-07-18T16:57:24Z</time>
      </trkpt>
      <trkpt lat="49.39772" lon="1.46533">
        <ele>81</ele>
        <time>2017-07-18T16:57:24Z</time>
      </trkpt>
      <trkpt lat="49.39771" lon="1.46529">
        <ele>81</ele>
        <time>2017-07-18T16:57:24Z</time>
      </trkpt>
      <trkpt lat="49.39769" lon="1.46522">
        <ele>81</ele>
        <time>2017-07-18T16:57:24Z</time>
      </trkpt>
      <trkpt lat="49.39766" lon="1.46516">
        <ele>81</ele>
        <time>2017-07-18T16:57:40Z</time>
      </trkpt>
      <trkpt lat="49.39763" lon="1.46509">
        <ele>81</ele>
        <time>2017-07-18T16:57:40Z</time>
      </trkpt>
      <trkpt lat="49.3976" lon="1.46503">
        <ele>81</ele>
        <time>2017-07-18T16:57:40Z</time>
      </trkpt>
      <trkpt lat="49.39757" lon="1.46497">
        <ele>81</ele>
        <time>2017-07-18T16:57:40Z</time>
      </trkpt>
      <trkpt lat="49.39755" lon="1.4649">
        <ele>81</ele>
        <time>2017-07-18T16:57:56Z</time>
      </trkpt>
      <trkpt lat="49.39753" lon="1.46483">
        <ele>81</ele>
        <time>2017-07-18T16:57:56Z</time>
      </trkpt>
      <trkpt lat="49.39751" lon="1.46476">
        <ele>81</ele>
        <time>2017-07-18T16:57:56Z</time>
      </trkpt>
      <trkpt lat="49.3975" lon="1.46469">
        <ele>81</ele>
        <time>2017-07-18T16:57:56Z</time>
      </trkpt>
      <trkpt lat="49.39749" lon="1.46462">
        <ele>81</ele>
        <time>2017-07-18T16:58:12Z</time>
      </trkpt>
      <trkpt lat="49.39746" lon="1.46453">
        <ele>84</ele>
        <time>2017-07-18T16:58:12Z</time>
      </trkpt>
      <trkpt lat="49.39745" lon="1.46447">
        <ele>84</ele>
        <time>2017-07-18T16:58:12Z</time>
      </trkpt>
      <trkpt lat="49.39743" lon="1.46438">
        <ele>84</ele>
        <time>2017-07-18T16:58:12Z</time>
      </trkpt>
      <trkpt lat="49.39742" lon="1.46433">
        <ele>84</ele>
        <time>2017-07-18T16:58:28Z</time>
      </trkpt>
      <trkpt lat="49.3974" lon="1.46426">
        <ele>84</ele>
        <time>2017-07-18T16:58:28Z</time>
      </trkpt>
      <trkpt lat="49.39738" lon="1.46419">
        <ele>84</ele>
        <time>2017-07-18T16:58:28Z</time>
      </trkpt>
      <trkpt lat="49.39736" lon="1.46413">
        <ele>84</ele>
        <time>2017-07-18T16:58:28Z</time>
      </trkpt>
      <trkpt lat="49.39732" lon="1.46407">
        <ele>84</ele>
        <time>2017-07-18T16:58:44Z</time>
      </trkpt>
      <trkpt lat="49.3973" lon="1.46401">
        <ele>84</ele>
        <time>2017-07-18T16:58:44Z</time>
      </trkpt>
      <trkpt lat="49.39727" lon="1.46393">
        <ele>84</ele>
        <time>2017-07-18T16:58:44Z</time>
      </trkpt>
      <trkpt lat="49.39723" lon="1.46385">
        <ele>84</ele>
        <time>2017-07-18T16:58:44Z</time>
      </trkpt>
      <trkpt lat="49.39721" lon="1.46382">
        <ele>84</ele>
        <time>2017-07-18T16:59:00Z</time>
      </trkpt>
      <trkpt lat="49.39718" lon="1.46376">
        <ele>84</ele>
        <time>2017-07-18T16:59:00Z</time>
      </trkpt>
      <trkpt lat="49.39714" lon="1.46372">
        <ele>93</ele>
        <time>2017-07-18T16:59:00Z</time>
      </trkpt>
      <trkpt lat="49.39709" lon="1.46368">
        <ele>93</ele>
        <time>2017-07-18T16:59:00Z</time>
      </trkpt>
      <trkpt lat="49.39706" lon="1.46364">
        <ele>83</ele>
        <time>2017-07-18T16:59:16Z</time>
      </trkpt>
      <trkpt lat="49.39701" lon="1.46359">
        <ele>83</ele>
        <time>2017-07-18T16:59:16Z</time>
      </trkpt>
      <trkpt lat="49.39697" lon="1.46354">
        <ele>83</ele>
        <time>2017-07-18T16:59:16Z</time>
      </trkpt>
      <trkpt lat="49.39694" lon="1.46349">
        <ele>83</ele>
        <time>2017-07-18T16:59:16Z</time>
      </trkpt>
      <trkpt lat="49.3969" lon="1.46344">
        <ele>83</ele>
        <time>2017-07-18T16:59:32Z</time>
      </trkpt>
      <trkpt lat="49.39685" lon="1.46342">
        <ele>83</ele>
        <time>2017-07-18T16:59:32Z</time>
      </trkpt>
      <trkpt lat="49.39682" lon="1.4634">
        <ele>83</ele>
        <time>2017-07-18T16:59:32Z</time>
      </trkpt>
      <trkpt lat="49.39677" lon="1.46336">
        <ele>83</ele>
        <time>2017-07-18T16:59:32Z</time>
      </trkpt>
      <trkpt lat="49.39673" lon="1.46332">
        <ele>83</ele>
        <time>2017-07-18T16:59:48Z</time>
      </trkpt>
      <trkpt lat="49.39668" lon="1.46326">
        <ele>83</ele>
        <time>2017-07-18T16:59:48Z</time>
      </trkpt>
      <trkpt lat="49.39663" lon="1.46319">
        <ele>83</ele>
        <time>2017-07-18T16:59:48Z</time>
      </trkpt>
      <trkpt lat="49.39657" lon="1.46312">
        <ele>83</ele>
        <time>2017-07-18T16:59:48Z</time>
      </trkpt>
      <trkpt lat="49.39654" lon="1.46308">
        <ele>83</ele>
        <time>2017-07-18T17:00:04Z</time>
      </trkpt>
      <trkpt lat="49.39649" lon="1.46304">
        <ele>83</ele>
        <time>2017-07-18T17:00:04Z</time>
      </trkpt>
      <trkpt lat="49.39645" lon="1.46299">
        <ele>83</ele>
        <time>2017-07-18T17:00:04Z</time>
      </trkpt>
      <trkpt lat="49.3964" lon="1.46296">
        <ele>83</ele>
        <time>2017-07-18T17:00:04Z</time>
      </trkpt>
      <trkpt lat="49.39635" lon="1.46293">
        <ele>83</ele>
        <time>2017-07-18T17:00:20Z</time>
      </trkpt>
      <trkpt lat="49.39635" lon="1.46288">
        <ele>89</ele>
        <time>2017-07-18T17:00:20Z</time>
      </trkpt>
      <trkpt lat="49.39637" lon="1.46281">
        <ele>89</ele>
        <time>2017-07-18T17:00:20Z</time>
      </trkpt>
      <trkpt lat="49.39638" lon="1.46273">
        <ele>89</ele>
        <time>2017-07-18T17:00:20Z</time>
      </trkpt>
      <trkpt lat="49.39638" lon="1.46266">
        <ele>89</ele>
        <time>2017-07-18T17:01:36Z</time>
      </trkpt>
      <trkpt lat="49.39638" lon="1.46258">
        <ele>89</ele>
        <time>2017-07-18T17:01:36Z</time>
      </trkpt>
      <trkpt lat="49.3957" lon="1.46191">
        <ele>90</ele>
        <time>2017-07-18T17:01:36Z</time>
      </trkpt>
      <trkpt lat="49.39564" lon="1.46192">
        <ele>90</ele>
        <time>2017-07-18T17:01:36Z</time>
      </trkpt>
      <trkpt lat="49.39562" lon="1.4619">
        <ele>90</ele>
        <time>2017-07-18T17:02:36Z</time>
      </trkpt>
      <trkpt lat="49.39559" lon="1.46188">
        <ele>90</ele>
        <time>2017-07-18T17:02:36Z</time>
      </trkpt>
      <trkpt lat="49.39555" lon="1.46188">
        <ele>90</ele>
        <time>2017-07-18T17:02:36Z</time>
      </trkpt>
      <trkpt lat="49.3955" lon="1.46181">
        <ele>90</ele>
        <time>2017-07-18T17:02:36Z</time>
      </trkpt>
      <trkpt lat="49.39547" lon="1.46174">
        <ele>90</ele>
        <time>2017-07-18T17:02:36Z</time>
      </trkpt>
      <trkpt lat="49.39545" lon="1.46166">
        <ele>90</ele>
        <time>2017-07-18T17:02:52Z</time>
      </trkpt>
      <trkpt lat="49.39543" lon="1.46158">
        <ele>90</ele>
        <time>2017-07-18T17:02:52Z</time>
      </trkpt>
      <trkpt lat="49.39541" lon="1.46151">
        <ele>78</ele>
        <time>2017-07-18T17:02:52Z</time>
      </trkpt>
      <trkpt lat="49.39538" lon="1.46145">
        <ele>78</ele>
        <time>2017-07-18T17:02:52Z</time>
      </trkpt>
      <trkpt lat="49.39535" lon="1.46139">
        <ele>78</ele>
        <time>2017-07-18T17:03:08Z</time>
      </trkpt>
      <trkpt lat="49.39533" lon="1.46131">
        <ele>78</ele>
        <time>2017-07-18T17:03:08Z</time>
      </trkpt>
      <trkpt lat="49.39531" lon="1.46125">
        <ele>80</ele>
        <time>2017-07-18T17:03:08Z</time>
      </trkpt>
      <trkpt lat="49.39527" lon="1.46119">
        <ele>80</ele>
        <time>2017-07-18T17:03:08Z</time>
      </trkpt>
      <trkpt lat="49.39525" lon="1.46113">
        <ele>80</ele>
        <time>2017-07-18T17:03:24Z</time>
      </trkpt>
      <trkpt lat="49.39523" lon="1.46106">
        <ele>80</ele>
        <time>2017-07-18T17:03:24Z</time>
      </trkpt>
      <trkpt lat="49.39521" lon="1.46099">
        <ele>80</ele>
        <time>2017-07-18T17:03:24Z</time>
      </trkpt>
      <trkpt lat="49.39519" lon="1.46092">
        <ele>80</ele>
        <time>2017-07-18T17:03:24Z</time>
      </trkpt>
      <trkpt lat="49.39517" lon="1.46085">
        <ele>80</ele>
        <time>2017-07-18T17:03:40Z</time>
      </trkpt>
      <trkpt lat="49.39516" lon="1.46077">
        <ele>80</ele>
        <time>2017-07-18T17:03:40Z</time>
      </trkpt>
      <trkpt lat="49.39516" lon="1.4607">
        <ele>80</ele>
        <time>2017-07-18T17:03:40Z</time>
      </trkpt>
      <trkpt lat="49.39515" lon="1.4606">
        <ele>80</ele>
        <time>2017-07-18T17:03:40Z</time>
      </trkpt>
      <trkpt lat="49.39515" lon="1.46054">
        <ele>80</ele>
        <time>2017-07-18T17:03:56Z</time>
      </trkpt>
      <trkpt lat="49.39513" lon="1.46048">
        <ele>80</ele>
        <time>2017-07-18T17:03:56Z</time>
      </trkpt>
      <trkpt lat="49.39512" lon="1.46041">
        <ele>83</ele>
        <time>2017-07-18T17:03:56Z</time>
      </trkpt>
      <trkpt lat="49.3951" lon="1.46034">
        <ele>83</ele>
        <time>2017-07-18T17:03:56Z</time>
      </trkpt>
      <trkpt lat="49.39509" lon="1.46027">
        <ele>83</ele>
        <time>2017-07-18T17:04:12Z</time>
      </trkpt>
      <trkpt lat="49.39508" lon="1.46017">
        <ele>83</ele>
        <time>2017-07-18T17:04:12Z</time>
      </trkpt>
      <trkpt lat="49.39507" lon="1.4601">
        <ele>83</ele>
        <time>2017-07-18T17:04:12Z</time>
      </trkpt>
      <trkpt lat="49.39506" lon="1.46005">
        <ele>83</ele>
        <time>2017-07-18T17:04:12Z</time>
      </trkpt>
      <trkpt lat="49.39505" lon="1.45997">
        <ele>83</ele>
        <time>2017-07-18T17:04:28Z</time>
      </trkpt>
      <trkpt lat="49.39504" lon="1.4599">
        <ele>83</ele>
        <time>2017-07-18T17:04:28Z</time>
      </trkpt>
      <trkpt lat="49.39503" lon="1.45983">
        <ele>83</ele>
        <time>2017-07-18T17:04:28Z</time>
      </trkpt>
      <trkpt lat="49.39502" lon="1.45975">
        <ele>83</ele>
        <time>2017-07-18T17:04:28Z</time>
      </trkpt>
      <trkpt lat="49.395" lon="1.45968">
        <ele>83</ele>
        <time>2017-07-18T17:04:44Z</time>
      </trkpt>
      <trkpt lat="49.39501" lon="1.45962">
        <ele>83</ele>
        <time>2017-07-18T17:04:44Z</time>
      </trkpt>
      <trkpt lat="49.39501" lon="1.45956">
        <ele>84</ele>
        <time>2017-07-18T17:04:44Z</time>
      </trkpt>
      <trkpt lat="49.39502" lon="1.45948">
        <ele>84</ele>
        <time>2017-07-18T17:04:44Z</time>
      </trkpt>
      <trkpt lat="49.39501" lon="1.45943">
        <ele>84</ele>
        <time>2017-07-18T17:05:00Z</time>
      </trkpt>
      <trkpt lat="49.39499" lon="1.45936">
        <ele>84</ele>
        <time>2017-07-18T17:05:00Z</time>
      </trkpt>
      <trkpt lat="49.39498" lon="1.45929">
        <ele>84</ele>
        <time>2017-07-18T17:05:00Z</time>
      </trkpt>
      <trkpt lat="49.39496" lon="1.45922">
        <ele>84</ele>
        <time>2017-07-18T17:05:00Z</time>
      </trkpt>
      <trkpt lat="49.39495" lon="1.45915">
        <ele>84</ele>
        <time>2017-07-18T17:05:16Z</time>
      </trkpt>
      <trkpt lat="49.39493" lon="1.45908">
        <ele>84</ele>
        <time>2017-07-18T17:05:16Z</time>
      </trkpt>
      <trkpt lat="49.39491" lon="1.45901">
        <ele>84</ele>
        <time>2017-07-18T17:05:16Z</time>
      </trkpt>
      <trkpt lat="49.3949" lon="1.45894">
        <ele>84</ele>
        <time>2017-07-18T17:05:16Z</time>
      </trkpt>
      <trkpt lat="49.39487" lon="1.45887">
        <ele>84</ele>
        <time>2017-07-18T17:05:32Z</time>
      </trkpt>
      <trkpt lat="49.39485" lon="1.4588">
        <ele>84</ele>
        <time>2017-07-18T17:05:32Z</time>
      </trkpt>
      <trkpt lat="49.39483" lon="1.45874">
        <ele>85</ele>
        <time>2017-07-18T17:05:32Z</time>
      </trkpt>
      <trkpt lat="49.39481" lon="1.45867">
        <ele>85</ele>
        <time>2017-07-18T17:05:32Z</time>
      </trkpt>
      <trkpt lat="49.39479" lon="1.4586">
        <ele>85</ele>
        <time>2017-07-18T17:05:48Z</time>
      </trkpt>
      <trkpt lat="49.39477" lon="1.45854">
        <ele>85</ele>
        <time>2017-07-18T17:05:48Z</time>
      </trkpt>
      <trkpt lat="49.39474" lon="1.45847">
        <ele>85</ele>
        <time>2017-07-18T17:05:48Z</time>
      </trkpt>
      <trkpt lat="49.39472" lon="1.4584">
        <ele>85</ele>
        <time>2017-07-18T17:05:48Z</time>
      </trkpt>
      <trkpt lat="49.39472" lon="1.45831">
        <ele>85</ele>
        <time>2017-07-18T17:06:04Z</time>
      </trkpt>
      <trkpt lat="49.3947" lon="1.45824">
        <ele>85</ele>
        <time>2017-07-18T17:06:04Z</time>
      </trkpt>
      <trkpt lat="49.3947" lon="1.45817">
        <ele>85</ele>
        <time>2017-07-18T17:06:04Z</time>
      </trkpt>
      <trkpt lat="49.39468" lon="1.45809">
        <ele>85</ele>
        <time>2017-07-18T17:06:04Z</time>
      </trkpt>
      <trkpt lat="49.39466" lon="1.45803">
        <ele>85</ele>
        <time>2017-07-18T17:06:20Z</time>
      </trkpt>
      <trkpt lat="49.39463" lon="1.45796">
        <ele>85</ele>
        <time>2017-07-18T17:06:20Z</time>
      </trkpt>
      <trkpt lat="49.39461" lon="1.4579">
        <ele>89</ele>
        <time>2017-07-18T17:06:20Z</time>
      </trkpt>
      <trkpt lat="49.39459" lon="1.45783">
        <ele>89</ele>
        <time>2017-07-18T17:06:20Z</time>
      </trkpt>
      <trkpt lat="49.39453" lon="1.45764">
        <ele>76</ele>
        <time>2017-07-18T17:06:56Z</time>
      </trkpt>
      <trkpt lat="49.39454" lon="1.45762">
        <ele>76</ele>
        <time>2017-07-18T17:06:56Z</time>
      </trkpt>
      <trkpt lat="49.39454" lon="1.45761">
        <ele>76</ele>
        <time>2017-07-18T17:06:56Z</time>
      </trkpt>
      <trkpt lat="49.39454" lon="1.45761">
        <ele>76</ele>
        <time>2017-07-18T17:06:56Z</time>
      </trkpt>
      <trkpt lat="49.39453" lon="1.45757">
        <ele>76</ele>
        <time>2017-07-18T17:06:56Z</time>
      </trkpt>
      <trkpt lat="49.39451" lon="1.4575">
        <ele>76</ele>
        <time>2017-07-18T17:07:12Z</time>
      </trkpt>
      <trkpt lat="49.39449" lon="1.45743">
        <ele>76</ele>
        <time>2017-07-18T17:07:12Z</time>
      </trkpt>
      <trkpt lat="49.39447" lon="1.45736">
        <ele>76</ele>
        <time>2017-07-18T17:07:12Z</time>
      </trkpt>
      <trkpt lat="49.39445" lon="1.45729">
        <ele>76</ele>
        <time>2017-07-18T17:07:12Z</time>
      </trkpt>
      <trkpt lat="49.39444" lon="1.45722">
        <ele>76</ele>
        <time>2017-07-18T17:07:28Z</time>
      </trkpt>
      <trkpt lat="49.39442" lon="1.45715">
        <ele>76</ele>
        <time>2017-07-18T17:07:28Z</time>
      </trkpt>
      <trkpt lat="49.39441" lon="1.45708">
        <ele>76</ele>
        <time>2017-07-18T17:07:28Z</time>
      </trkpt>
      <trkpt lat="49.39439" lon="1.45701">
        <ele>76</ele>
        <time>2017-07-18T17:07:28Z</time>
      </trkpt>
      <trkpt lat="49.39439" lon="1.45692">
        <ele>76</ele>
        <time>2017-07-18T17:07:52Z</time>
      </trkpt>
      <trkpt lat="49.39436" lon="1.4567">
        <ele>76</ele>
        <time>2017-07-18T17:07:52Z</time>
      </trkpt>
      <trkpt lat="49.39435" lon="1.45663">
        <ele>76</ele>
        <time>2017-07-18T17:07:52Z</time>
      </trkpt>
      <trkpt lat="49.39434" lon="1.45658">
        <ele>76</ele>
        <time>2017-07-18T17:07:52Z</time>
      </trkpt>
      <trkpt lat="49.39434" lon="1.4565">
        <ele>76</ele>
        <time>2017-07-18T17:08:08Z</time>
      </trkpt>
      <trkpt lat="49.39433" lon="1.45644">
        <ele>76</ele>
        <time>2017-07-18T17:08:08Z</time>
      </trkpt>
      <trkpt lat="49.39432" lon="1.45635">
        <ele>76</ele>
        <time>2017-07-18T17:08:08Z</time>
      </trkpt>
      <trkpt lat="49.39431" lon="1.4563">
        <ele>76</ele>
        <time>2017-07-18T17:08:08Z</time>
      </trkpt>
      <trkpt lat="49.39427" lon="1.45615">
        <ele>78</ele>
        <time>2017-07-18T17:08:28Z</time>
      </trkpt>
      <trkpt lat="49.39425" lon="1.45611">
        <ele>78</ele>
        <time>2017-07-18T17:08:28Z</time>
      </trkpt>
      <trkpt lat="49.39423" lon="1.45604">
        <ele>78</ele>
        <time>2017-07-18T17:08:28Z</time>
      </trkpt>
      <trkpt lat="49.39421" lon="1.45597">
        <ele>78</ele>
        <time>2017-07-18T17:08:28Z</time>
      </trkpt>
      <trkpt lat="49.3942" lon="1.4559">
        <ele>78</ele>
        <time>2017-07-18T17:08:44Z</time>
      </trkpt>
      <trkpt lat="49.39418" lon="1.45583">
        <ele>78</ele>
        <time>2017-07-18T17:08:44Z</time>
      </trkpt>
      <trkpt lat="49.39415" lon="1.45578">
        <ele>78</ele>
        <time>2017-07-18T17:08:44Z</time>
      </trkpt>
      <trkpt lat="49.39413" lon="1.45571">
        <ele>78</ele>
        <time>2017-07-18T17:08:44Z</time>
      </trkpt>
      <trkpt lat="49.39411" lon="1.45565">
        <ele>78</ele>
        <time>2017-07-18T17:09:00Z</time>
      </trkpt>
      <trkpt lat="49.3941" lon="1.45559">
        <ele>78</ele>
        <time>2017-07-18T17:09:00Z</time>
      </trkpt>
      <trkpt lat="49.39408" lon="1.45552">
        <ele>78</ele>
        <time>2017-07-18T17:09:00Z</time>
      </trkpt>
      <trkpt lat="49.39406" lon="1.45546">
        <ele>78</ele>
        <time>2017-07-18T17:09:00Z</time>
      </trkpt>
      <trkpt lat="49.39404" lon="1.4554">
        <ele>84</ele>
        <time>2017-07-18T17:09:16Z</time>
      </trkpt>
      <trkpt lat="49.39402" lon="1.45533">
        <ele>84</ele>
        <time>2017-07-18T17:09:16Z</time>
      </trkpt>
      <trkpt lat="49.394" lon="1.45527">
        <ele>84</ele>
        <time>2017-07-18T17:09:16Z</time>
      </trkpt>
      <trkpt lat="49.39398" lon="1.4552">
        <ele>84</ele>
        <time>2017-07-18T17:09:16Z</time>
      </trkpt>
      <trkpt lat="49.39396" lon="1.45513">
        <ele>84</ele>
        <time>2017-07-18T17:09:32Z</time>
      </trkpt>
      <trkpt lat="49.39393" lon="1.45504">
        <ele>84</ele>
        <time>2017-07-18T17:09:32Z</time>
      </trkpt>
      <trkpt lat="49.39392" lon="1.45499">
        <ele>84</ele>
        <time>2017-07-18T17:09:32Z</time>
      </trkpt>
      <trkpt lat="49.3939" lon="1.45492">
        <ele>84</ele>
        <time>2017-07-18T17:09:32Z</time>
      </trkpt>
      <trkpt lat="49.39388" lon="1.45485">
        <ele>84</ele>
        <time>2017-07-18T17:09:48Z</time>
      </trkpt>
      <trkpt lat="49.39386" lon="1.45478">
        <ele>84</ele>
        <time>2017-07-18T17:09:48Z</time>
      </trkpt>
      <trkpt lat="49.39385" lon="1.4547">
        <ele>84</ele>
        <time>2017-07-18T17:09:48Z</time>
      </trkpt>
      <trkpt lat="49.39383" lon="1.45463">
        <ele>84</ele>
        <time>2017-07-18T17:09:48Z</time>
      </trkpt>
      <trkpt lat="49.39381" lon="1.45455">
        <ele>87</ele>
        <time>2017-07-18T17:10:04Z</time>
      </trkpt>
      <trkpt lat="49.39379" lon="1.4545">
        <ele>87</ele>
        <time>2017-07-18T17:10:04Z</time>
      </trkpt>
      <trkpt lat="49.39377" lon="1.45443">
        <ele>87</ele>
        <time>2017-07-18T17:10:04Z</time>
      </trkpt>
      <trkpt lat="49.39375" lon="1.45437">
        <ele>73</ele>
        <time>2017-07-18T17:10:04Z</time>
      </trkpt>
      <trkpt lat="49.39372" lon="1.4543">
        <ele>73</ele>
        <time>2017-07-18T17:10:20Z</time>
      </trkpt>
      <trkpt lat="49.39369" lon="1.45424">
        <ele>73</ele>
        <time>2017-07-18T17:10:20Z</time>
      </trkpt>
      <trkpt lat="49.39367" lon="1.45417">
        <ele>73</ele>
        <time>2017-07-18T17:10:20Z</time>
      </trkpt>
      <trkpt lat="49.39365" lon="1.45412">
        <ele>73</ele>
        <time>2017-07-18T17:10:20Z</time>
      </trkpt>
      <trkpt lat="49.39363" lon="1.45406">
        <ele>73</ele>
        <time>2017-07-18T17:10:36Z</time>
      </trkpt>
      <trkpt lat="49.3936" lon="1.454">
        <ele>73</ele>
        <time>2017-07-18T17:10:36Z</time>
      </trkpt>
      <trkpt lat="49.39358" lon="1.45393">
        <ele>73</ele>
        <time>2017-07-18T17:10:36Z</time>
      </trkpt>
      <trkpt lat="49.39357" lon="1.45387">
        <ele>73</ele>
        <time>2017-07-18T17:10:36Z</time>
      </trkpt>
      <trkpt lat="49.39362" lon="1.45373">
        <ele>77</ele>
        <time>2017-07-18T17:11:12Z</time>
      </trkpt>
      <trkpt lat="49.3936" lon="1.45363">
        <ele>77</ele>
        <time>2017-07-18T17:11:12Z</time>
      </trkpt>
      <trkpt lat="49.39359" lon="1.45355">
        <ele>77</ele>
        <time>2017-07-18T17:11:12Z</time>
      </trkpt>
      <trkpt lat="49.39358" lon="1.45348">
        <ele>77</ele>
        <time>2017-07-18T17:11:12Z</time>
      </trkpt>
      <trkpt lat="49.39356" lon="1.45342">
        <ele>77</ele>
        <time>2017-07-18T17:11:12Z</time>
      </trkpt>
      <trkpt lat="49.39353" lon="1.45336">
        <ele>77</ele>
        <time>2017-07-18T17:11:28Z</time>
      </trkpt>
      <trkpt lat="49.3935" lon="1.4533">
        <ele>77</ele>
        <time>2017-07-18T17:11:28Z</time>
      </trkpt>
      <trkpt lat="49.39348" lon="1.45324">
        <ele>77</ele>
        <time>2017-07-18T17:11:28Z</time>
      </trkpt>
      <trkpt lat="49.39345" lon="1.45318">
        <ele>77</ele>
        <time>2017-07-18T17:11:28Z</time>
      </trkpt>
      <trkpt lat="49.39342" lon="1.45312">
        <ele>77</ele>
        <time>2017-07-18T17:11:44Z</time>
      </trkpt>
      <trkpt lat="49.3934" lon="1.45306">
        <ele>77</ele>
        <time>2017-07-18T17:11:44Z</time>
      </trkpt>
      <trkpt lat="49.39337" lon="1.453">
        <ele>77</ele>
        <time>2017-07-18T17:11:44Z</time>
      </trkpt>
      <trkpt lat="49.39334" lon="1.45294">
        <ele>77</ele>
        <time>2017-07-18T17:11:44Z</time>
      </trkpt>
      <trkpt lat="49.39332" lon="1.45288">
        <ele>82</ele>
        <time>2017-07-18T17:12:00Z</time>
      </trkpt>
      <trkpt lat="49.39329" lon="1.45282">
        <ele>82</ele>
        <time>2017-07-18T17:12:00Z</time>
      </trkpt>
      <trkpt lat="49.39326" lon="1.45276">
        <ele>82</ele>
        <time>2017-07-18T17:12:00Z</time>
      </trkpt>
      <trkpt lat="49.39323" lon="1.4527">
        <ele>82</ele>
        <time>2017-07-18T17:12:00Z</time>
      </trkpt>
      <trkpt lat="49.39321" lon="1.45264">
        <ele>82</ele>
        <time>2017-07-18T17:12:16Z</time>
      </trkpt>
      <trkpt lat="49.39318" lon="1.45258">
        <ele>82</ele>
        <time>2017-07-18T17:12:16Z</time>
      </trkpt>
      <trkpt lat="49.39315" lon="1.45252">
        <ele>82</ele>
        <time>2017-07-18T17:12:16Z</time>
      </trkpt>
      <trkpt lat="49.39312" lon="1.45246">
        <ele>82</ele>
        <time>2017-07-18T17:12:16Z</time>
      </trkpt>
      <trkpt lat="49.3931" lon="1.45241">
        <ele>82</ele>
        <time>2017-07-18T17:12:32Z</time>
      </trkpt>
      <trkpt lat="49.39307" lon="1.45235">
        <ele>82</ele>
        <time>2017-07-18T17:12:32Z</time>
      </trkpt>
      <trkpt lat="49.39304" lon="1.45229">
        <ele>82</ele>
        <time>2017-07-18T17:12:32Z</time>
      </trkpt>
      <trkpt lat="49.39302" lon="1.45223">
        <ele>82</ele>
        <time>2017-07-18T17:12:32Z</time>
      </trkpt>
      <trkpt lat="49.39298" lon="1.45216">
        <ele>82</ele>
        <time>2017-07-18T17:12:48Z</time>
      </trkpt>
      <trkpt lat="49.39295" lon="1.45212">
        <ele>82</ele>
        <time>2017-07-18T17:12:48Z</time>
      </trkpt>
      <trkpt lat="49.39292" lon="1.45206">
        <ele>93</ele>
        <time>2017-07-18T17:12:48Z</time>
      </trkpt>
      <trkpt lat="49.39288" lon="1.45199">
        <ele>75</ele>
        <time>2017-07-18T17:12:48Z</time>
      </trkpt>
      <trkpt lat="49.39286" lon="1.45193">
        <ele>75</ele>
        <time>2017-07-18T17:13:04Z</time>
      </trkpt>
      <trkpt lat="49.39283" lon="1.45189">
        <ele>75</ele>
        <time>2017-07-18T17:13:04Z</time>
      </trkpt>
      <trkpt lat="49.3928" lon="1.45183">
        <ele>75</ele>
        <time>2017-07-18T17:13:04Z</time>
      </trkpt>
      <trkpt lat="49.39276" lon="1.45176">
        <ele>75</ele>
        <time>2017-07-18T17:13:04Z</time>
      </trkpt>
      <trkpt lat="49.39274" lon="1.45172">
        <ele>75</ele>
        <time>2017-07-18T17:13:20Z</time>
      </trkpt>
      <trkpt lat="49.39271" lon="1.45166">
        <ele>75</ele>
        <time>2017-07-18T17:13:20Z</time>
      </trkpt>
      <trkpt lat="49.39267" lon="1.45161">
        <ele>75</ele>
        <time>2017-07-18T17:13:20Z</time>
      </trkpt>
      <trkpt lat="49.39264" lon="1.45155">
        <ele>75</ele>
        <time>2017-07-18T17:13:20Z</time>
      </trkpt>
      <trkpt lat="49.39261" lon="1.4515">
        <ele>75</ele>
        <time>2017-07-18T17:13:36Z</time>
      </trkpt>
      <trkpt lat="49.39258" lon="1.45145">
        <ele>75</ele>
        <time>2017-07-18T17:13:36Z</time>
      </trkpt>
      <trkpt lat="49.39255" lon="1.45139">
        <ele>75</ele>
        <time>2017-07-18T17:13:36Z</time>
      </trkpt>
      <trkpt lat="49.39252" lon="1.45133">
        <ele>75</ele>
        <time>2017-07-18T17:13:36Z</time>
      </trkpt>
      <trkpt lat="49.39249" lon="1.45127">
        <ele>75</ele>
        <time>2017-07-18T17:13:52Z</time>
      </trkpt>
      <trkpt lat="49.39246" lon="1.45121">
        <ele>82</ele>
        <time>2017-07-18T17:13:52Z</time>
      </trkpt>
      <trkpt lat="49.39244" lon="1.45115">
        <ele>82</ele>
        <time>2017-07-18T17:13:52Z</time>
      </trkpt>
      <trkpt lat="49.39242" lon="1.45109">
        <ele>82</ele>
        <time>2017-07-18T17:13:52Z</time>
      </trkpt>
      <trkpt lat="49.39239" lon="1.45102">
        <ele>82</ele>
        <time>2017-07-18T17:14:08Z</time>
      </trkpt>
      <trkpt lat="49.39237" lon="1.45095">
        <ele>82</ele>
        <time>2017-07-18T17:14:08Z</time>
      </trkpt>
      <trkpt lat="49.39235" lon="1.45088">
        <ele>82</ele>
        <time>2017-07-18T17:14:08Z</time>
      </trkpt>
      <trkpt lat="49.39233" lon="1.45082">
        <ele>82</ele>
        <time>2017-07-18T17:14:08Z</time>
      </trkpt>
      <trkpt lat="49.39231" lon="1.45075">
        <ele>82</ele>
        <time>2017-07-18T17:14:24Z</time>
      </trkpt>
      <trkpt lat="49.3923" lon="1.45066">
        <ele>82</ele>
        <time>2017-07-18T17:14:24Z</time>
      </trkpt>
      <trkpt lat="49.39227" lon="1.4506">
        <ele>82</ele>
        <time>2017-07-18T17:14:24Z</time>
      </trkpt>
      <trkpt lat="49.39225" lon="1.45055">
        <ele>82</ele>
        <time>2017-07-18T17:14:24Z</time>
      </trkpt>
      <trkpt lat="49.39223" lon="1.45049">
        <ele>82</ele>
        <time>2017-07-18T17:14:40Z</time>
      </trkpt>
      <trkpt lat="49.3922" lon="1.45043">
        <ele>82</ele>
        <time>2017-07-18T17:14:40Z</time>
      </trkpt>
      <trkpt lat="49.39218" lon="1.45037">
        <ele>89</ele>
        <time>2017-07-18T17:14:40Z</time>
      </trkpt>
      <trkpt lat="49.39214" lon="1.4503">
        <ele>89</ele>
        <time>2017-07-18T17:14:40Z</time>
      </trkpt>
      <trkpt lat="49.39212" lon="1.45025">
        <ele>89</ele>
        <time>2017-07-18T17:14:56Z</time>
      </trkpt>
      <trkpt lat="49.3921" lon="1.45019">
        <ele>89</ele>
        <time>2017-07-18T17:14:56Z</time>
      </trkpt>
      <trkpt lat="49.39206" lon="1.45011">
        <ele>75</ele>
        <time>2017-07-18T17:14:56Z</time>
      </trkpt>
      <trkpt lat="49.39205" lon="1.45006">
        <ele>75</ele>
        <time>2017-07-18T17:14:56Z</time>
      </trkpt>
      <trkpt lat="49.39202" lon="1.44998">
        <ele>75</ele>
        <time>2017-07-18T17:15:12Z</time>
      </trkpt>
      <trkpt lat="49.39201" lon="1.44993">
        <ele>75</ele>
        <time>2017-07-18T17:15:12Z</time>
      </trkpt>
      <trkpt lat="49.39198" lon="1.44987">
        <ele>75</ele>
        <time>2017-07-18T17:15:12Z</time>
      </trkpt>
      <trkpt lat="49.39196" lon="1.44981">
        <ele>75</ele>
        <time>2017-07-18T17:15:12Z</time>
      </trkpt>
      <trkpt lat="49.39194" lon="1.44975">
        <ele>75</ele>
        <time>2017-07-18T17:15:28Z</time>
      </trkpt>
      <trkpt lat="49.39192" lon="1.44969">
        <ele>75</ele>
        <time>2017-07-18T17:15:28Z</time>
      </trkpt>
      <trkpt lat="49.39189" lon="1.44963">
        <ele>75</ele>
        <time>2017-07-18T17:15:28Z</time>
      </trkpt>
      <trkpt lat="49.39186" lon="1.44955">
        <ele>76</ele>
        <time>2017-07-18T17:15:28Z</time>
      </trkpt>
      <trkpt lat="49.39184" lon="1.44951">
        <ele>76</ele>
        <time>2017-07-18T17:15:44Z</time>
      </trkpt>
      <trkpt lat="49.39183" lon="1.44944">
        <ele>76</ele>
        <time>2017-07-18T17:15:44Z</time>
      </trkpt>
      <trkpt lat="49.39181" lon="1.44935">
        <ele>76</ele>
        <time>2017-07-18T17:15:44Z</time>
      </trkpt>
      <trkpt lat="49.39179" lon="1.4493">
        <ele>76</ele>
        <time>2017-07-18T17:15:44Z</time>
      </trkpt>
      <trkpt lat="49.39178" lon="1.44922">
        <ele>76</ele>
        <time>2017-07-18T17:16:00Z</time>
      </trkpt>
      <trkpt lat="49.39176" lon="1.44915">
        <ele>76</ele>
        <time>2017-07-18T17:16:00Z</time>
      </trkpt>
      <trkpt lat="49.39174" lon="1.44908">
        <ele>76</ele>
        <time>2017-07-18T17:16:00Z</time>
      </trkpt>
      <trkpt lat="49.39172" lon="1.44902">
        <ele>76</ele>
        <time>2017-07-18T17:16:00Z</time>
      </trkpt>
      <trkpt lat="49.39171" lon="1.44889">
        <ele>76</ele>
        <time>2017-07-18T17:17:04Z</time>
      </trkpt>
      <trkpt lat="49.39171" lon="1.44889">
        <ele>76</ele>
        <time>2017-07-18T17:17:04Z</time>
      </trkpt>
      <trkpt lat="49.39174" lon="1.44888">
        <ele>76</ele>
        <time>2017-07-18T17:17:04Z</time>
      </trkpt>
      <trkpt lat="49.39177" lon="1.44884">
        <ele>76</ele>
        <time>2017-07-18T17:17:04Z</time>
      </trkpt>
      <trkpt lat="49.39178" lon="1.44875">
        <ele>82</ele>
        <time>2017-07-18T17:17:04Z</time>
      </trkpt>
      <trkpt lat="49.39179" lon="1.44864">
        <ele>82</ele>
        <time>2017-07-18T17:18:20Z</time>
      </trkpt>
      <trkpt lat="49.39178" lon="1.44858">
        <ele>82</ele>
        <time>2017-07-18T17:18:20Z</time>
      </trkpt>
      <trkpt lat="49.39175" lon="1.44848">
        <ele>82</ele>
        <time>2017-07-18T17:18:20Z</time>
      </trkpt>
      <trkpt lat="49.39149" lon="1.44749">
        <ele>95</ele>
        <time>2017-07-18T17:18:20Z</time>
      </trkpt>
      <trkpt lat="49.39148" lon="1.44744">
        <ele>95</ele>
        <time>2017-07-18T17:18:36Z</time>
      </trkpt>
      <trkpt lat="49.39146" lon="1.44738">
        <ele>95</ele>
        <time>2017-07-18T17:18:36Z</time>
      </trkpt>
      <trkpt lat="49.39144" lon="1.44733">
        <ele>95</ele>
        <time>2017-07-18T17:18:36Z</time>
      </trkpt>
      <trkpt lat="49.39142" lon="1.44726">
        <ele>95</ele>
        <time>2017-07-18T17:18:36Z</time>
      </trkpt>
      <trkpt lat="49.39142" lon="1.44722">
        <ele>95</ele>
        <time>2017-07-18T17:18:52Z</time>
      </trkpt>
      <trkpt lat="49.39141" lon="1.44716">
        <ele>95</ele>
        <time>2017-07-18T17:18:52Z</time>
      </trkpt>
      <trkpt lat="49.39141" lon="1.44711">
        <ele>95</ele>
        <time>2017-07-18T17:18:52Z</time>
      </trkpt>
      <trkpt lat="49.3914" lon="1.44707">
        <ele>110</ele>
        <time>2017-07-18T17:18:52Z</time>
      </trkpt>
      <trkpt lat="49.39139" lon="1.44701">
        <ele>110</ele>
        <time>2017-07-18T17:19:08Z</time>
      </trkpt>
      <trkpt lat="49.39138" lon="1.44695">
        <ele>110</ele>
        <time>2017-07-18T17:19:08Z</time>
      </trkpt>
      <trkpt lat="49.39136" lon="1.44689">
        <ele>110</ele>
        <time>2017-07-18T17:19:08Z</time>
      </trkpt>
      <trkpt lat="49.39135" lon="1.44682">
        <ele>110</ele>
        <time>2017-07-18T17:19:08Z</time>
      </trkpt>
      <trkpt lat="49.39134" lon="1.44677">
        <ele>110</ele>
        <time>2017-07-18T17:19:24Z</time>
      </trkpt>
      <trkpt lat="49.39132" lon="1.44671">
        <ele>110</ele>
        <time>2017-07-18T17:19:24Z</time>
      </trkpt>
      <trkpt lat="49.39131" lon="1.44666">
        <ele>110</ele>
        <time>2017-07-18T17:19:24Z</time>
      </trkpt>
      <trkpt lat="49.39129" lon="1.4466">
        <ele>110</ele>
        <time>2017-07-18T17:19:24Z</time>
      </trkpt>
      <trkpt lat="49.39127" lon="1.44654">
        <ele>110</ele>
        <time>2017-07-18T17:19:40Z</time>
      </trkpt>
      <trkpt lat="49.39125" lon="1.44647">
        <ele>92</ele>
        <time>2017-07-18T17:19:40Z</time>
      </trkpt>
      <trkpt lat="49.39123" lon="1.44642">
        <ele>92</ele>
        <time>2017-07-18T17:19:40Z</time>
      </trkpt>
      <trkpt lat="49.39122" lon="1.44635">
        <ele>92</ele>
        <time>2017-07-18T17:19:40Z</time>
      </trkpt>
      <trkpt lat="49.39121" lon="1.44628">
        <ele>92</ele>
        <time>2017-07-18T17:19:56Z</time>
      </trkpt>
      <trkpt lat="49.3912" lon="1.44622">
        <ele>110</ele>
        <time>2017-07-18T17:19:56Z</time>
      </trkpt>
      <trkpt lat="49.39118" lon="1.44615">
        <ele>110</ele>
        <time>2017-07-18T17:19:56Z</time>
      </trkpt>
      <trkpt lat="49.39116" lon="1.44609">
        <ele>110</ele>
        <time>2017-07-18T17:19:56Z</time>
      </trkpt>
      <trkpt lat="49.39115" lon="1.44605">
        <ele>110</ele>
        <time>2017-07-18T17:20:12Z</time>
      </trkpt>
      <trkpt lat="49.39114" lon="1.446">
        <ele>110</ele>
        <time>2017-07-18T17:20:12Z</time>
      </trkpt>
      <trkpt lat="49.39113" lon="1.44594">
        <ele>110</ele>
        <time>2017-07-18T17:20:12Z</time>
      </trkpt>
      <trkpt lat="49.39137" lon="1.44635">
        <ele>110</ele>
        <time>2017-07-18T17:20:12Z</time>
      </trkpt>
      <trkpt lat="49.39148" lon="1.44632">
        <ele>110</ele>
        <time>2017-07-18T17:20:40Z</time>
      </trkpt>
      <trkpt lat="49.39149" lon="1.44627">
        <ele>110</ele>
        <time>2017-07-18T17:20:40Z</time>
      </trkpt>
      <trkpt lat="49.39149" lon="1.44626">
        <ele>110</ele>
        <time>2017-07-18T17:20:40Z</time>
      </trkpt>
      <trkpt lat="49.3915" lon="1.44623">
        <ele>126</ele>
        <time>2017-07-18T17:20:40Z</time>
      </trkpt>
      <trkpt lat="49.39151" lon="1.44622">
        <ele>126</ele>
        <time>2017-07-18T17:20:40Z</time>
      </trkpt>
      <trkpt lat="49.39149" lon="1.44612">
        <ele>126</ele>
        <time>2017-07-18T17:21:04Z</time>
      </trkpt>
      <trkpt lat="49.3915" lon="1.44612">
        <ele>126</ele>
        <time>2017-07-18T17:21:04Z</time>
      </trkpt>
      <trkpt lat="49.39149" lon="1.44609">
        <ele>126</ele>
        <time>2017-07-18T17:21:04Z</time>
      </trkpt>
      <trkpt lat="49.39147" lon="1.44606">
        <ele>126</ele>
        <time>2017-07-18T17:21:04Z</time>
      </trkpt>
      <trkpt lat="49.39145" lon="1.44601">
        <ele>126</ele>
        <time>2017-07-18T17:21:04Z</time>
      </trkpt>
      <trkpt lat="49.39145" lon="1.44597">
        <ele>126</ele>
        <time>2017-07-18T17:21:24Z</time>
      </trkpt>
      <trkpt lat="49.39144" lon="1.44594">
        <ele>126</ele>
        <time>2017-07-18T17:21:24Z</time>
      </trkpt>
      <trkpt lat="49.39143" lon="1.4459">
        <ele>126</ele>
        <time>2017-07-18T17:21:24Z</time>
      </trkpt>
      <trkpt lat="49.3914" lon="1.44585">
        <ele>126</ele>
        <time>2017-07-18T17:21:24Z</time>
      </trkpt>
      <trkpt lat="49.39139" lon="1.44582">
        <ele>126</ele>
        <time>2017-07-18T17:21:24Z</time>
      </trkpt>
      <trkpt lat="49.39136" lon="1.44575">
        <ele>126</ele>
        <time>2017-07-18T17:21:40Z</time>
      </trkpt>
      <trkpt lat="49.39134" lon="1.44571">
        <ele>126</ele>
        <time>2017-07-18T17:21:40Z</time>
      </trkpt>
      <trkpt lat="49.39131" lon="1.44564">
        <ele>126</ele>
        <time>2017-07-18T17:21:40Z</time>
      </trkpt>
      <trkpt lat="49.39129" lon="1.4456">
        <ele>126</ele>
        <time>2017-07-18T17:21:40Z</time>
      </trkpt>
      <trkpt lat="49.39126" lon="1.44555">
        <ele>126</ele>
        <time>2017-07-18T17:21:56Z</time>
      </trkpt>
      <trkpt lat="49.39122" lon="1.44548">
        <ele>110</ele>
        <time>2017-07-18T17:21:56Z</time>
      </trkpt>
      <trkpt lat="49.39119" lon="1.44543">
        <ele>110</ele>
        <time>2017-07-18T17:21:56Z</time>
      </trkpt>
      <trkpt lat="49.39117" lon="1.44539">
        <ele>124</ele>
        <time>2017-07-18T17:21:56Z</time>
      </trkpt>
      <trkpt lat="49.39112" lon="1.44536">
        <ele>124</ele>
        <time>2017-07-18T17:22:28Z</time>
      </trkpt>
      <trkpt lat="49.39109" lon="1.44531">
        <ele>124</ele>
        <time>2017-07-18T17:22:28Z</time>
      </trkpt>
      <trkpt lat="49.39107" lon="1.44528">
        <ele>124</ele>
        <time>2017-07-18T17:22:28Z</time>
      </trkpt>
      <trkpt lat="49.39105" lon="1.44524">
        <ele>124</ele>
        <time>2017-07-18T17:22:28Z</time>
      </trkpt>
      <trkpt lat="49.39101" lon="1.4452">
        <ele>124</ele>
        <time>2017-07-18T17:22:28Z</time>
      </trkpt>
      <trkpt lat="49.39098" lon="1.44515">
        <ele>124</ele>
        <time>2017-07-18T17:22:44Z</time>
      </trkpt>
      <trkpt lat="49.39095" lon="1.4451">
        <ele>124</ele>
        <time>2017-07-18T17:22:44Z</time>
      </trkpt>
      <trkpt lat="49.39092" lon="1.44505">
        <ele>124</ele>
        <time>2017-07-18T17:22:44Z</time>
      </trkpt>
      <trkpt lat="49.39089" lon="1.445">
        <ele>124</ele>
        <time>2017-07-18T17:22:44Z</time>
      </trkpt>
      <trkpt lat="49.39086" lon="1.44495">
        <ele>124</ele>
        <time>2017-07-18T17:23:00Z</time>
      </trkpt>
      <trkpt lat="49.39082" lon="1.44489">
        <ele>124</ele>
        <time>2017-07-18T17:23:00Z</time>
      </trkpt>
      <trkpt lat="49.3908" lon="1.44485">
        <ele>124</ele>
        <time>2017-07-18T17:23:00Z</time>
      </trkpt>
      <trkpt lat="49.39076" lon="1.44481">
        <ele>124</ele>
        <time>2017-07-18T17:23:00Z</time>
      </trkpt>
      <trkpt lat="49.39073" lon="1.44476">
        <ele>124</ele>
        <time>2017-07-18T17:23:16Z</time>
      </trkpt>
      <trkpt lat="49.3907" lon="1.44471">
        <ele>124</ele>
        <time>2017-07-18T17:23:16Z</time>
      </trkpt>
      <trkpt lat="49.39067" lon="1.44466">
        <ele>124</ele>
        <time>2017-07-18T17:23:16Z</time>
      </trkpt>
      <trkpt lat="49.39065" lon="1.44462">
        <ele>124</ele>
        <time>2017-07-18T17:23:16Z</time>
      </trkpt>
      <trkpt lat="49.39064" lon="1.44458">
        <ele>136</ele>
        <time>2017-07-18T17:23:44Z</time>
      </trkpt>
      <trkpt lat="49.39064" lon="1.44451">
        <ele>136</ele>
        <time>2017-07-18T17:23:44Z</time>
      </trkpt>
      <trkpt lat="49.39063" lon="1.44444">
        <ele>136</ele>
        <time>2017-07-18T17:23:44Z</time>
      </trkpt>
      <trkpt lat="49.39063" lon="1.44437">
        <ele>136</ele>
        <time>2017-07-18T17:23:44Z</time>
      </trkpt>
      <trkpt lat="49.39062" lon="1.4443">
        <ele>136</ele>
        <time>2017-07-18T17:23:44Z</time>
      </trkpt>
      <trkpt lat="49.39061" lon="1.44423">
        <ele>136</ele>
        <time>2017-07-18T17:24:00Z</time>
      </trkpt>
      <trkpt lat="49.3906" lon="1.44417">
        <ele>136</ele>
        <time>2017-07-18T17:24:00Z</time>
      </trkpt>
      <trkpt lat="49.39057" lon="1.4441">
        <ele>136</ele>
        <time>2017-07-18T17:24:00Z</time>
      </trkpt>
      <trkpt lat="49.39056" lon="1.44405">
        <ele>136</ele>
        <time>2017-07-18T17:24:00Z</time>
      </trkpt>
      <trkpt lat="49.39054" lon="1.444">
        <ele>136</ele>
        <time>2017-07-18T17:24:16Z</time>
      </trkpt>
      <trkpt lat="49.39053" lon="1.44394">
        <ele>136</ele>
        <time>2017-07-18T17:24:16Z</time>
      </trkpt>
      <trkpt lat="49.39051" lon="1.44386">
        <ele>136</ele>
        <time>2017-07-18T17:24:16Z</time>
      </trkpt>
      <trkpt lat="49.39049" lon="1.4438">
        <ele>136</ele>
        <time>2017-07-18T17:24:16Z</time>
      </trkpt>
      <trkpt lat="49.39048" lon="1.44376">
        <ele>136</ele>
        <time>2017-07-18T17:24:32Z</time>
      </trkpt>
      <trkpt lat="49.39047" lon="1.4437">
        <ele>140</ele>
        <time>2017-07-18T17:24:32Z</time>
      </trkpt>
      <trkpt lat="49.39045" lon="1.44365">
        <ele>140</ele>
        <time>2017-07-18T17:24:32Z</time>
      </trkpt>
      <trkpt lat="49.39044" lon="1.44357">
        <ele>140</ele>
        <time>2017-07-18T17:24:32Z</time>
      </trkpt>
      <trkpt lat="49.39042" lon="1.44351">
        <ele>140</ele>
        <time>2017-07-18T17:24:48Z</time>
      </trkpt>
      <trkpt lat="49.39041" lon="1.44344">
        <ele>134</ele>
        <time>2017-07-18T17:24:48Z</time>
      </trkpt>
      <trkpt lat="49.3904" lon="1.44338">
        <ele>134</ele>
        <time>2017-07-18T17:24:48Z</time>
      </trkpt>
      <trkpt lat="49.39038" lon="1.44332">
        <ele>134</ele>
        <time>2017-07-18T17:24:48Z</time>
      </trkpt>
      <trkpt lat="49.39037" lon="1.44326">
        <ele>134</ele>
        <time>2017-07-18T17:25:04Z</time>
      </trkpt>
      <trkpt lat="49.39035" lon="1.4432">
        <ele>134</ele>
        <time>2017-07-18T17:25:04Z</time>
      </trkpt>
      <trkpt lat="49.39035" lon="1.44315">
        <ele>134</ele>
        <time>2017-07-18T17:25:04Z</time>
      </trkpt>
      <trkpt lat="49.39034" lon="1.44312">
        <ele>134</ele>
        <time>2017-07-18T17:25:04Z</time>
      </trkpt>
      <trkpt lat="49.39033" lon="1.44308">
        <ele>134</ele>
        <time>2017-07-18T17:25:20Z</time>
      </trkpt>
      <trkpt lat="49.39032" lon="1.44303">
        <ele>134</ele>
        <time>2017-07-18T17:25:20Z</time>
      </trkpt>
      <trkpt lat="49.39031" lon="1.44298">
        <ele>134</ele>
        <time>2017-07-18T17:25:20Z</time>
      </trkpt>
      <trkpt lat="49.3903" lon="1.44293">
        <ele>134</ele>
        <time>2017-07-18T17:25:20Z</time>
      </trkpt>
      <trkpt lat="49.39029" lon="1.44287">
        <ele>140</ele>
        <time>2017-07-18T17:25:36Z</time>
      </trkpt>
      <trkpt lat="49.39027" lon="1.44282">
        <ele>140</ele>
        <time>2017-07-18T17:25:36Z</time>
      </trkpt>
      <trkpt lat="49.39026" lon="1.44277">
        <ele>140</ele>
        <time>2017-07-18T17:25:36Z</time>
      </trkpt>
      <trkpt lat="49.39025" lon="1.44273">
        <ele>140</ele>
        <time>2017-07-18T17:25:36Z</time>
      </trkpt>
      <trkpt lat="49.39024" lon="1.44268">
        <ele>140</ele>
        <time>2017-07-18T17:25:52Z</time>
      </trkpt>
      <trkpt lat="49.39023" lon="1.44263">
        <ele>140</ele>
        <time>2017-07-18T17:25:52Z</time>
      </trkpt>
      <trkpt lat="49.39022" lon="1.44256">
        <ele>140</ele>
        <time>2017-07-18T17:25:52Z</time>
      </trkpt>
      <trkpt lat="49.39021" lon="1.44254">
        <ele>140</ele>
        <time>2017-07-18T17:25:52Z</time>
      </trkpt>
      <trkpt lat="49.39021" lon="1.44263">
        <ele>140</ele>
        <time>2017-07-18T17:33:20Z</time>
      </trkpt>
      <trkpt lat="49.39021" lon="1.44263">
        <ele>140</ele>
        <time>2017-07-18T17:33:20Z</time>
      </trkpt>
      <trkpt lat="49.39021" lon="1.44263">
        <ele>140</ele>
        <time>2017-07-18T17:33:20Z</time>
      </trkpt>
      <trkpt lat="49.39021" lon="1.44263">
        <ele>140</ele>
        <time>2017-07-18T17:33:20Z</time>
      </trkpt>
      <trkpt lat="49.39065" lon="1.44328">
        <ele>140</ele>
        <time>2017-07-18T17:33:20Z</time>
      </trkpt>
      <trkpt lat="49.3907" lon="1.44334">
        <ele>140</ele>
        <time>2017-07-18T17:33:36Z</time>
      </trkpt>
      <trkpt lat="49.39073" lon="1.44341">
        <ele>140</ele>
        <time>2017-07-18T17:33:36Z</time>
      </trkpt>
      <trkpt lat="49.39077" lon="1.44345">
        <ele>140</ele>
        <time>2017-07-18T17:33:36Z</time>
      </trkpt>
      <trkpt lat="49.39078" lon="1.44351">
        <ele>140</ele>
        <time>2017-07-18T17:33:36Z</time>
      </trkpt>
      <trkpt lat="49.39083" lon="1.44356">
        <ele>140</ele>
        <time>2017-07-18T17:33:52Z</time>
      </trkpt>
      <trkpt lat="49.39088" lon="1.44361">
        <ele>140</ele>
        <time>2017-07-18T17:33:52Z</time>
      </trkpt>
      <trkpt lat="49.39092" lon="1.44366">
        <ele>140</ele>
        <time>2017-07-18T17:33:52Z</time>
      </trkpt>
      <trkpt lat="49.39096" lon="1.4437">
        <ele>140</ele>
        <time>2017-07-18T17:33:52Z</time>
      </trkpt>
      <trkpt lat="49.391" lon="1.44375">
        <ele>140</ele>
        <time>2017-07-18T17:34:08Z</time>
      </trkpt>
      <trkpt lat="49.39104" lon="1.44379">
        <ele>136</ele>
        <time>2017-07-18T17:34:08Z</time>
      </trkpt>
      <trkpt lat="49.39107" lon="1.44383">
        <ele>136</ele>
        <time>2017-07-18T17:34:08Z</time>
      </trkpt>
      <trkpt lat="49.39109" lon="1.44388">
        <ele>136</ele>
        <time>2017-07-18T17:34:08Z</time>
      </trkpt>
      <trkpt lat="49.39112" lon="1.44393">
        <ele>136</ele>
        <time>2017-07-18T17:34:24Z</time>
      </trkpt>
      <trkpt lat="49.39115" lon="1.44397">
        <ele>136</ele>
        <time>2017-07-18T17:34:24Z</time>
      </trkpt>
      <trkpt lat="49.3912" lon="1.44401">
        <ele>136</ele>
        <time>2017-07-18T17:34:24Z</time>
      </trkpt>
      <trkpt lat="49.39125" lon="1.44406">
        <ele>136</ele>
        <time>2017-07-18T17:34:24Z</time>
      </trkpt>
      <trkpt lat="49.39128" lon="1.44408">
        <ele>143</ele>
        <time>2017-07-18T17:34:40Z</time>
      </trkpt>
      <trkpt lat="49.3913" lon="1.44411">
        <ele>143</ele>
        <time>2017-07-18T17:34:40Z</time>
      </trkpt>
      <trkpt lat="49.39133" lon="1.44413">
        <ele>143</ele>
        <time>2017-07-18T17:34:40Z</time>
      </trkpt>
      <trkpt lat="49.39137" lon="1.44417">
        <ele>143</ele>
        <time>2017-07-18T17:34:40Z</time>
      </trkpt>
      <trkpt lat="49.39141" lon="1.44421">
        <ele>143</ele>
        <time>2017-07-18T17:34:56Z</time>
      </trkpt>
      <trkpt lat="49.39145" lon="1.44425">
        <ele>143</ele>
        <time>2017-07-18T17:34:56Z</time>
      </trkpt>
      <trkpt lat="49.39149" lon="1.44429">
        <ele>143</ele>
        <time>2017-07-18T17:34:56Z</time>
      </trkpt>
      <trkpt lat="49.39153" lon="1.44434">
        <ele>143</ele>
        <time>2017-07-18T17:34:56Z</time>
      </trkpt>
      <trkpt lat="49.39157" lon="1.44438">
        <ele>143</ele>
        <time>2017-07-18T17:35:12Z</time>
      </trkpt>
      <trkpt lat="49.39162" lon="1.44442">
        <ele>143</ele>
        <time>2017-07-18T17:35:12Z</time>
      </trkpt>
      <trkpt lat="49.39165" lon="1.44446">
        <ele>143</ele>
        <time>2017-07-18T17:35:12Z</time>
      </trkpt>
      <trkpt lat="49.39168" lon="1.44449">
        <ele>143</ele>
        <time>2017-07-18T17:35:12Z</time>
      </trkpt>
      <trkpt lat="49.39171" lon="1.44452">
        <ele>143</ele>
        <time>2017-07-18T17:35:28Z</time>
      </trkpt>
      <trkpt lat="49.39175" lon="1.44455">
        <ele>143</ele>
        <time>2017-07-18T17:35:28Z</time>
      </trkpt>
      <trkpt lat="49.39179" lon="1.44463">
        <ele>138</ele>
        <time>2017-07-18T17:35:28Z</time>
      </trkpt>
      <trkpt lat="49.39182" lon="1.44467">
        <ele>138</ele>
        <time>2017-07-18T17:35:28Z</time>
      </trkpt>
      <trkpt lat="49.39185" lon="1.44472">
        <ele>138</ele>
        <time>2017-07-18T17:35:44Z</time>
      </trkpt>
      <trkpt lat="49.39189" lon="1.44475">
        <ele>138</ele>
        <time>2017-07-18T17:35:44Z</time>
      </trkpt>
      <trkpt lat="49.39194" lon="1.44479">
        <ele>138</ele>
        <time>2017-07-18T17:35:44Z</time>
      </trkpt>
      <trkpt lat="49.39199" lon="1.44482">
        <ele>138</ele>
        <time>2017-07-18T17:35:44Z</time>
      </trkpt>
      <trkpt lat="49.39203" lon="1.44484">
        <ele>138</ele>
        <time>2017-07-18T17:36:00Z</time>
      </trkpt>
      <trkpt lat="49.39207" lon="1.44486">
        <ele>138</ele>
        <time>2017-07-18T17:36:00Z</time>
      </trkpt>
      <trkpt lat="49.39211" lon="1.44489">
        <ele>149</ele>
        <time>2017-07-18T17:36:00Z</time>
      </trkpt>
      <trkpt lat="49.39216" lon="1.44491">
        <ele>149</ele>
        <time>2017-07-18T17:36:00Z</time>
      </trkpt>
      <trkpt lat="49.3922" lon="1.44494">
        <ele>149</ele>
        <time>2017-07-18T17:36:16Z</time>
      </trkpt>
      <trkpt lat="49.39223" lon="1.44496">
        <ele>149</ele>
        <time>2017-07-18T17:36:16Z</time>
      </trkpt>
      <trkpt lat="49.39228" lon="1.44499">
        <ele>149</ele>
        <time>2017-07-18T17:36:16Z</time>
      </trkpt>
      <trkpt lat="49.39231" lon="1.44503">
        <ele>149</ele>
        <time>2017-07-18T17:36:16Z</time>
      </trkpt>
      <trkpt lat="49.39235" lon="1.44509">
        <ele>149</ele>
        <time>2017-07-18T17:36:32Z</time>
      </trkpt>
      <trkpt lat="49.39238" lon="1.44511">
        <ele>149</ele>
        <time>2017-07-18T17:36:32Z</time>
      </trkpt>
      <trkpt lat="49.39242" lon="1.44514">
        <ele>149</ele>
        <time>2017-07-18T17:36:32Z</time>
      </trkpt>
      <trkpt lat="49.39246" lon="1.44519">
        <ele>149</ele>
        <time>2017-07-18T17:36:32Z</time>
      </trkpt>
      <trkpt lat="49.39249" lon="1.44521">
        <ele>149</ele>
        <time>2017-07-18T17:36:48Z</time>
      </trkpt>
      <trkpt lat="49.39253" lon="1.44523">
        <ele>149</ele>
        <time>2017-07-18T17:36:48Z</time>
      </trkpt>
      <trkpt lat="49.39257" lon="1.44525">
        <ele>149</ele>
        <time>2017-07-18T17:36:48Z</time>
      </trkpt>
      <trkpt lat="49.39261" lon="1.44526">
        <ele>149</ele>
        <time>2017-07-18T17:36:48Z</time>
      </trkpt>
      <trkpt lat="49.39266" lon="1.44527">
        <ele>149</ele>
        <time>2017-07-18T17:37:04Z</time>
      </trkpt>
      <trkpt lat="49.39271" lon="1.4453">
        <ele>149</ele>
        <time>2017-07-18T17:37:04Z</time>
      </trkpt>
      <trkpt lat="49.39275" lon="1.44531">
        <ele>149</ele>
        <time>2017-07-18T17:37:04Z</time>
      </trkpt>
      <trkpt lat="49.39276" lon="1.44533">
        <ele>149</ele>
        <time>2017-07-18T17:37:04Z</time>
      </trkpt>
      <trkpt lat="49.39279" lon="1.44534">
        <ele>149</ele>
        <time>2017-07-18T17:37:20Z</time>
      </trkpt>
      <trkpt lat="49.39283" lon="1.44538">
        <ele>149</ele>
        <time>2017-07-18T17:37:20Z</time>
      </trkpt>
      <trkpt lat="49.39285" lon="1.44542">
        <ele>142</ele>
        <time>2017-07-18T17:37:20Z</time>
      </trkpt>
      <trkpt lat="49.39288" lon="1.44547">
        <ele>142</ele>
        <time>2017-07-18T17:37:20Z</time>
      </trkpt>
      <trkpt lat="49.39291" lon="1.44549">
        <ele>142</ele>
        <time>2017-07-18T17:37:36Z</time>
      </trkpt>
      <trkpt lat="49.39295" lon="1.44553">
        <ele>152</ele>
        <time>2017-07-18T17:37:36Z</time>
      </trkpt>
      <trkpt lat="49.39298" lon="1.44559">
        <ele>152</ele>
        <time>2017-07-18T17:37:36Z</time>
      </trkpt>
      <trkpt lat="49.39302" lon="1.44563">
        <ele>152</ele>
        <time>2017-07-18T17:37:36Z</time>
      </trkpt>
      <trkpt lat="49.39306" lon="1.44568">
        <ele>152</ele>
        <time>2017-07-18T17:37:52Z</time>
      </trkpt>
      <trkpt lat="49.3931" lon="1.44573">
        <ele>152</ele>
        <time>2017-07-18T17:37:52Z</time>
      </trkpt>
      <trkpt lat="49.39314" lon="1.44576">
        <ele>152</ele>
        <time>2017-07-18T17:37:52Z</time>
      </trkpt>
      <trkpt lat="49.39317" lon="1.4458">
        <ele>152</ele>
        <time>2017-07-18T17:37:52Z</time>
      </trkpt>
      <trkpt lat="49.3932" lon="1.44584">
        <ele>152</ele>
        <time>2017-07-18T17:38:08Z</time>
      </trkpt>
      <trkpt lat="49.39323" lon="1.44589">
        <ele>152</ele>
        <time>2017-07-18T17:38:08Z</time>
      </trkpt>
      <trkpt lat="49.39326" lon="1.44592">
        <ele>152</ele>
        <time>2017-07-18T17:38:08Z</time>
      </trkpt>
      <trkpt lat="49.3933" lon="1.44595">
        <ele>152</ele>
        <time>2017-07-18T17:38:08Z</time>
      </trkpt>
      <trkpt lat="49.39334" lon="1.44597">
        <ele>152</ele>
        <time>2017-07-18T17:38:24Z</time>
      </trkpt>
      <trkpt lat="49.39338" lon="1.44598">
        <ele>152</ele>
        <time>2017-07-18T17:38:24Z</time>
      </trkpt>
      <trkpt lat="49.39342" lon="1.44598">
        <ele>152</ele>
        <time>2017-07-18T17:38:24Z</time>
      </trkpt>
      <trkpt lat="49.39346" lon="1.44598">
        <ele>152</ele>
        <time>2017-07-18T17:38:24Z</time>
      </trkpt>
      <trkpt lat="49.3935" lon="1.446">
        <ele>152</ele>
        <time>2017-07-18T17:38:40Z</time>
      </trkpt>
      <trkpt lat="49.39354" lon="1.44601">
        <ele>152</ele>
        <time>2017-07-18T17:38:40Z</time>
      </trkpt>
      <trkpt lat="49.39359" lon="1.44601">
        <ele>152</ele>
        <time>2017-07-18T17:38:40Z</time>
      </trkpt>
      <trkpt lat="49.39363" lon="1.44602">
        <ele>152</ele>
        <time>2017-07-18T17:38:40Z</time>
      </trkpt>
      <trkpt lat="49.39368" lon="1.44603">
        <ele>152</ele>
        <time>2017-07-18T17:38:56Z</time>
      </trkpt>
      <trkpt lat="49.39373" lon="1.44604">
        <ele>152</ele>
        <time>2017-07-18T17:38:56Z</time>
      </trkpt>
      <trkpt lat="49.39379" lon="1.44608">
        <ele>157</ele>
        <time>2017-07-18T17:38:56Z</time>
      </trkpt>
      <trkpt lat="49.39383" lon="1.4461">
        <ele>157</ele>
        <time>2017-07-18T17:38:56Z</time>
      </trkpt>
      <trkpt lat="49.39386" lon="1.44612">
        <ele>157</ele>
        <time>2017-07-18T17:39:12Z</time>
      </trkpt>
      <trkpt lat="49.3939" lon="1.44615">
        <ele>157</ele>
        <time>2017-07-18T17:39:12Z</time>
      </trkpt>
      <trkpt lat="49.39394" lon="1.44616">
        <ele>157</ele>
        <time>2017-07-18T17:39:12Z</time>
      </trkpt>
      <trkpt lat="49.394" lon="1.44619">
        <ele>157</ele>
        <time>2017-07-18T17:39:12Z</time>
      </trkpt>
      <trkpt lat="49.39403" lon="1.44619">
        <ele>157</ele>
        <time>2017-07-18T17:39:28Z</time>
      </trkpt>
      <trkpt lat="49.39406" lon="1.44619">
        <ele>157</ele>
        <time>2017-07-18T17:39:28Z</time>
      </trkpt>
      <trkpt lat="49.39409" lon="1.4462">
        <ele>157</ele>
        <time>2017-07-18T17:39:28Z</time>
      </trkpt>
      <trkpt lat="49.39412" lon="1.44622">
        <ele>157</ele>
        <time>2017-07-18T17:39:28Z</time>
      </trkpt>
      <trkpt lat="49.39416" lon="1.44624">
        <ele>157</ele>
        <time>2017-07-18T17:39:44Z</time>
      </trkpt>
      <trkpt lat="49.39419" lon="1.44623">
        <ele>157</ele>
        <time>2017-07-18T17:39:44Z</time>
      </trkpt>
      <trkpt lat="49.39424" lon="1.44623">
        <ele>157</ele>
        <time>2017-07-18T17:39:44Z</time>
      </trkpt>
      <trkpt lat="49.39428" lon="1.44622">
        <ele>157</ele>
        <time>2017-07-18T17:39:44Z</time>
      </trkpt>
      <trkpt lat="49.39432" lon="1.44622">
        <ele>157</ele>
        <time>2017-07-18T17:40:00Z</time>
      </trkpt>
      <trkpt lat="49.39436" lon="1.44619">
        <ele>157</ele>
        <time>2017-07-18T17:40:00Z</time>
      </trkpt>
      <trkpt lat="49.3944" lon="1.44618">
        <ele>157</ele>
        <time>2017-07-18T17:40:00Z</time>
      </trkpt>
      <trkpt lat="49.39446" lon="1.4462">
        <ele>157</ele>
        <time>2017-07-18T17:40:00Z</time>
      </trkpt>
      <trkpt lat="49.3945" lon="1.44618">
        <ele>157</ele>
        <time>2017-07-18T17:40:16Z</time>
      </trkpt>
      <trkpt lat="49.39453" lon="1.44617">
        <ele>157</ele>
        <time>2017-07-18T17:40:16Z</time>
      </trkpt>
      <trkpt lat="49.39458" lon="1.44614">
        <ele>157</ele>
        <time>2017-07-18T17:40:16Z</time>
      </trkpt>
      <trkpt lat="49.39462" lon="1.44612">
        <ele>160</ele>
        <time>2017-07-18T17:40:16Z</time>
      </trkpt>
      <trkpt lat="49.39466" lon="1.44611">
        <ele>160</ele>
        <time>2017-07-18T17:40:32Z</time>
      </trkpt>
      <trkpt lat="49.39471" lon="1.44611">
        <ele>160</ele>
        <time>2017-07-18T17:40:32Z</time>
      </trkpt>
      <trkpt lat="49.39474" lon="1.4461">
        <ele>160</ele>
        <time>2017-07-18T17:40:32Z</time>
      </trkpt>
      <trkpt lat="49.39478" lon="1.44608">
        <ele>160</ele>
        <time>2017-07-18T17:40:32Z</time>
      </trkpt>
      <trkpt lat="49.39482" lon="1.44608">
        <ele>160</ele>
        <time>2017-07-18T17:40:48Z</time>
      </trkpt>
      <trkpt lat="49.39487" lon="1.44607">
        <ele>160</ele>
        <time>2017-07-18T17:40:48Z</time>
      </trkpt>
      <trkpt lat="49.39491" lon="1.44605">
        <ele>160</ele>
        <time>2017-07-18T17:40:48Z</time>
      </trkpt>
      <trkpt lat="49.39495" lon="1.44603">
        <ele>160</ele>
        <time>2017-07-18T17:40:48Z</time>
      </trkpt>
      <trkpt lat="49.39503" lon="1.44602">
        <ele>160</ele>
        <time>2017-07-18T17:42:04Z</time>
      </trkpt>
      <trkpt lat="49.39504" lon="1.446">
        <ele>160</ele>
        <time>2017-07-18T17:42:04Z</time>
      </trkpt>
      <trkpt lat="49.39504" lon="1.44597">
        <ele>160</ele>
        <time>2017-07-18T17:42:04Z</time>
      </trkpt>
      <trkpt lat="49.39505" lon="1.44589">
        <ele>160</ele>
        <time>2017-07-18T17:42:04Z</time>
      </trkpt>
      <trkpt lat="49.3951" lon="1.44585">
        <ele>160</ele>
        <time>2017-07-18T17:42:04Z</time>
      </trkpt>
      <trkpt lat="49.39514" lon="1.44582">
        <ele>160</ele>
        <time>2017-07-18T17:42:20Z</time>
      </trkpt>
      <trkpt lat="49.39519" lon="1.44579">
        <ele>160</ele>
        <time>2017-07-18T17:42:20Z</time>
      </trkpt>
      <trkpt lat="49.39523" lon="1.44577">
        <ele>160</ele>
        <time>2017-07-18T17:42:20Z</time>
      </trkpt>
      <trkpt lat="49.39527" lon="1.44574">
        <ele>160</ele>
        <time>2017-07-18T17:42:20Z</time>
      </trkpt>
      <trkpt lat="49.39531" lon="1.44571">
        <ele>160</ele>
        <time>2017-07-18T17:42:36Z</time>
      </trkpt>
      <trkpt lat="49.39535" lon="1.44568">
        <ele>160</ele>
        <time>2017-07-18T17:42:36Z</time>
      </trkpt>
      <trkpt lat="49.39539" lon="1.44565">
        <ele>160</ele>
        <time>2017-07-18T17:42:36Z</time>
      </trkpt>
      <trkpt lat="49.39544" lon="1.44562">
        <ele>163</ele>
        <time>2017-07-18T17:42:36Z</time>
      </trkpt>
      <trkpt lat="49.39548" lon="1.44559">
        <ele>163</ele>
        <time>2017-07-18T17:42:52Z</time>
      </trkpt>
      <trkpt lat="49.39552" lon="1.44556">
        <ele>163</ele>
        <time>2017-07-18T17:42:52Z</time>
      </trkpt>
      <trkpt lat="49.39556" lon="1.44552">
        <ele>163</ele>
        <time>2017-07-18T17:42:52Z</time>
      </trkpt>
      <trkpt lat="49.3956" lon="1.44549">
        <ele>163</ele>
        <time>2017-07-18T17:42:52Z</time>
      </trkpt>
      <trkpt lat="49.39564" lon="1.44547">
        <ele>163</ele>
        <time>2017-07-18T17:43:08Z</time>
      </trkpt>
      <trkpt lat="49.3957" lon="1.44544">
        <ele>163</ele>
        <time>2017-07-18T17:43:08Z</time>
      </trkpt>
      <trkpt lat="49.39572" lon="1.44537">
        <ele>160</ele>
        <time>2017-07-18T17:43:08Z</time>
      </trkpt>
      <trkpt lat="49.39574" lon="1.44529">
        <ele>160</ele>
        <time>2017-07-18T17:43:08Z</time>
      </trkpt>
    </trkseg>
  </trk>
</gpx>